[[{"header":{"parameterUnit":"m.s-1","parameterCategory":1,"la1":30.6,"la2":28.766,"lo1":-90.7593,"lo2":-88.6598,"dy":0.0162,"dx":0.0183,"nx":116,"ny":114,"refTime":"2023-02-24T06:00:00:Z","depth":0,"parameterNumber":2,"parameterNumberName":"U-component_of_WINDS"},"data":[0.0,0.0,0.0,0.0,0.0,0.0,0.0,0.0,0.0,0.0,0.0,0.0,0.0,0.0,0.0,0.0,0.0,0.0,0.0,0.0,0.0,0.0,0.0,0.0,0.0,0.0,0.0,0.0,0.0,0.0,0.0,0.0,0.0,0.0,0.0,0.0,0.0,0.0,0.0,0.0,0.0,0.0,0.0,0.0,0.0,0.0,0.0,0.0,0.0,0.0,0.0,0.0,0.0,0.0,0.0,0.0,0.0,0.0,0.0,0.0,0.0,0.0,0.0,0.0,0.0,0.0,0.0,0.0,0.0,0.0,0.0,0.0,0.0,0.0,0.0,0.0,0.0,0.0,0.0,0.0,0.0,0.0,0.0,0.0,0.0,0.0,0.0,0.0,0.0,0.0,0.0,0.0,0.0,0.0,0.0,0.0,0.0,0.0,0.0,0.0,0.0,0.0,0.0,0.0,0.0,0.0,0.0,0.0,0.0,0.0,0.0,0.0,0.0,0.0,0.0,0.0,0.0,0.0,0.0,0.0,0.0,0.0,0.0,0.0,0.0,0.0,0.0,0.0,0.0,0.0,0.0,0.0,0.0,0.0,0.0,0.0,0.0,0.0,0.0,0.0,0.0,0.0,0.0,0.0,0.0,0.0,0.0,0.0,0.0,0.0,0.0,0.0,0.0,0.0,0.0,0.0,0.0,0.0,0.0,0.0,0.0,0.0,0.0,0.0,0.0,0.0,0.0,0.0,0.0,0.0,0.0,0.0,0.0,0.0,0.0,0.0,0.0,0.0,0.0,0.0,0.0,0.0,0.0,0.0,0.0,0.0,0.0,0.0,0.0,0.0,0.0,0.0,0.0,0.0,0.0,0.0,0.0,0.0,0.0,0.0,0.0,0.0,0.0,0.0,0.0,0.0,0.0,0.0,0.0,0.0,0.0,0.0,0.0,0.0,0.0,0.0,0.0,0.0,0.0,0.0,0.0,0.0,0.0,0.0,0.0,0.0,0.0,0.0,0.0,0.0,0.0,0.0,0.0,0.0,0.0,0.0,0.0,0.0,0.0,0.0,0.0,0.0,0.0,0.0,0.0,0.0,0.0,0.0,0.0,0.0,0.0,0.0,0.0,0.0,0.0,0.0,0.0,0.0,0.0,0.0,0.0,0.0,0.0,0.0,0.0,0.0,0.0,0.0,0.0,0.0,0.0,0.0,0.0,0.0,0.0,0.0,0.0,0.0,0.0,0.0,0.0,0.0,0.0,0.0,0.0,0.0,0.0,0.0,0.0,0.0,0.0,0.0,0.0,0.0,0.0,0.0,0.0,0.0,0.0,0.0,0.0,0.0,0.0,0.0,0.0,0.0,0.0,0.0,0.0,0.0,0.0,0.0,0.0,0.0,0.0,0.0,0.0,0.0,0.0,0.0,0.0,0.0,0.0,0.0,0.0,0.0,0.0,0.0,0.0,0.0,0.0,0.0,0.0,0.0,0.0,0.0,0.0,0.0,0.0,0.0,0.0,0.0,0.0,0.0,0.0,0.0,0.0,0.0,0.0,0.0,0.0,0.0,0.0,0.0,0.0,0.0,0.0,0.0,0.0,0.0,0.0,0.0,0.0,0.0,0.0,0.0,0.0,0.0,0.0,0.0,0.0,0.0,0.0,0.0,0.0,0.0,0.0,0.0,0.0,0.0,0.0,0.0,0.0,0.0,0.0,0.0,0.0,0.0,0.0,0.0,0.0,0.0,0.0,0.0,0.0,0.0,0.0,0.0,0.0,0.0,0.0,0.0,0.0,0.0,0.0,0.0,0.0,0.0,0.0,0.0,0.0,0.0,0.0,0.0,0.0,0.0,0.0,0.0,0.0,0.0,0.0,0.0,0.0,0.0,0.0,0.0,0.0,0.0,0.0,0.0,0.0,0.0,0.0,0.0,0.0,0.0,0.0,0.0,0.0,0.0,0.0,0.0,0.0,0.0,0.0,0.0,0.0,0.0,0.0,0.0,0.0,0.0,0.0,0.0,0.0,0.0,0.0,0.0,0.0,0.0,0.0,0.0,0.0,0.0,0.0,0.0,0.0,0.0,0.0,0.0,0.0,0.0,0.0,0.0,0.0,0.0,0.0,0.0,0.0,0.0,0.0,0.0,0.0,0.0,0.0,0.0,0.0,0.0,0.0,0.0,0.0,0.0,0.0,0.0,0.0,0.0,0.0,0.0,0.0,0.0,0.0,0.0,0.0,0.0,0.0,0.0,0.0,0.0,0.0,0.0,0.0,0.0,0.0,0.0,0.0,0.0,0.0,0.0,0.0,0.0,0.0,0.0,0.0,0.0,0.0,0.0,0.0,0.0,0.0,0.0,0.0,0.0,0.0,0.0,0.0,0.0,0.0,0.0,0.0,0.0,0.0,0.0,0.0,0.0,0.0,0.0,0.0,0.0,0.0,0.0,0.0,0.0,0.0,0.0,0.0,0.0,0.0,0.0,0.0,0.0,0.0,0.0,0.0,0.0,0.0,0.0,0.0,0.0,0.0,0.0,0.0,0.0,0.0,0.0,0.0,0.0,0.0,0.0,0.0,0.0,0.0,0.0,0.0,0.0,0.0,0.0,0.0,0.0,0.0,0.0,0.0,0.0,0.0,0.0,0.0,0.0,0.0,0.0,0.0,0.0,0.0,0.0,0.0,0.0,0.0,0.0,0.0,0.0,0.0,0.0,0.0,0.0,0.0,0.0,0.0,0.0,0.0,0.0,0.0,0.0,0.0,0.0,0.0,0.0,0.0,0.0,0.0,0.0,0.0,0.0,0.0,0.0,0.0,0.0,0.0,0.0,0.0,0.0,0.0,0.0,0.0,0.0,0.0,0.0,0.0,0.0,0.0,0.0,0.0,0.0,0.0,0.0,0.0,0.0,0.0,0.0,0.0,0.0,0.0,0.0,0.0,0.0,0.0,0.0,0.0,0.0,0.0,0.0,0.0,0.0,0.0,0.0,0.0,0.0,0.0,0.0,0.0,0.0,0.0,0.0,0.0,0.0,0.0,0.0,0.0,0.0,0.0,0.0,0.0,0.0,0.0,0.0,0.0,0.0,0.0,0.0,0.0,0.0,0.0,0.0,0.0,0.0,0.0,0.0,0.0,0.0,0.0,0.0,0.0,0.0,0.0,0.0,0.0,0.0,0.0,0.0,0.0,0.0,0.0,0.0,0.0,0.0,0.0,0.0,0.0,0.0,0.0,0.0,0.0,0.0,0.0,0.0,0.0,0.0,0.0,0.0,0.0,0.0,0.0,0.0,0.0,0.0,0.0,0.0,0.0,0.0,0.0,0.0,0.0,0.0,0.0,0.0,0.0,0.0,0.0,0.0,0.0,0.0,0.0,0.0,0.0,0.0,0.0,0.0,0.0,0.0,0.0,0.0,0.0,0.0,0.0,0.0,0.0,0.0,0.0,0.0,0.0,0.0,0.0,0.0,0.0,0.0,0.0,0.0,0.0,0.0,0.0,0.0,0.0,0.0,0.0,0.0,0.0,0.0,0.0,0.0,0.0,0.0,0.0,0.0,0.0,0.0,0.0,0.0,0.0,0.0,0.0,0.0,0.0,0.0,0.0,0.0,0.0,0.0,0.0,0.0,0.0,0.0,0.0,0.0,0.0,0.0,0.0,0.0,0.0,0.0,0.0,0.0,0.0,0.0,0.0,0.0,0.0,0.0,0.0,0.0,0.0,0.0,0.0,0.0,0.0,0.0,0.0,0.0,0.0,0.0,0.0,0.0,0.0,0.0,0.0,0.0,0.0,0.0,0.0,0.0,0.0,0.0,0.0,0.0,0.0,0.0,0.0,0.0,0.0,0.0,0.0,0.0,0.0,0.0,0.0,0.0,0.0,0.0,0.0,0.0,0.0,0.0,0.0,0.0,0.0,0.0,0.0,0.0,0.0,0.0,0.0,0.0,0.0,0.0,0.0,0.0,0.0,0.0,0.0,0.0,0.0,0.0,0.0,0.0,0.0,0.0,0.0,0.0,0.0,0.0,0.0,0.0,0.0,0.0,0.0,0.0,0.0,0.0,0.0,0.0,0.0,0.0,0.0,0.0,0.0,0.0,0.0,0.0,0.0,0.0,0.0,0.0,0.0,0.0,0.0,0.0,0.0,0.0,0.0,0.0,0.0,0.0,0.0,0.0,0.0,0.0,0.0,0.0,0.0,0.0,0.0,0.0,0.0,0.0,0.0,0.0,0.0,0.0,0.0,0.0,0.0,0.0,0.0,0.0,0.0,0.0,0.0,0.0,0.0,0.0,0.0,0.0,0.0,0.0,0.0,0.0,0.0,0.0,0.0,0.0,0.0,0.0,0.0,0.0,0.0,0.0,0.0,0.0,0.0,0.0,0.0,0.0,0.0,0.0,0.0,0.0,0.0,0.0,0.0,0.0,0.0,0.0,0.0,0.0,0.0,0.0,0.0,0.0,0.0,0.0,0.0,0.0,0.0,0.0,0.0,0.0,0.0,0.0,0.0,0.0,0.0,0.0,0.0,0.0,0.0,0.0,0.0,0.0,0.0,0.0,0.0,0.0,0.0,0.0,0.0,0.0,0.0,0.0,0.0,0.0,0.0,0.0,0.0,0.0,0.0,0.0,0.0,0.0,0.0,0.0,0.0,0.0,0.0,0.0,0.0,0.0,0.0,0.0,0.0,0.0,0.0,0.0,0.0,0.0,0.0,0.0,0.0,0.0,0.0,0.0,0.0,0.0,0.0,0.0,0.0,0.0,0.0,0.0,0.0,0.0,0.0,0.0,0.0,0.0,0.0,0.0,0.0,0.0,0.0,0.0,0.0,0.0,0.0,0.0,0.0,0.0,0.0,0.0,0.0,0.0,0.0,0.0,0.0,0.0,0.0,0.0,0.0,0.0,0.0,0.0,0.0,0.0,0.0,0.0,0.0,0.0,0.0,0.0,0.0,0.0,0.0,0.0,0.0,0.0,0.0,0.0,0.0,0.0,0.0,0.0,0.0,0.0,0.0,0.0,0.0,0.0,0.0,0.0,0.0,0.0,0.0,0.0,0.0,0.0,0.0,0.0,0.0,0.0,0.0,0.0,0.0,0.0,0.0,0.0,0.0,0.0,0.0,0.0,0.0,0.0,0.0,0.0,0.0,0.0,0.0,0.0,0.0,0.0,0.0,0.0,0.0,0.0,0.0,0.0,0.0,0.0,0.0,0.0,0.0,0.0,0.0,0.0,0.0,0.0,0.0,0.0,0.0,0.0,0.0,0.0,0.0,0.0,0.0,0.0,0.0,0.0,0.0,0.0,0.0,0.0,0.0,0.0,0.0,0.0,0.0,0.0,0.0,0.0,0.0,0.0,0.0,0.0,0.0,0.0,0.0,0.0,0.0,0.0,0.0,0.0,0.0,0.0,0.0,0.0,0.0,0.0,0.0,0.0,0.0,0.0,0.0,0.0,0.0,0.0,0.0,0.0,0.0,0.0,0.0,0.0,0.0,0.0,0.0,0.0,0.0,0.0,0.0,0.0,0.0,0.0,0.0,0.0,0.0,0.0,0.0,0.0,0.0,0.0,0.0,0.0,0.0,0.0,0.0,0.0,0.0,0.0,0.0,0.0,0.0,0.0,0.0,0.0,0.0,0.0,0.0,0.0,0.0,0.0,0.0,0.0,0.0,0.0,0.0,0.0,0.0,0.0,0.0,0.0,0.0,0.0,0.0,0.0,0.0,0.0,0.0,0.0,0.0,0.0,0.0,0.0,0.0,0.0,0.0,0.0,0.0,0.0,0.0,0.0,0.0,0.0,0.0,0.0,0.0,0.0,0.0,0.0,0.0,0.0,0.0,0.0,0.0,0.0,0.0,0.0,0.0,0.0,0.0,0.0,0.0,0.0,0.0,0.0,0.0,0.0,0.0,0.0,0.0,0.0,0.0,0.0,0.0,0.0,0.0,0.0,0.0,0.0,0.0,0.0,0.0,0.0,0.0,0.0,0.0,0.0,0.0,0.0,0.0,0.0,0.0,0.0,0.0,0.0,0.0,0.0,0.0,0.0,0.0,0.0,0.0,0.0,0.0,0.0,0.0,0.0,0.0,0.0,0.0,0.0,0.0,0.0,0.0,0.0,0.0,0.0,-2.5904,0.0,0.0,0.0,0.0,0.0,0.0,0.0,0.0,0.0,0.0,0.0,0.0,0.0,0.0,0.0,0.0,0.0,0.0,0.0,0.0,0.0,0.0,0.0,0.0,0.0,0.0,0.0,0.0,0.0,0.0,0.0,0.0,0.0,0.0,0.0,0.0,0.0,0.0,0.0,0.0,0.0,0.0,0.0,0.0,0.0,0.0,0.0,0.0,0.0,0.0,0.0,0.0,0.0,0.0,0.0,0.0,0.0,0.0,0.0,0.0,0.0,0.0,0.0,0.0,0.0,0.0,0.0,0.0,0.0,0.0,0.0,0.0,0.0,0.0,0.0,0.0,0.0,0.0,0.0,0.0,0.0,0.0,0.0,0.0,0.0,0.0,0.0,0.0,0.0,0.0,0.0,0.0,0.0,0.0,0.0,0.0,0.0,0.0,0.0,0.0,0.0,0.0,0.0,0.0,0.0,0.0,0.0,0.0,0.0,0.0,0.0,0.0,0.0,0.0,0.0,0.0,-2.6257,0.0,0.0,0.0,0.0,0.0,0.0,0.0,0.0,0.0,0.0,0.0,0.0,0.0,0.0,0.0,0.0,0.0,0.0,0.0,0.0,0.0,0.0,0.0,0.0,0.0,0.0,0.0,0.0,0.0,0.0,0.0,0.0,0.0,0.0,0.0,0.0,0.0,0.0,0.0,0.0,0.0,0.0,0.0,0.0,0.0,0.0,0.0,0.0,0.0,0.0,0.0,0.0,0.0,0.0,0.0,0.0,0.0,0.0,0.0,0.0,0.0,0.0,0.0,0.0,0.0,0.0,0.0,0.0,0.0,0.0,0.0,0.0,0.0,0.0,0.0,0.0,0.0,0.0,0.0,0.0,0.0,0.0,0.0,0.0,0.0,0.0,0.0,0.0,0.0,0.0,0.0,0.0,0.0,0.0,0.0,0.0,0.0,0.0,0.0,0.0,0.0,0.0,0.0,0.0,0.0,0.0,0.0,0.0,-3.0794,-3.1589,-3.2109,-3.1555,-3.1677,-3.226,-3.0142,-2.8392,-2.7019,-2.6718,0.0,0.0,0.0,0.0,0.0,0.0,0.0,0.0,0.0,0.0,0.0,0.0,0.0,0.0,0.0,0.0,0.0,0.0,0.0,0.0,0.0,0.0,0.0,0.0,0.0,0.0,0.0,0.0,0.0,0.0,0.0,0.0,0.0,0.0,0.0,0.0,0.0,0.0,0.0,0.0,0.0,0.0,0.0,0.0,0.0,0.0,0.0,0.0,0.0,0.0,0.0,0.0,0.0,0.0,0.0,0.0,0.0,0.0,0.0,0.0,0.0,0.0,0.0,0.0,0.0,0.0,0.0,0.0,0.0,0.0,0.0,0.0,0.0,0.0,0.0,0.0,0.0,0.0,0.0,0.0,0.0,0.0,0.0,0.0,0.0,0.0,-3.0499,-3.052,0.0,0.0,0.0,0.0,0.0,0.0,0.0,0.0,0.0,0.0,0.0,0.0,0.0,-3.038,-3.1198,-3.2763,-3.3147,-3.241,-3.4052,-3.4488,-3.3897,-3.4539,-3.4899,-3.4982,-3.4633,0.0,-2.8711,-2.7981,0.0,0.0,0.0,0.0,0.0,0.0,0.0,0.0,0.0,0.0,0.0,0.0,0.0,0.0,0.0,0.0,0.0,0.0,0.0,0.0,0.0,0.0,0.0,0.0,0.0,0.0,0.0,0.0,0.0,0.0,0.0,0.0,0.0,0.0,0.0,0.0,0.0,0.0,0.0,0.0,0.0,0.0,0.0,0.0,0.0,0.0,0.0,0.0,0.0,0.0,0.0,0.0,0.0,0.0,0.0,0.0,0.0,0.0,0.0,0.0,0.0,0.0,0.0,0.0,0.0,0.0,0.0,0.0,0.0,0.0,0.0,0.0,0.0,0.0,0.0,0.0,0.0,0.0,0.0,0.0,0.0,0.0,0.0,0.0,0.0,-3.1357,-3.2177,-3.0244,-3.2141,-3.2695,0.0,0.0,0.0,0.0,0.0,0.0,0.0,0.0,0.0,-3.2235,-3.305,-3.3848,-3.4605,-3.6281,-3.6938,-3.6571,-3.7816,-3.8485,-3.8579,-3.8473,-3.838,-3.8274,-3.7819,-3.6001,-3.3237,-3.1445,-2.9597,-2.784,0.0,0.0,0.0,0.0,-2.5891,-2.5411,0.0,0.0,0.0,0.0,0.0,0.0,0.0,0.0,0.0,0.0,0.0,0.0,0.0,0.0,0.0,0.0,0.0,0.0,0.0,0.0,0.0,0.0,0.0,0.0,0.0,0.0,0.0,0.0,0.0,0.0,0.0,0.0,0.0,0.0,0.0,0.0,0.0,0.0,0.0,0.0,0.0,0.0,0.0,0.0,0.0,0.0,0.0,0.0,0.0,0.0,0.0,0.0,0.0,0.0,0.0,0.0,0.0,0.0,0.0,0.0,0.0,0.0,0.0,0.0,0.0,0.0,0.0,0.0,0.0,0.0,0.0,0.0,0.0,0.0,0.0,0.0,0.0,-3.2385,-3.3416,-3.0214,-3.3298,-3.4355,0.0,0.0,0.0,0.0,0.0,0.0,-3.4004,-3.3644,-3.4061,-3.5525,-3.6565,-3.7459,-3.8195,-3.9677,-4.0416,-4.0377,-4.1038,-4.1679,-4.228,-4.1621,-4.1139,-4.0792,-4.0204,-3.8969,-3.7156,-3.4379,-3.1987,-3.0023,-2.9607,-2.8455,-2.7071,-2.7408,-2.6907,-2.6137,0.0,0.0,0.0,0.0,0.0,0.0,0.0,0.0,0.0,0.0,0.0,0.0,0.0,0.0,0.0,0.0,0.0,0.0,0.0,0.0,0.0,0.0,0.0,0.0,0.0,0.0,0.0,0.0,0.0,0.0,0.0,0.0,0.0,0.0,0.0,0.0,0.0,0.0,0.0,0.0,0.0,0.0,0.0,0.0,0.0,0.0,0.0,0.0,0.0,0.0,0.0,0.0,0.0,0.0,0.0,0.0,0.0,0.0,0.0,0.0,0.0,0.0,0.0,0.0,0.0,0.0,0.0,0.0,0.0,0.0,0.0,0.0,0.0,0.0,0.0,0.0,0.0,0.0,0.0,-3.1034,-3.527,0.0,0.0,0.0,0.0,-3.457,-3.5273,-3.5781,-3.5859,-3.6553,-3.7337,-3.817,-3.9792,-4.0994,-4.1733,-4.2714,-4.3129,-4.3014,-4.3054,-4.3096,-4.315,-4.3019,-4.2529,-4.1735,-4.1681,-4.0716,-3.8919,-3.5523,-3.3562,-3.2614,-3.1584,-3.0619,-2.9758,-2.9401,-2.8706,-2.7828,0.0,0.0,0.0,0.0,0.0,0.0,0.0,0.0,0.0,0.0,0.0,0.0,0.0,0.0,0.0,0.0,0.0,0.0,0.0,0.0,0.0,0.0,0.0,0.0,0.0,0.0,0.0,0.0,0.0,0.0,0.0,0.0,0.0,0.0,0.0,0.0,0.0,0.0,0.0,0.0,0.0,0.0,0.0,0.0,0.0,0.0,0.0,0.0,0.0,0.0,0.0,0.0,0.0,0.0,0.0,0.0,0.0,0.0,0.0,0.0,0.0,0.0,0.0,0.0,0.0,0.0,0.0,0.0,0.0,0.0,0.0,0.0,0.0,0.0,0.0,0.0,0.0,0.0,0.0,-3.5806,-3.8861,0.0,-3.6914,-3.7262,-3.7773,-3.8027,-3.832,-3.9238,-4.0879,-4.0702,-4.1442,-4.3414,-4.3519,-4.3899,-4.4639,-4.4976,-4.5101,-4.5082,-4.5075,-4.5067,-4.5078,-4.5045,-4.4186,-4.2701,-4.2686,-4.1701,-3.9885,-3.7586,-3.5834,-3.455,-3.4153,-3.2725,-3.0956,-3.1328,-3.0385,-2.8968,0.0,0.0,0.0,0.0,0.0,0.0,0.0,0.0,0.0,0.0,0.0,0.0,0.0,0.0,0.0,0.0,0.0,0.0,0.0,0.0,0.0,0.0,0.0,0.0,0.0,0.0,0.0,0.0,0.0,0.0,0.0,0.0,0.0,0.0,0.0,0.0,0.0,0.0,0.0,0.0,0.0,0.0,-2.4001,0.0,0.0,0.0,0.0,0.0,0.0,0.0,0.0,0.0,0.0,0.0,0.0,0.0,0.0,0.0,0.0,0.0,0.0,0.0,0.0,0.0,0.0,0.0,0.0,0.0,0.0,0.0,0.0,0.0,0.0,0.0,0.0,0.0,0.0,0.0,-3.9864,-3.8895,-4.1885,-4.2996,-4.0379,-4.0996,-4.1715,-4.2031,-4.2324,-4.3105,-4.4492,-4.4023,-4.4648,-4.668,-4.5898,-4.5781,-4.6523,-4.6294,-4.6134,-4.6095,-4.6095,-4.6103,-4.6094,-4.5768,-4.4746,-4.3185,-4.292,-4.1921,-4.0381,-3.9006,-3.7613,-3.6295,-3.5712,-3.4215,-3.2398,-3.284,-3.1874,-3.0366,0.0,0.0,0.0,0.0,0.0,0.0,0.0,0.0,0.0,0.0,0.0,0.0,0.0,0.0,0.0,0.0,0.0,0.0,0.0,0.0,0.0,0.0,0.0,0.0,0.0,0.0,0.0,0.0,0.0,0.0,0.0,0.0,0.0,0.0,0.0,0.0,0.0,0.0,0.0,0.0,0.0,0.0,-2.6972,0.0,0.0,0.0,0.0,0.0,0.0,0.0,0.0,0.0,0.0,0.0,0.0,0.0,0.0,0.0,0.0,0.0,0.0,0.0,0.0,0.0,0.0,0.0,0.0,0.0,0.0,0.0,0.0,0.0,0.0,0.0,0.0,0.0,-3.5841,-4.0238,-4.2524,-4.0068,-4.4195,-4.6301,-4.3899,-4.5943,-4.7141,-4.6426,-4.7168,-4.7266,-4.6426,-4.6387,-4.6777,-4.7617,-4.6797,-4.668,-4.7402,-4.668,-4.623,-4.6113,-4.6113,-4.6094,-4.6074,-4.5137,-4.416,-4.3163,-4.236,-4.1432,-4.0435,-3.9607,-3.876,-3.7849,-3.618,-3.5007,-3.4205,-3.3945,-3.3166,-3.2043,0.0,0.0,0.0,0.0,0.0,0.0,0.0,0.0,0.0,0.0,0.0,0.0,0.0,0.0,0.0,0.0,0.0,0.0,0.0,0.0,0.0,0.0,0.0,0.0,0.0,0.0,0.0,0.0,0.0,0.0,0.0,0.0,0.0,0.0,0.0,0.0,0.0,0.0,0.0,0.0,0.0,0.0,-2.8459,0.0,0.0,0.0,0.0,0.0,0.0,0.0,0.0,0.0,0.0,0.0,0.0,0.0,0.0,0.0,0.0,0.0,0.0,0.0,0.0,0.0,0.0,0.0,0.0,0.0,0.0,0.0,0.0,0.0,0.0,0.0,0.0,-4.0371,-4.115,-4.2996,-4.4665,-4.5751,-4.7209,-4.7874,-4.7198,-4.7869,-4.8294,-4.8183,-4.8418,-4.8437,-4.8203,-4.8183,-4.8301,-4.8535,-4.7695,-4.7344,-4.7539,-4.6719,-4.6289,-4.625,-4.625,-4.6191,-4.6074,-4.5273,-4.4336,-4.33,-4.2438,-4.1528,-4.0525,-3.8985,-3.8214,-3.7899,-3.6796,-3.5865,-3.5135,-3.5067,-3.4206,-3.2778,0.0,0.0,0.0,0.0,0.0,0.0,0.0,0.0,0.0,0.0,0.0,0.0,0.0,0.0,0.0,0.0,0.0,0.0,0.0,0.0,0.0,0.0,0.0,0.0,0.0,0.0,0.0,0.0,0.0,0.0,0.0,0.0,0.0,0.0,0.0,0.0,0.0,0.0,0.0,0.0,0.0,0.0,-3.1197,-2.9325,-2.9244,-3.0045,-2.9066,-3.1265,-3.4508,-3.3871,0.0,0.0,0.0,0.0,0.0,0.0,0.0,0.0,0.0,0.0,0.0,0.0,0.0,0.0,0.0,0.0,0.0,0.0,0.0,0.0,0.0,0.0,0.0,0.0,-4.1335,-4.411,-4.6176,-4.6557,-4.7277,-4.9095,-4.9664,-4.995,-5.0,-5.0082,-5.0049,-4.9888,-4.9556,-4.923,-4.8926,-4.8906,-4.8906,-4.8906,-4.8047,-4.7598,-4.7598,-4.6738,-4.6308,-4.6308,-4.6308,-4.6269,-4.6133,-4.498,-4.4101,0.0,-4.2187,-4.1277,-4.059,-3.9167,-3.8342,0.0,0.0,0.0,0.0,0.0,-3.4364,-3.2853,0.0,0.0,0.0,0.0,0.0,0.0,0.0,0.0,0.0,0.0,0.0,0.0,0.0,0.0,0.0,0.0,0.0,0.0,0.0,0.0,0.0,0.0,0.0,0.0,0.0,0.0,0.0,0.0,0.0,0.0,0.0,0.0,0.0,0.0,0.0,0.0,0.0,0.0,0.0,0.0,0.0,0.0,-3.4354,-3.1884,-3.2456,-3.4563,-3.4775,-3.452,-3.4438,-3.6656,0.0,0.0,0.0,0.0,0.0,0.0,0.0,0.0,0.0,0.0,0.0,0.0,0.0,0.0,0.0,0.0,0.0,0.0,0.0,0.0,0.0,0.0,0.0,0.0,-4.4797,-4.7191,-5.0519,-5.0317,-5.0125,-5.0885,-5.1606,-5.2107,-5.2241,-5.2167,-5.1883,-5.1388,-5.0595,-4.9827,-4.9082,0.0,0.0,0.0,0.0,-4.7754,-4.7754,-4.6777,-4.6308,-4.6308,-4.6308,-4.6289,-4.6211,-4.459,-4.3769,-4.3515,-4.186,-4.0983,-4.065,-3.9769,-3.88,-3.77,-3.6115,-3.55,-3.5479,-3.5198,-3.4102,-3.2643,0.0,0.0,0.0,0.0,0.0,0.0,0.0,0.0,0.0,0.0,0.0,0.0,0.0,0.0,0.0,0.0,0.0,0.0,0.0,0.0,0.0,0.0,0.0,0.0,0.0,0.0,0.0,0.0,0.0,0.0,0.0,0.0,0.0,0.0,0.0,0.0,0.0,0.0,0.0,0.0,0.0,0.0,-3.519,-3.4113,-3.4698,-3.609,-3.6301,-3.7733,-3.949,-3.9389,-3.9067,-3.8435,-3.6749,0.0,0.0,0.0,0.0,0.0,0.0,0.0,0.0,0.0,0.0,0.0,0.0,0.0,0.0,0.0,0.0,0.0,0.0,0.0,0.0,-4.3682,-4.6644,-4.9606,-5.2337,-5.2568,-5.2529,-5.2702,-5.2856,-5.2993,-5.3143,-5.2506,-5.2135,-5.2239,-5.1441,-5.0662,-4.998,-5.0566,-5.0625,-4.9961,-4.9101,-4.8652,-4.8652,-4.709,-4.6308,-4.6308,0.0,0.0,-4.6113,-4.5176,-4.4336,-4.3535,-4.2504,-4.1575,-4.071,-3.9776,-3.8433,-3.6846,-3.5885,-3.55,-3.5479,-3.5198,-3.4456,-3.3388,0.0,0.0,0.0,0.0,0.0,0.0,0.0,0.0,0.0,0.0,0.0,0.0,0.0,0.0,0.0,0.0,0.0,0.0,0.0,0.0,0.0,0.0,0.0,0.0,0.0,0.0,0.0,0.0,0.0,0.0,0.0,0.0,0.0,0.0,0.0,0.0,0.0,0.0,0.0,0.0,0.0,0.0,-3.5474,-3.513,-3.5627,-3.6589,-3.7079,-3.8128,-3.9429,-4.028,-4.008,-3.94,-3.888,-3.7464,-3.5599,0.0,0.0,0.0,0.0,0.0,0.0,0.0,0.0,0.0,0.0,0.0,0.0,0.0,0.0,-3.8113,0.0,0.0,-4.4872,-4.738,-4.9757,-5.1895,-5.3606,-5.4203,-5.4299,-5.3895,-5.3857,-5.3715,-5.3338,-5.291,-5.2547,-5.2322,-5.1521,-5.0931,-5.0664,-5.1055,-5.0937,-5.0137,-4.9316,-4.8691,-4.8242,-4.6953,-4.6308,-4.6308,-4.6308,-4.6269,-4.6172,-4.5371,-4.4746,-4.4238,-4.2921,-4.2017,-4.1318,-3.9453,-3.8176,-3.7238,-3.5981,-3.55,-3.5486,-3.5354,-3.4749,-3.383,0.0,0.0,0.0,0.0,0.0,0.0,0.0,0.0,0.0,0.0,0.0,0.0,0.0,0.0,0.0,0.0,0.0,0.0,0.0,0.0,0.0,0.0,0.0,0.0,0.0,0.0,0.0,0.0,0.0,0.0,0.0,0.0,0.0,0.0,0.0,0.0,0.0,0.0,0.0,0.0,0.0,0.0,-3.5504,-3.5504,-3.5908,-3.6562,-3.71,-3.7328,-3.7746,-3.9985,-3.9929,-3.907,-4.0027,-3.9252,-3.7516,-3.5125,-3.4507,0.0,0.0,0.0,0.0,0.0,0.0,0.0,0.0,0.0,-3.5326,-3.6498,-3.8641,-4.1041,-4.3498,-4.564,-4.8052,-5.1164,-5.2658,-5.376,-5.4607,-5.5164,-5.5241,-5.4587,-5.4491,-5.4164,-5.3269,-5.3038,-5.2714,-5.2132,-5.136,-5.0952,-5.11,-5.1162,-5.0825,-5.0039,-4.9277,-4.8476,-4.7617,-4.6738,-4.6308,-4.6308,-4.6308,-4.6308,-4.6289,-4.5566,-4.5156,-4.4902,-4.3298,-4.2403,-4.1902,-3.9483,-3.8296,-3.7853,-3.6327,-3.5635,-3.55,-3.55,-3.4949,-3.4044,0.0,0.0,0.0,0.0,0.0,0.0,0.0,0.0,0.0,0.0,0.0,0.0,0.0,0.0,0.0,0.0,0.0,0.0,0.0,0.0,0.0,0.0,0.0,0.0,0.0,0.0,0.0,0.0,0.0,0.0,0.0,0.0,0.0,0.0,0.0,0.0,0.0,0.0,0.0,0.0,0.0,0.0,-3.5504,-3.5504,-3.5908,-3.6435,-3.5949,-3.6122,-3.6893,-3.8582,-3.909,-3.9227,-4.0637,-4.081,-3.9905,-3.6848,0.0,-3.4164,-3.1731,-3.1569,-3.2517,-3.4174,-3.4656,-3.5683,0.0,0.0,-3.9659,-4.1215,-4.3106,-4.4957,-4.6388,-4.8302,-5.0397,-5.2628,-5.3759,-5.4645,-5.5453,-5.5038,-5.4594,-5.4498,-5.4511,-5.4155,-5.3278,-5.25,-5.2058,-5.2098,-5.1356,-5.0959,-5.1089,-5.1147,-5.0841,-5.0039,-4.9277,-4.8476,-4.7617,-4.6738,-4.6308,-4.6308,-4.6308,-4.6308,-4.6308,-4.6191,-4.5723,-4.4941,-4.3782,-4.2848,-4.1999,-4.0739,-3.9335,-3.7892,-3.6942,-3.6135,-3.55,-3.55,-3.4949,-3.4044,0.0,0.0,0.0,0.0,0.0,0.0,0.0,0.0,0.0,0.0,0.0,0.0,0.0,0.0,0.0,0.0,0.0,0.0,0.0,0.0,0.0,0.0,0.0,0.0,0.0,0.0,0.0,0.0,0.0,0.0,0.0,0.0,0.0,0.0,0.0,0.0,0.0,0.0,0.0,0.0,0.0,0.0,-3.5492,-3.5502,-3.5155,-3.4729,-3.5278,-3.4881,0.0,0.0,-3.5545,-3.7353,-3.9303,-3.9261,-3.8208,-3.6702,-3.578,0.0,-3.4742,-3.4288,-3.4358,-3.6125,-3.7032,-3.8169,-4.0691,-4.1379,-4.1886,-4.3391,-4.5088,-4.6608,-4.761,-4.9676,-5.1649,0.0,-5.4326,-5.5145,-5.5011,-5.4287,-5.3381,-5.2391,-5.1845,-5.1769,-5.2385,-5.2115,-5.1731,-5.1318,-5.0981,-5.0808,-5.0866,-5.0491,-5.0112,-4.9785,-4.8633,-4.7851,-4.748,-4.6699,-4.6308,-4.6308,-4.6308,-4.6308,-4.6308,-4.6308,-4.582,-4.4941,-4.3869,-4.2911,-4.198,-4.0449,-3.94,-3.8623,-3.7238,-3.6481,-3.6135,-3.5673,-3.5269,-3.4743,0.0,0.0,0.0,0.0,0.0,0.0,0.0,0.0,0.0,0.0,0.0,0.0,0.0,0.0,0.0,0.0,0.0,0.0,0.0,0.0,0.0,0.0,0.0,0.0,0.0,0.0,0.0,0.0,0.0,0.0,0.0,0.0,0.0,0.0,0.0,0.0,0.0,0.0,0.0,0.0,0.0,0.0,-3.5451,-3.5063,-3.399,-3.2936,-3.4545,-3.3387,0.0,0.0,-3.1871,-3.423,-3.6823,-3.6888,-3.6046,-3.6146,-3.5717,-3.5318,-3.5813,-3.5774,-3.6011,-3.7714,-3.9359,-4.0845,-4.1884,-4.3037,-4.4122,-4.4965,-4.6176,-4.7463,-4.8605,-5.0198,-5.1782,-5.3175,-5.4504,-5.5164,-5.4587,-5.3526,-5.2314,-5.0873,-4.9721,-4.951,-5.0741,-5.1068,-5.1077,-5.0731,-5.0712,-5.0712,-5.0712,-5.0,-4.949,-4.924,-4.8016,-4.7222,-4.6992,-4.6484,-4.623,-4.625,-4.6289,-4.6308,-4.6308,-4.6308,-4.582,-4.4941,-4.4122,-4.3129,-4.1999,-4.0558,-3.9585,-3.8815,-3.7546,-3.6769,-3.6308,-3.5712,-3.55,-3.5288,0.0,0.0,0.0,0.0,0.0,0.0,0.0,0.0,0.0,0.0,0.0,0.0,0.0,0.0,0.0,0.0,0.0,0.0,0.0,0.0,0.0,0.0,0.0,0.0,0.0,0.0,0.0,0.0,0.0,0.0,0.0,0.0,0.0,0.0,0.0,0.0,0.0,0.0,0.0,0.0,0.0,0.0,-3.5336,-3.3923,-3.2477,-3.1522,-3.3534,0.0,0.0,0.0,-2.8757,-2.9775,-3.3112,-3.4105,0.0,-3.5547,-3.5117,0.0,0.0,0.0,-3.6831,-3.8769,-4.1533,-4.3789,-4.3915,-4.5614,-4.696,-4.6302,-4.6656,-4.7721,-4.9777,-4.99,-5.0596,-5.3409,-5.4246,-5.453,-5.4491,-5.3028,-5.1634,-5.0798,-4.9171,-4.8167,0.0,-4.898,-4.9817,-5.0654,-5.0712,-5.0712,-5.0712,-5.0,-4.9201,-4.8364,-4.7595,-4.6793,-4.5957,-4.6055,-4.6113,-4.6113,-4.623,-4.6308,-4.6308,-4.6308,-4.582,-4.498,-4.4763,-4.3689,-4.2077,-4.1826,-4.0277,-3.8027,-3.7988,-3.6969,-3.5538,-3.5519,-3.55,-3.5365,0.0,0.0,0.0,0.0,0.0,0.0,0.0,0.0,0.0,0.0,0.0,0.0,0.0,0.0,0.0,0.0,0.0,0.0,0.0,0.0,0.0,0.0,0.0,0.0,0.0,0.0,0.0,0.0,0.0,0.0,0.0,0.0,0.0,0.0,0.0,0.0,0.0,0.0,0.0,0.0,0.0,0.0,-3.5398,-3.393,-3.2128,-3.0301,0.0,0.0,0.0,0.0,0.0,0.0,-3.0418,0.0,0.0,-3.2492,0.0,0.0,0.0,0.0,-4.0185,-4.2663,-4.4207,-4.532,-4.6185,-4.695,-4.7361,-4.6888,-4.6523,-4.636,-4.6521,-4.7127,-4.8194,-4.996,-5.1967,-5.3173,-5.2806,-5.2769,-5.1817,-4.9269,-4.846,0.0,0.0,0.0,0.0,-4.9779,-4.9836,-5.0096,-5.0673,-4.9913,-4.9077,-4.8186,-4.7456,-4.6665,-4.5844,-4.5927,-4.6018,-4.6094,-4.623,-4.6308,-4.6308,-4.6308,-4.582,-4.4961,-4.4263,-4.3263,-4.2042,-4.1348,-4.0202,-3.8815,-3.8238,-3.7296,-3.6231,-3.5692,-3.55,-3.5288,0.0,0.0,0.0,0.0,0.0,0.0,0.0,0.0,0.0,0.0,0.0,0.0,0.0,0.0,0.0,0.0,0.0,0.0,0.0,0.0,0.0,0.0,0.0,0.0,0.0,0.0,0.0,0.0,0.0,0.0,0.0,0.0,0.0,0.0,0.0,0.0,0.0,0.0,0.0,0.0,0.0,0.0,-3.3412,-3.1907,-3.0399,0.0,0.0,0.0,0.0,0.0,0.0,0.0,0.0,0.0,0.0,0.0,0.0,0.0,0.0,-4.0713,-4.2258,-4.5095,-4.632,-4.6983,-4.7512,-4.7779,-4.7635,-4.6559,-4.5425,-4.4544,-4.4305,-4.4432,-4.5298,-4.7564,-4.9441,-5.093,-5.1788,-5.1875,-5.1258,-4.9654,-4.894,-4.8369,0.0,0.0,0.0,-4.9355,-4.9702,-5.0115,-5.0673,-4.9875,-4.9135,-4.8585,-4.7516,-4.6726,-4.6208,-4.5969,-4.5937,-4.6108,-4.6249,-4.6308,-4.6308,-4.6308,-4.5644,-4.4492,-4.3868,-4.2858,-4.1595,-4.0959,-3.9966,-3.8777,-3.8219,-3.7296,-3.6212,-3.5692,-3.55,-3.5308,0.0,0.0,0.0,0.0,0.0,0.0,0.0,0.0,0.0,0.0,0.0,0.0,0.0,0.0,0.0,0.0,0.0,0.0,0.0,0.0,0.0,0.0,0.0,0.0,0.0,0.0,0.0,0.0,0.0,0.0,0.0,0.0,0.0,0.0,0.0,0.0,0.0,0.0,0.0,0.0,0.0,0.0,-2.9751,-2.8185,0.0,0.0,0.0,0.0,0.0,0.0,0.0,0.0,0.0,0.0,0.0,0.0,0.0,-3.7939,-4.0488,-4.1898,-4.3386,-4.623,-4.7958,-4.8746,-4.7915,-4.8041,-4.7663,-4.5328,-4.3397,-4.2341,0.0,0.0,-4.2208,-4.6256,-4.7002,-4.8192,-5.1434,-5.0633,-5.0257,0.0,0.0,0.0,0.0,0.0,0.0,-4.9465,0.0,-5.0654,-5.0712,-4.9913,-4.9442,-4.9336,-4.7797,-4.6919,-4.6823,-4.6151,-4.59,-4.6089,-4.6225,-4.6289,-4.6308,-4.6308,-4.5351,-4.3691,-4.3636,-4.2549,-4.0789,-4.0731,-3.9644,-3.8007,-3.8007,-3.6988,-3.55,-3.55,-3.55,-3.5385,0.0,0.0,0.0,0.0,0.0,0.0,0.0,0.0,0.0,0.0,0.0,0.0,0.0,0.0,0.0,0.0,0.0,0.0,0.0,0.0,0.0,0.0,0.0,0.0,0.0,0.0,0.0,0.0,0.0,0.0,0.0,0.0,0.0,0.0,0.0,0.0,0.0,0.0,0.0,0.0,0.0,0.0,-2.9941,0.0,0.0,0.0,0.0,0.0,0.0,0.0,0.0,0.0,0.0,-3.3647,-3.5922,-3.7211,-3.9315,-4.1717,-4.4114,-4.6354,-4.8345,-4.9643,-4.9802,-4.9401,-4.8511,-4.7014,-4.5276,-4.3379,-4.1177,-3.9496,-3.9108,0.0,0.0,-4.3983,-4.7158,0.0,-5.1645,-5.3165,0.0,-5.2069,0.0,-5.1739,-5.0488,-5.0365,0.0,0.0,-4.9971,-5.0019,-5.0673,-5.0491,-4.9779,-4.8472,-4.802,-4.7193,-4.595,-4.5834,-4.586,-4.5947,-4.6097,-4.6201,-4.6308,-4.6308,-4.5351,-4.3691,-4.3671,-4.2584,-4.0797,-4.0788,-3.9675,-3.8007,-3.8007,-3.6988,-3.55,-3.55,-3.55,-3.5385,0.0,0.0,0.0,0.0,0.0,0.0,0.0,0.0,0.0,0.0,0.0,0.0,0.0,0.0,0.0,0.0,0.0,0.0,0.0,0.0,0.0,0.0,0.0,0.0,0.0,0.0,0.0,0.0,0.0,0.0,0.0,0.0,0.0,0.0,0.0,0.0,0.0,0.0,0.0,0.0,0.0,0.0,0.0,0.0,0.0,0.0,0.0,0.0,0.0,0.0,0.0,-3.3038,-3.4839,-3.6526,-3.8322,-4.0653,-4.2432,-4.4239,-4.6938,-4.8817,-5.0232,-5.1273,-5.068,-4.9478,-4.817,-4.6028,-4.3505,-4.0769,-3.8836,-3.7386,-3.656,-3.7827,-3.9727,0.0,0.0,0.0,-5.1068,-5.2916,-5.3927,0.0,-5.3682,0.0,-5.2455,-5.2017,-5.1635,0.0,-5.0452,-5.0173,-5.0673,-5.0712,-5.025,-4.926,-4.8491,-4.7298,-4.5614,-4.5729,-4.5822,-4.587,-4.6017,-4.6144,-4.6203,-4.5878,-4.498,-4.3672,0.0,-4.2272,-4.0877,-4.0816,-3.9723,-3.8074,-3.8024,-3.6988,-3.55,-3.55,-3.55,-3.5327,0.0,0.0,0.0,0.0,0.0,0.0,0.0,0.0,0.0,0.0,0.0,0.0,0.0,0.0,0.0,0.0,0.0,0.0,0.0,0.0,0.0,0.0,0.0,0.0,0.0,0.0,0.0,0.0,0.0,0.0,0.0,0.0,0.0,0.0,0.0,0.0,0.0,0.0,0.0,0.0,0.0,0.0,0.0,0.0,0.0,0.0,0.0,0.0,0.0,0.0,-3.3602,-3.4782,-3.7727,-3.9509,-4.1148,-4.4268,-4.5456,-4.6406,-4.935,-5.0354,-5.0847,-5.1986,-5.0959,-4.9191,-4.7219,-4.4745,-4.1789,-3.797,-3.6431,-3.5587,-3.4821,-3.6031,-3.795,-4.0434,0.0,-4.6771,-5.0308,-5.152,-5.2974,-5.5416,-5.5077,-5.4652,-5.4652,-5.3776,-5.2894,-5.2127,-5.1222,-5.0712,-5.0712,-5.0712,-5.0587,-5.0356,-4.8786,-4.7197,-4.5614,-4.571,-4.5772,-4.5808,-4.5994,-4.6082,-4.6071,-4.5348,-4.4512,-4.3652,-4.2773,0.0,-4.0992,-4.086,-3.9844,-3.8341,-3.8085,-3.7046,-3.5654,-3.5538,-3.55,-3.5288,0.0,0.0,0.0,0.0,0.0,0.0,0.0,0.0,0.0,0.0,-2.5423,-2.4329,0.0,0.0,0.0,0.0,0.0,0.0,0.0,0.0,0.0,0.0,0.0,0.0,0.0,0.0,0.0,0.0,0.0,0.0,0.0,0.0,0.0,0.0,0.0,0.0,0.0,0.0,0.0,0.0,0.0,0.0,0.0,0.0,0.0,0.0,0.0,0.0,0.0,0.0,-3.7044,-3.9103,-4.0974,-4.262,-4.4378,-4.6929,-4.8669,-5.0202,-5.2087,-5.3102,-5.3533,-5.3108,-5.13,-4.8831,-4.5792,-4.2231,0.0,-3.5995,-3.4252,-3.3188,-3.3041,-3.5132,-3.7666,-4.0175,-4.3215,-4.6682,-5.072,-5.2268,-5.3643,0.0,-5.5588,-5.5491,-5.5491,-5.4099,0.0,0.0,-5.1559,-5.0712,-5.0712,-5.0712,-5.0038,-4.8606,-4.7614,-4.6621,-4.5614,-4.5614,-4.5689,-4.5797,-4.5889,-4.5992,-4.6071,-4.5348,-4.4512,-4.3652,-4.2773,0.0,-4.0992,-4.086,-4.0154,-3.911,-3.8316,-3.7373,-3.6404,-3.575,-3.55,-3.5462,0.0,0.0,0.0,0.0,0.0,0.0,0.0,-2.7893,-2.8721,-3.0303,-2.9727,-2.8343,-2.6157,-2.5022,0.0,0.0,0.0,0.0,0.0,0.0,0.0,0.0,0.0,0.0,0.0,0.0,0.0,0.0,0.0,0.0,0.0,0.0,0.0,0.0,0.0,0.0,0.0,0.0,0.0,0.0,0.0,0.0,0.0,0.0,0.0,0.0,0.0,0.0,0.0,0.0,-3.6285,-3.9237,-4.2506,-4.4085,-4.5278,-4.8141,-4.9517,-5.0563,-5.2656,-5.3482,-5.3592,-5.2784,-5.0417,-4.7462,-4.4195,0.0,0.0,-3.4252,-3.2803,-3.21,-3.2509,-3.4556,-3.6845,-3.8874,-4.1458,-4.4701,-4.8885,-5.0479,-5.2176,-5.4778,-5.5453,-5.5549,-5.5115,-5.3953,-5.3011,-5.257,-5.1385,-5.0712,-5.0712,-5.0269,-4.9442,-4.8145,-4.7326,-4.6487,-4.5614,-4.5594,-4.5633,-4.5699,-4.5803,-4.591,-4.5956,-4.4793,-4.4057,-4.3633,-4.2344,0.0,-4.1063,-4.0469,-3.9698,-3.8774,-3.7802,-3.689,-3.6086,-3.5649,-3.55,-3.5442,0.0,0.0,0.0,0.0,0.0,0.0,0.0,-2.9758,-3.1003,-3.3678,-3.3868,-3.2519,-2.9286,-2.7012,-2.5412,0.0,0.0,0.0,0.0,0.0,0.0,0.0,0.0,0.0,0.0,0.0,0.0,0.0,0.0,0.0,0.0,0.0,0.0,0.0,0.0,0.0,0.0,0.0,0.0,0.0,0.0,0.0,0.0,0.0,0.0,0.0,0.0,0.0,0.0,0.0,-3.4357,-3.7254,-4.1735,-4.3754,-4.5021,-4.7958,-4.928,-5.0288,-5.2582,-5.3335,-5.3225,-5.2234,-4.9536,-4.6214,-4.2818,-3.8927,-3.533,-3.2839,-3.1843,-3.1586,-3.2228,-3.3907,-3.5826,0.0,-3.949,-4.2253,-4.6778,-4.835,-5.0253,-5.3543,-5.4671,0.0,-5.4276,-5.343,0.0,-5.1713,-5.0702,0.0,-5.0404,-4.9769,-4.8923,-4.7886,-4.7239,-4.6487,-4.5614,-4.5594,-4.5594,-4.5594,-4.5733,-4.585,-4.5845,-4.4298,-4.3633,-4.3613,-4.1933,0.0,0.0,-4.0115,-3.9297,-3.8569,-3.7379,-3.6477,-3.5847,-3.5611,-3.5515,-3.5391,0.0,0.0,0.0,0.0,0.0,0.0,0.0,-3.0753,-3.2968,-3.6317,-3.6042,-3.5156,-3.406,-3.0814,-2.772,0.0,0.0,0.0,0.0,0.0,0.0,0.0,0.0,0.0,0.0,0.0,0.0,0.0,0.0,0.0,0.0,0.0,0.0,0.0,0.0,0.0,0.0,0.0,0.0,0.0,0.0,0.0,0.0,0.0,0.0,0.0,0.0,0.0,0.0,0.0,0.0,-3.3647,-3.7088,-4.0669,-4.3974,-4.5718,-4.8343,-5.1059,-5.2726,-5.3739,-5.3922,-5.238,-4.9536,-4.6067,-4.2104,0.0,-3.4435,-3.2008,-3.1452,-3.1415,-3.1507,-3.2855,-3.4825,-3.7481,0.0,-4.0219,-4.566,-4.7258,-4.8912,-5.1811,0.0,0.0,-5.3321,-5.2519,-5.1684,-5.0865,-4.9288,0.0,-4.948,-4.9442,-4.8672,-4.7064,-4.6938,-4.6487,-4.5614,-4.5594,-4.5594,-4.5594,-4.5733,-4.585,-4.5845,-4.4298,-4.3633,-4.3613,-4.1933,0.0,0.0,-4.0115,-3.9648,-3.9403,-3.7592,-3.6845,-3.669,-3.5885,-3.5558,-3.5508,0.0,0.0,0.0,0.0,0.0,0.0,-2.9692,-3.0839,-3.2943,-3.7427,-3.7701,-3.7157,-3.6322,-3.3988,-3.0778,0.0,0.0,0.0,0.0,0.0,0.0,0.0,0.0,0.0,0.0,0.0,0.0,0.0,0.0,0.0,0.0,0.0,0.0,0.0,0.0,0.0,0.0,0.0,0.0,0.0,0.0,0.0,0.0,0.0,0.0,0.0,0.0,0.0,0.0,0.0,0.0,0.0,-3.2852,-3.5881,0.0,0.0,-4.6067,-4.8416,-5.1041,-5.2711,-5.3298,-5.1683,-4.882,-4.5461,-4.1902,0.0,-3.3867,-3.243,-3.098,-3.0411,-3.1861,-3.2248,-3.3198,0.0,0.0,0.0,-4.142,-4.2552,-4.4489,-4.8855,-5.0566,0.0,0.0,0.0,-5.0604,-4.9229,-4.8489,0.0,-4.7903,-4.7903,-4.7585,-4.6919,-4.6382,-4.595,-4.5594,-4.5594,-4.5594,-4.5594,-4.5648,-4.5492,-4.5136,-4.4004,-4.3273,-4.2851,-4.1699,0.0,0.0,-3.9411,-3.8724,-3.8115,-3.6801,-3.6257,-3.6148,-3.5799,-3.5292,-3.4853,0.0,0.0,0.0,0.0,0.0,-2.6688,-3.0173,-3.1235,-3.3301,-3.7988,-3.8594,-3.8457,-3.8105,-3.5605,-3.2675,-2.9483,-2.7352,0.0,0.0,0.0,0.0,0.0,0.0,0.0,0.0,0.0,-2.5652,-2.6168,-2.7118,0.0,0.0,0.0,0.0,0.0,0.0,0.0,0.0,0.0,0.0,0.0,0.0,0.0,0.0,0.0,0.0,0.0,0.0,0.0,0.0,0.0,0.0,0.0,0.0,0.0,0.0,0.0,-4.3167,-4.5792,-4.86,-5.0527,-5.1479,-5.0343,-4.7425,-4.4048,-4.1058,0.0,-3.3146,-3.2106,-3.073,-3.0228,-3.1935,-3.2175,-3.2788,0.0,0.0,-3.4862,-3.8538,-3.9631,-4.1592,-4.5738,0.0,-4.9019,0.0,-4.9575,-4.9062,-4.7844,0.0,0.0,-4.6547,-4.6528,-4.6518,-4.6525,-4.593,-4.5594,-4.5594,-4.5594,-4.5594,-4.5594,-4.5594,-4.5259,-4.4613,-4.3786,-4.3019,-4.2302,-4.1269,0.0,0.0,-3.8672,-3.7851,-3.7207,-3.627,-3.5841,-3.5761,-3.5761,-3.5177,-3.4466,0.0,0.0,0.0,0.0,0.0,0.0,-3.0173,-3.2213,-3.4629,-3.8144,-3.8594,-3.8926,-3.9785,-3.5293,-3.2871,-3.4473,-3.0606,0.0,0.0,0.0,0.0,0.0,0.0,0.0,0.0,0.0,-2.6024,-2.727,-2.8094,-2.8684,-2.9088,-2.9088,0.0,0.0,0.0,0.0,0.0,0.0,0.0,0.0,0.0,0.0,0.0,0.0,0.0,0.0,0.0,0.0,0.0,0.0,0.0,0.0,0.0,0.0,0.0,0.0,-3.9769,-4.3882,-4.5498,-4.7131,-4.8361,-4.8343,-4.5314,-4.1699,-3.9276,-3.5555,-3.2161,-3.0558,-3.0834,-3.1378,-3.1415,-3.2706,-3.4141,-3.5306,0.0,0.0,-3.8181,-3.9869,-4.1357,0.0,0.0,-4.5985,-4.6858,-4.6942,-4.6929,-4.6913,0.0,0.0,-4.5614,-4.5614,-4.5614,-4.5614,-4.5594,-4.5594,-4.5594,-4.5594,-4.5594,-4.5594,-4.5594,-4.521,-4.4473,-4.3748,-4.3006,0.0,0.0,0.0,0.0,-3.8027,-3.7305,-3.7207,-3.627,-3.5901,-3.5901,-3.5901,-3.53,-3.45,0.0,0.0,0.0,0.0,0.0,0.0,0.0,-2.9105,-3.0957,-3.3848,-3.4707,-3.5605,-3.707,-3.4707,-3.3476,-3.4609,0.0,0.0,0.0,0.0,0.0,0.0,0.0,0.0,0.0,0.0,-2.7964,-2.9839,-3.1192,-3.2412,-3.3449,-3.2256,-3.1698,-3.1641,0.0,0.0,0.0,0.0,0.0,0.0,0.0,0.0,0.0,0.0,0.0,0.0,0.0,0.0,0.0,0.0,0.0,0.0,0.0,0.0,0.0,0.0,0.0,0.0,-4.2194,-4.3791,-4.4892,-4.4342,-4.2415,-4.0029,-3.7606,-3.4761,-3.2142,-3.0534,-2.9977,-2.9929,-3.0485,-3.1152,-3.2201,-3.4039,0.0,0.0,0.0,0.0,0.0,-4.207,-4.4568,-4.6293,0.0,0.0,-4.5517,-4.5982,0.0,0.0,-4.5586,-4.5371,-4.5352,-4.5586,-4.5594,-4.5594,-4.5594,-4.5594,-4.5594,-4.5594,-4.5594,-4.4893,-4.3602,-4.3373,-4.259,0.0,0.0,0.0,0.0,-3.7773,-3.6953,-3.6387,-3.6072,-3.5945,-3.5827,-3.5284,-3.4458,-3.364,0.0,0.0,0.0,0.0,0.0,0.0,0.0,-2.766,-2.9121,-3.1406,-3.2148,-3.3359,-3.5742,-3.418,-3.3691,-3.5527,0.0,0.0,0.0,0.0,0.0,0.0,0.0,0.0,0.0,-2.7503,-2.9223,-3.1602,-3.3247,-3.4713,-3.5942,-3.518,-3.4141,-3.2852,-3.1814,0.0,0.0,0.0,0.0,0.0,0.0,0.0,-3.0987,0.0,0.0,0.0,0.0,0.0,0.0,0.0,0.0,0.0,0.0,0.0,0.0,0.0,0.0,0.0,0.0,-4.023,-4.1128,-4.0598,-3.9019,0.0,-3.533,-3.3238,-3.1317,-3.002,-2.9599,-2.9617,-3.01,-3.0583,-3.1445,-3.3088,-3.3058,0.0,0.0,0.0,0.0,-4.1798,0.0,0.0,0.0,-4.4964,-4.4838,0.0,0.0,0.0,-4.5381,-4.5096,-4.5055,-4.541,-4.541,-4.5476,-4.5594,-4.5594,-4.5441,-4.5114,-4.5114,-4.4248,-4.2671,-4.2718,-4.1903,0.0,0.0,0.0,0.0,-3.7168,-3.6309,-3.5547,-3.5879,-3.5779,-3.5398,-3.4882,-3.4093,-3.3241,0.0,0.0,0.0,0.0,0.0,0.0,0.0,-2.7622,-2.8887,-3.0508,-3.082,-3.2109,-3.5293,-3.3535,-3.3437,-3.6738,0.0,0.0,0.0,0.0,0.0,0.0,0.0,0.0,-2.7669,-2.8339,-3.0013,-3.2783,-3.4525,-3.5951,-3.7077,-3.7834,-3.6411,-3.3256,-3.3064,-3.2025,-3.0442,-3.125,-3.1756,-3.1897,-3.0828,-3.1026,0.0,0.0,0.0,0.0,0.0,0.0,0.0,0.0,0.0,0.0,0.0,0.0,0.0,0.0,0.0,0.0,0.0,0.0,0.0,0.0,0.0,0.0,0.0,0.0,0.0,-2.917,-2.9599,-3.0136,-3.0187,-3.0784,-3.1573,-3.2527,-3.264,0.0,0.0,-3.6435,0.0,0.0,-4.284,0.0,-4.3296,-4.4044,0.0,0.0,0.0,0.0,-4.5052,-4.4732,-4.4688,-4.4957,-4.4968,-4.5137,-4.549,-4.5518,-4.5075,-4.4201,-4.4201,-4.3335,-4.17,-4.1853,-4.1022,0.0,0.0,0.0,0.0,-3.6269,-3.5391,-3.4687,-3.5508,-3.5312,-3.4609,-3.4531,-3.4004,-3.3183,0.0,0.0,0.0,0.0,0.0,0.0,0.0,0.0,0.0,0.0,-3.0078,-3.1211,-3.2012,-3.1562,-3.2051,0.0,0.0,0.0,0.0,0.0,0.0,0.0,0.0,0.0,-2.8488,-2.9764,-3.176,-3.4497,-3.6865,-3.8899,-4.0596,-4.0123,-3.8796,-3.6719,-3.4757,-3.2583,-3.0404,-3.0615,-3.0731,-3.0769,-3.0513,-3.0552,0.0,0.0,0.0,0.0,-3.0404,-3.0404,0.0,0.0,0.0,0.0,0.0,0.0,0.0,0.0,-3.0478,0.0,0.0,0.0,0.0,0.0,0.0,0.0,0.0,0.0,0.0,0.0,0.0,0.0,0.0,-3.0025,-3.0662,-3.3123,0.0,-3.3779,-3.6288,-3.9,0.0,-4.2801,-4.349,-4.3701,-4.3331,-4.358,0.0,0.0,0.0,-4.4304,-4.4695,-4.4346,-4.4018,-4.3723,-4.3711,-4.4007,-4.4605,-4.4605,-4.4182,-4.3374,-4.3374,-4.247,-4.0804,-4.0939,-4.0125,0.0,0.0,0.0,-3.623,-3.5351,-3.4492,-3.373,-3.3926,-3.3887,-3.3633,-3.3008,-3.2566,-3.2153,0.0,0.0,0.0,0.0,0.0,0.0,0.0,0.0,0.0,0.0,0.0,0.0,0.0,0.0,0.0,0.0,0.0,0.0,0.0,0.0,0.0,0.0,0.0,-2.95,-2.9526,-3.1061,-3.3368,-3.6423,-3.8578,-4.0775,-4.2931,-4.2085,-4.0373,-3.7853,-3.4526,-3.2064,-3.0423,-3.0827,-3.0769,-3.0423,-3.0846,0.0,0.0,0.0,0.0,0.0,-3.0404,-3.0404,0.0,-3.1288,-3.1538,-3.1514,0.0,0.0,0.0,0.0,-2.985,0.0,0.0,0.0,0.0,0.0,0.0,0.0,0.0,0.0,0.0,0.0,0.0,0.0,0.0,0.0,-2.9982,0.0,-3.2775,0.0,0.0,0.0,-4.0921,-4.264,-4.307,-4.3275,0.0,0.0,0.0,0.0,0.0,-4.3385,-4.3755,-4.3077,-4.2605,-4.2511,-4.2674,-4.3008,-4.3512,-4.3677,-4.3335,-4.2508,-4.2104,-4.1227,-3.9946,-3.9644,-3.885,0.0,0.0,0.0,-3.5332,-3.4453,-3.3613,-3.2891,-3.3262,-3.3164,-3.2793,-3.2363,-3.2097,-3.1779,0.0,0.0,0.0,0.0,0.0,0.0,0.0,0.0,0.0,0.0,0.0,0.0,0.0,0.0,0.0,0.0,0.0,0.0,0.0,0.0,0.0,0.0,0.0,-3.1299,-3.0788,-3.2179,-3.4507,-3.7796,-3.945,-4.1431,-4.3712,-4.3374,-4.1277,-3.7642,-3.393,-3.1577,-3.0462,-3.1327,-3.1192,-3.0462,-3.1192,0.0,0.0,0.0,0.0,0.0,0.0,0.0,0.0,-3.2045,-3.2526,-3.2481,-3.2319,0.0,0.0,0.0,0.0,0.0,0.0,0.0,0.0,0.0,0.0,0.0,0.0,0.0,0.0,0.0,0.0,0.0,0.0,-2.9184,0.0,0.0,0.0,0.0,-3.8702,-3.9253,-4.001,-4.2066,-4.2415,0.0,-4.3259,0.0,0.0,0.0,0.0,-4.223,-4.253,-4.1617,-4.1106,-4.1151,-4.1471,-4.1676,-4.1767,-4.2389,-4.22,-4.1212,-4.0469,-3.9703,-3.8905,-3.8237,-3.7462,-3.6596,0.0,0.0,-3.4258,-3.3516,-3.2734,-3.207,-3.2754,-3.2598,-3.1952,-3.1835,-3.1786,-3.1535,0.0,0.0,0.0,0.0,0.0,0.0,0.0,0.0,0.0,0.0,0.0,0.0,0.0,0.0,0.0,0.0,0.0,0.0,0.0,0.0,0.0,0.0,-3.1902,-3.1269,-3.2487,-3.2776,-3.4218,-3.6904,-3.835,-3.9757,-4.1122,-4.2934,-4.1327,-3.6846,-3.55,-3.3231,-3.0462,-3.1327,-3.1192,-3.0404,-3.0558,0.0,0.0,0.0,0.0,0.0,0.0,0.0,0.0,-3.0692,-3.0788,-3.0782,-3.0739,0.0,0.0,0.0,0.0,0.0,-2.9055,-3.0173,-3.1035,0.0,0.0,0.0,0.0,0.0,0.0,0.0,0.0,0.0,0.0,-3.0027,-3.055,0.0,0.0,-3.7911,0.0,0.0,-4.1882,-4.2268,0.0,-4.3094,0.0,0.0,0.0,0.0,0.0,-4.1311,-4.1374,-4.1199,-4.0485,-3.92,-3.9431,-3.9039,-3.7951,-3.9914,-4.0123,-3.8584,-3.845,-3.7989,-3.7262,-3.7199,-3.6365,-3.4973,0.0,-3.4003,-3.2578,-3.2441,-3.1875,-3.1113,-3.123,-3.1149,-3.086,-3.0179,-3.0263,-3.0486,0.0,0.0,0.0,0.0,0.0,0.0,0.0,0.0,0.0,0.0,0.0,0.0,0.0,0.0,0.0,0.0,0.0,0.0,0.0,0.0,0.0,-3.5256,-3.3599,-3.2967,-3.359,-3.4956,-3.6367,-3.7824,-4.0331,-4.214,-4.3242,-4.2442,-3.9912,-3.5981,-3.4673,-3.2981,-3.1096,-3.1019,-3.0763,-3.0405,0.0,0.0,0.0,0.0,0.0,0.0,0.0,0.0,0.0,0.0,-3.1096,-3.1096,-3.1096,0.0,0.0,0.0,0.0,0.0,-2.7761,-2.8877,-2.9824,0.0,0.0,0.0,0.0,0.0,0.0,0.0,0.0,0.0,0.0,0.0,-3.1822,-3.4766,0.0,-3.8972,-4.1315,-4.1662,-4.1809,0.0,0.0,0.0,0.0,0.0,0.0,0.0,0.0,0.0,-3.9845,-3.9386,-3.8615,-3.7441,-3.7659,-3.7082,-3.554,-3.69,-3.7486,-3.7296,-3.6372,-3.5765,-3.5423,-3.5069,-3.4515,-3.3812,0.0,-3.2849,-3.2129,-3.1172,-3.0566,-3.0156,-2.9687,-2.9722,-2.9986,-2.9504,-2.8961,-2.8321,0.0,0.0,0.0,0.0,0.0,0.0,0.0,0.0,0.0,0.0,0.0,0.0,0.0,0.0,0.0,0.0,0.0,0.0,0.0,0.0,-3.5056,-3.5854,-3.538,-3.5191,-3.5411,-3.7109,-3.8498,-3.95,-4.1925,-4.3769,-4.494,-4.1107,-3.7954,-3.5423,-3.3891,-3.2526,-3.1371,-3.0904,-3.0584,-3.0399,0.0,0.0,0.0,0.0,0.0,0.0,0.0,0.0,0.0,0.0,0.0,0.0,0.0,0.0,0.0,0.0,-2.7961,-2.7196,-2.6767,-2.7673,-2.8528,0.0,0.0,0.0,0.0,0.0,0.0,0.0,0.0,0.0,0.0,-3.0436,0.0,-3.6578,-3.8046,-3.9258,-4.0875,-4.126,-4.1535,-4.1974,-4.2029,0.0,0.0,0.0,0.0,0.0,0.0,0.0,-3.8175,-3.7349,-3.6556,-3.5734,-3.5726,-3.507,-3.3641,-3.3912,-3.462,-3.572,-3.4493,-3.3917,-3.3922,-3.3354,-3.3037,-3.2869,-3.2257,-3.1842,-3.1464,-3.0136,-2.9473,-2.9238,-2.8555,-2.8528,-2.8876,-2.89,-2.7817,-2.6392,0.0,0.0,0.0,0.0,0.0,0.0,0.0,0.0,0.0,0.0,0.0,0.0,0.0,0.0,0.0,0.0,0.0,0.0,0.0,0.0,-3.5056,-3.5866,-3.6498,-3.7514,-3.8981,-3.8362,-3.9191,-4.1585,-4.1026,-4.1599,-4.3162,-3.8189,-3.5724,-3.5462,-3.4526,-3.2756,-3.0538,-3.1288,-3.1135,-3.0398,-3.0404,0.0,0.0,0.0,0.0,0.0,0.0,0.0,0.0,0.0,0.0,0.0,0.0,0.0,0.0,0.0,0.0,-2.8154,-2.7149,-2.7379,-2.7684,-2.6885,-2.8498,0.0,-3.0204,-3.0726,0.0,-3.1228,0.0,0.0,0.0,-3.0821,-3.2485,-3.5844,-3.7698,-3.9258,-4.0875,0.0,-4.1974,-4.126,0.0,0.0,0.0,0.0,0.0,0.0,0.0,0.0,-3.6486,-3.5646,-3.4802,-3.4009,-3.3283,-3.2601,-3.1979,-3.1281,-3.1591,-3.2909,-3.2953,-3.3053,-3.3175,-3.3127,-3.2707,-3.1999,-3.2005,-3.1127,-2.9685,-2.9627,-2.9121,-2.8398,-2.832,-2.7779,-2.7087,-2.7758,-2.6886,-2.5515,0.0,0.0,0.0,0.0,0.0,0.0,0.0,0.0,0.0,0.0,0.0,0.0,0.0,0.0,0.0,0.0,0.0,0.0,0.0,0.0,-3.4277,-3.5112,-3.5819,-3.7164,-3.9232,-3.9998,-4.0569,-4.0987,-4.2788,-4.292,-4.1399,-3.7371,-3.5124,-3.4389,-3.3186,-3.2391,-3.191,-3.1192,-3.1288,-3.1872,-3.0827,-3.0404,0.0,0.0,0.0,0.0,0.0,0.0,0.0,0.0,0.0,0.0,0.0,0.0,0.0,0.0,0.0,-2.6178,-2.5562,-2.6302,-2.7138,-2.6704,-2.804,0.0,0.0,-3.046,-3.125,-3.0759,-3.1689,0.0,0.0,0.0,-3.322,-3.6519,-3.7973,-3.9258,-4.0875,-4.1352,-4.1425,0.0,0.0,0.0,0.0,0.0,0.0,0.0,0.0,0.0,-3.4761,-3.3959,-3.3133,-3.232,-3.1531,-3.0766,-3.0064,-2.9386,-2.9045,-2.9065,-2.9934,-3.0113,-2.9706,-3.0323,-3.0196,-2.9511,-3.0072,-2.9693,-2.865,-2.8182,-2.7793,-2.748,-2.7454,-2.684,-2.6087,-2.6866,-2.6376,-2.5346,0.0,0.0,0.0,0.0,0.0,0.0,0.0,0.0,0.0,0.0,0.0,0.0,0.0,0.0,0.0,0.0,0.0,0.0,-3.2187,-3.2715,-3.3398,-3.4258,-3.4969,-3.6202,-3.8052,-3.994,-4.1316,-4.2115,-4.446,-4.3299,-3.8881,-3.712,-3.5602,-3.426,-3.2756,-3.2288,-3.2564,-3.1327,-3.1308,-3.2013,-3.0865,-3.0404,0.0,0.0,0.0,0.0,0.0,0.0,0.0,0.0,0.0,0.0,0.0,0.0,0.0,0.0,0.0,0.0,-2.4787,-2.5375,-2.6163,0.0,0.0,0.0,-2.9265,-3.0826,-3.2077,-3.1772,-3.2182,-3.2517,-3.2271,0.0,0.0,0.0,-3.7074,-3.834,-3.9441,-3.9808,0.0,0.0,0.0,0.0,0.0,0.0,0.0,0.0,0.0,0.0,0.0,-3.1904,-3.1078,-3.0295,-2.9475,-2.8815,-2.8253,-2.7843,-2.726,-2.6534,-2.7478,-2.7811,-2.7625,-2.8372,-2.8448,-2.8002,-2.8647,-2.8488,-2.7716,-2.7204,-2.6836,-2.6582,-2.6527,-2.6091,-2.5609,-2.6136,-2.5909,-2.5367,0.0,0.0,0.0,0.0,0.0,0.0,0.0,0.0,0.0,0.0,0.0,0.0,0.0,0.0,0.0,0.0,0.0,0.0,-3.2129,-3.2187,-3.2539,-3.334,-3.4141,-3.49,-3.5644,-3.7829,-4.1145,-4.5607,-4.5499,-4.2033,-3.5534,-3.7194,-3.7074,-3.5388,-3.3667,-3.2603,-3.2084,-3.1795,-3.118,-3.0406,-3.0411,-3.0404,-3.0288,0.0,0.0,0.0,0.0,0.0,0.0,0.0,0.0,0.0,0.0,0.0,0.0,0.0,-2.6442,-2.6098,-2.5235,-2.4766,-2.4713,0.0,0.0,0.0,-2.9849,-3.2074,-3.4008,-3.483,-3.372,-3.2357,-3.1549,-3.1415,0.0,-3.2472,-3.4669,-3.6266,-3.6285,0.0,0.0,0.0,0.0,0.0,0.0,0.0,0.0,0.0,0.0,0.0,0.0,-2.9409,-2.8601,-2.7805,-2.7016,-2.6583,-2.6583,-2.6583,-2.6276,-2.5679,-2.5882,-2.6548,-2.7587,-2.7791,-2.7876,-2.7887,-2.8022,-2.7582,-2.6809,-2.6925,-2.6484,-2.5683,-2.5632,-2.5602,-2.5597,-2.5533,-2.5491,-2.5491,0.0,0.0,0.0,0.0,0.0,0.0,0.0,0.0,0.0,0.0,0.0,0.0,0.0,0.0,0.0,0.0,0.0,0.0,-3.1269,-3.1289,-3.1387,-3.1621,-3.2365,-3.2591,-3.2189,-3.5043,-3.9508,-4.5599,-3.8419,-3.5115,-3.5482,-3.5192,-3.4346,-3.3108,-3.2955,-3.25,-3.1776,-3.1071,-3.1,-3.1321,-3.1525,-3.1121,-3.0288,0.0,0.0,0.0,0.0,0.0,0.0,0.0,0.0,0.0,0.0,0.0,0.0,0.0,-2.5635,-2.5504,-2.5106,-2.5346,-2.5827,-2.6405,0.0,0.0,0.0,-3.2036,0.0,0.0,-3.2889,-3.1861,-3.2192,0.0,0.0,-3.322,-3.4064,-3.4743,0.0,0.0,0.0,0.0,0.0,0.0,0.0,0.0,0.0,0.0,0.0,0.0,0.0,-2.775,-2.7189,-2.6961,-2.6172,-2.576,-2.576,-2.5181,-2.4884,-2.4867,-2.5069,-2.5369,-2.5799,-2.662,-2.6659,-2.6111,-2.6851,-2.6687,-2.5904,-2.6028,-2.5937,-2.5703,-2.5682,-2.5636,-2.5601,-2.559,-2.5545,-2.5491,0.0,0.0,0.0,0.0,0.0,0.0,0.0,0.0,0.0,0.0,0.0,0.0,0.0,0.0,0.0,0.0,0.0,0.0,0.0,-3.0898,-3.0898,-3.0898,-3.1322,-3.1289,-3.0671,-3.1867,-3.4481,-3.8579,-3.3081,-3.1698,-3.4166,-3.5046,-3.5219,-3.4768,-3.4885,-3.4288,-3.3141,-3.2288,-3.2006,-3.216,-3.1993,-3.1589,-3.0948,0.0,0.0,0.0,0.0,0.0,0.0,0.0,0.0,0.0,0.0,0.0,0.0,-2.5447,-2.5308,-2.5264,-2.5149,-2.5611,-2.6275,-2.6882,-2.8352,-3.0046,-3.1544,0.0,0.0,0.0,-3.3256,-3.2302,-3.2155,-3.1733,0.0,-3.2265,-3.2632,-3.2908,0.0,0.0,0.0,0.0,0.0,0.0,0.0,0.0,0.0,0.0,0.0,0.0,0.0,-2.6392,-2.597,-2.5658,-2.5191,-2.4915,-2.4915,-2.4428,-2.433,-2.4615,-2.4746,-2.4916,-2.5135,-2.5791,-2.5808,-2.5341,-2.6,-2.6006,-2.5551,-2.566,-2.5703,-2.5703,-2.5703,-2.5682,-2.5636,-2.5636,-2.5594,-2.555,0.0,0.0,0.0,0.0,0.0,0.0,0.0,0.0,0.0,0.0,0.0,0.0,0.0,0.0,0.0,0.0,0.0,0.0,0.0,0.0,-3.0898,-3.0898,-3.0956,-3.0916,-3.0711,-2.9016,-2.8045,-2.7891,-2.9378,-3.074,-3.2026,-3.5862,-3.7866,-3.8219,-3.7877,-3.6721,-3.4944,-3.4076,-3.3199,-3.2372,-3.1808,-3.1814,-3.2032,-3.0849,0.0,0.0,0.0,0.0,0.0,0.0,0.0,0.0,0.0,0.0,-2.5308,-2.5308,-2.5255,-2.5221,-2.5288,-2.5596,-2.6123,-2.6986,-2.8717,0.0,-3.2142,-3.3628,-3.4674,-3.4674,0.0,-3.3128,-3.1672,-3.1286,-3.0962,-3.032,-3.0687,0.0,0.0,0.0,0.0,0.0,0.0,0.0,0.0,0.0,0.0,0.0,0.0,0.0,0.0,-2.5214,-2.4884,-2.4226,-2.417,-2.417,-2.419,-2.419,-2.4393,0.0,-2.479,-2.4974,-2.5269,-2.5284,-2.5293,-2.5317,-2.5447,-2.5543,-2.5603,-2.5661,-2.5683,-2.5683,-2.5683,-2.5683,-2.5683,-2.5683,-2.5658,-2.5605,0.0,0.0,0.0,0.0,0.0,0.0,0.0,0.0,0.0,0.0,0.0,0.0,0.0,0.0,0.0,0.0,0.0,0.0,0.0,0.0,-3.0898,-3.0898,-3.1391,-3.1665,-3.1617,-3.0462,-2.9221,-2.7907,-2.7783,-2.8768,-3.0821,-3.368,-3.4606,-3.3918,-3.5157,-3.4033,-3.1123,-3.0319,-2.9498,-2.8849,-3.0151,-3.1501,-3.2558,-3.0985,-2.8429,0.0,0.0,0.0,0.0,0.0,0.0,0.0,-2.5308,-2.5308,-2.5308,-2.5308,-2.485,-2.4495,-2.513,-2.5257,0.0,-2.688,-2.8712,-3.0467,-3.1439,-3.1935,-3.2173,-3.2173,-3.2039,-3.1819,-3.147,-3.0375,-2.9666,-3.0136,0.0,0.0,0.0,0.0,0.0,0.0,0.0,0.0,0.0,0.0,0.0,0.0,0.0,0.0,-2.4059,-2.3817,-2.3851,-2.4198,-2.3937,-2.3927,-2.4208,-2.419,-2.433,0.0,-2.4723,-2.4896,-2.5077,-2.5224,-2.5326,-2.5383,-2.5454,-2.5543,-2.5602,-2.5628,-2.561,-2.561,-2.561,-2.561,-2.561,-2.561,-2.5607,-2.5602,0.0,0.0,0.0,0.0,0.0,0.0,0.0,0.0,0.0,0.0,0.0,0.0,0.0,0.0,0.0,0.0,0.0,0.0,0.0,0.0,0.0,-3.0898,-3.1568,-3.1551,-3.0712,-3.0135,-2.8998,-2.7274,-2.6439,-2.7465,-3.0266,-3.3062,-3.4048,-3.3588,-3.4545,-3.3291,-3.0419,-2.9616,-2.8814,-2.817,-2.9212,-3.0157,-3.0908,-3.0533,-2.853,-2.5863,-2.5452,0.0,0.0,0.0,0.0,0.0,0.0,0.0,-2.5308,-2.5308,-2.5009,-2.4767,-2.5196,0.0,0.0,-2.777,0.0,-2.9953,-3.114,-3.0515,-2.9799,-3.0173,-3.0558,-3.0705,-3.032,-2.9255,-2.8448,-2.8473,0.0,0.0,0.0,0.0,0.0,0.0,0.0,0.0,0.0,0.0,0.0,0.0,0.0,-2.3288,-2.3448,-2.3455,-2.3533,-2.3714,-2.3847,-2.3955,-2.3966,-2.4113,-2.4303,-2.4503,-2.47,-2.4923,-2.5152,-2.5259,-2.5327,-2.5359,-2.5421,-2.5463,-2.5517,-2.5543,-2.5322,-2.5013,-2.5439,-2.5369,-2.5077,-2.5465,-2.5572,-2.5554,0.0,0.0,0.0,0.0,0.0,0.0,0.0,0.0,0.0,0.0,0.0,0.0,0.0,0.0,0.0,0.0,0.0,0.0,0.0,0.0,0.0,0.0,-3.1311,-3.088,-2.9427,-2.9124,-2.822,-2.6596,-2.5637,-2.6814,-2.9988,-3.2519,-3.3838,-3.407,-3.4091,-3.2761,-3.043,-2.9502,-2.8634,-2.7932,-2.8237,-2.8275,-2.8252,-2.9384,-2.8382,-2.6287,-2.5553,-2.5308,-2.5308,-2.5308,0.0,0.0,0.0,0.0,-2.5308,-2.5308,-2.5192,-2.512,-2.5212,0.0,-2.6615,-2.8386,-2.8702,0.0,-3.0265,-2.9017,-2.7787,-2.8455,-2.9115,-2.9384,-2.8712,-2.7934,-2.7174,0.0,0.0,0.0,0.0,0.0,0.0,0.0,0.0,0.0,0.0,0.0,0.0,0.0,0.0,-2.3063,-2.3105,-2.3323,-2.3387,-2.32,-2.3682,-2.3858,-2.3703,-2.3986,-2.4238,-2.4444,-2.4685,-2.4949,-2.5253,-2.5279,-2.5308,-2.5293,-2.5364,-2.539,-2.5397,-2.5468,-2.5012,-2.4379,-2.5247,-2.5088,-2.4487,-2.5282,-2.5551,-2.5508,0.0,0.0,0.0,0.0,0.0,0.0,0.0,0.0,0.0,0.0,0.0,0.0,0.0,0.0,0.0,0.0,0.0,0.0,0.0,0.0,0.0,0.0,-3.0158,-2.9648,-2.9408,-2.8593,-2.7642,-2.6605,-2.6111,-2.7172,-2.9662,-3.0174,-3.0828,-3.1576,-3.1347,-3.0223,-2.838,-2.6888,-2.5777,-2.5144,-2.622,-2.6145,-2.5574,-2.6936,-2.6638,-2.5454,-2.5331,-2.5308,-2.5308,-2.5308,-2.5308,0.0,0.0,0.0,-2.5308,-2.5308,-2.4812,-2.4366,-2.4895,0.0,-2.5967,0.0,-2.6946,-2.6969,0.0,0.0,-2.6796,0.0,-2.7005,-2.7042,-2.6932,-2.6264,-2.5686,0.0,0.0,0.0,0.0,0.0,0.0,0.0,0.0,0.0,0.0,0.0,0.0,0.0,-2.2541,-2.2517,-2.2759,-2.2581,-2.2699,-2.3177,-2.3009,-2.3153,-2.3692,-2.3735,-2.3927,-2.4247,-2.4615,-2.4871,-2.504,-2.5219,-2.5308,-2.5293,-2.5375,-2.5406,-2.5394,-2.5404,-2.4949,-2.43,-2.517,-2.502,-2.4401,-2.5213,-2.5517,-2.5484,0.0,0.0,0.0,0.0,0.0,0.0,0.0,0.0,0.0,0.0,0.0,0.0,0.0,0.0,0.0,0.0,0.0,0.0,0.0,0.0,0.0,0.0,-2.902,-2.8529,-2.795,-2.7542,-2.6846,-2.588,-2.5513,-2.6131,-2.7706,-2.8379,-2.9843,-3.188,-3.0398,-2.9074,-2.7793,-2.5725,-2.4663,-2.4394,-2.5022,-2.5051,0.0,0.0,0.0,0.0,-2.5101,-2.513,-2.5149,-2.5264,-2.5308,-2.5308,-2.5308,0.0,0.0,0.0,-2.5058,-2.474,-2.4544,-2.5174,-2.5797,0.0,-2.5735,-2.6043,-2.6502,-2.5897,-2.5383,-2.5823,-2.5667,-2.5551,-2.6004,-2.5449,-2.493,0.0,0.0,0.0,0.0,0.0,0.0,0.0,0.0,0.0,0.0,0.0,0.0,0.0,-2.2377,-2.2349,-2.2477,-2.2514,-2.2581,-2.2699,-2.2878,-2.3033,-2.3141,-2.3511,-2.3921,-2.4366,-2.4662,-2.4864,-2.4991,-2.4734,-2.487,-2.5308,-2.5326,-2.5329,-2.5333,-2.5333,-2.4585,-2.3505,-2.4413,-2.3985,-2.2944,-2.3744,-2.4352,-2.4751,0.0,0.0,0.0,0.0,0.0,0.0,0.0,0.0,0.0,0.0,0.0,0.0,0.0,0.0,0.0,0.0,0.0,0.0,0.0,0.0,0.0,0.0,0.0,-2.7277,-2.6493,-2.6471,-2.6084,-2.5308,-2.4992,-2.5511,-2.6782,-2.754,-2.9454,-3.2197,-2.9996,-2.8436,-2.7365,-2.5356,-2.4511,-2.4494,-2.4502,0.0,0.0,0.0,0.0,0.0,0.0,0.0,0.0,0.0,0.0,0.0,0.0,-2.5308,0.0,0.0,0.0,-2.5084,0.0,0.0,-2.5469,-2.4569,-2.4695,-2.5154,0.0,0.0,-2.4258,0.0,-2.4783,-2.4698,-2.5356,-2.4989,0.0,0.0,0.0,0.0,0.0,0.0,0.0,0.0,0.0,0.0,0.0,0.0,0.0,0.0,-2.2296,-2.2212,-2.204,-2.2209,-2.2137,-2.1735,-2.2348,-2.2606,-2.2413,-2.3262,-2.3911,-2.4293,-2.4636,-2.4855,-2.493,-2.4309,-2.4351,-2.4922,-2.4912,-2.4951,-2.5,-2.4946,-2.4087,-2.2868,-2.36,-2.2973,-2.1794,-2.2845,-2.3633,-2.4216,0.0,0.0,0.0,0.0,0.0,0.0,0.0,0.0,0.0,0.0,0.0,0.0,0.0,0.0,0.0,0.0,0.0,0.0,0.0,0.0,0.0,0.0,0.0,0.0,-2.5571,-2.5569,-2.5473,-2.5308,0.0,0.0,-2.8281,-2.8147,-2.9292,-3.1397,-2.9739,-2.8124,-2.6612,0.0,0.0,0.0,0.0,0.0,0.0,0.0,0.0,0.0,0.0,0.0,0.0,0.0,0.0,0.0,0.0,0.0,0.0,0.0,0.0,0.0,0.0,-2.491,0.0,-2.3624,-2.3728,0.0,0.0,0.0,0.0,-2.4196,-2.4394,-2.4569,-2.4802,-2.4801,0.0,0.0,0.0,0.0,0.0,0.0,0.0,0.0,0.0,0.0,0.0,0.0,0.0,0.0,-2.2296,-2.1989,-2.1292,-2.1268,-2.0916,-2.0137,-2.0895,-2.1417,-2.165,-2.3024,-2.3714,-2.3756,-2.4454,-2.4804,-2.4788,-2.4124,-2.3842,-2.3881,-2.3872,-2.3987,-2.4159,-2.3965,-2.3445,-2.281,-2.2923,-2.2404,-2.1809,-2.3502,-2.4161,-2.4302,0.0,0.0,0.0,0.0,0.0,0.0,0.0,0.0,0.0,0.0,0.0,0.0,0.0,-2.5632,-2.5495,-2.5539,0.0,0.0,0.0,0.0,0.0,0.0,0.0,0.0,0.0,-2.5496,0.0,0.0,0.0,-2.5646,-2.6858,-2.7186,-2.7405,-2.7561,-2.8029,-2.7915,-2.7255,-2.5411,0.0,0.0,0.0,0.0,0.0,0.0,0.0,0.0,0.0,0.0,0.0,0.0,0.0,0.0,0.0,0.0,0.0,0.0,0.0,0.0,0.0,0.0,0.0,-2.3669,-2.3492,-2.345,-2.3079,-2.3142,-2.3287,-2.3409,-2.4107,-2.4539,-2.407,-2.449,0.0,0.0,0.0,0.0,0.0,0.0,0.0,0.0,0.0,0.0,0.0,0.0,0.0,0.0,0.0,-2.1989,-2.1241,-2.1362,-2.1454,-2.1471,-2.1451,-2.1734,-2.2296,-2.2807,-2.3271,-2.3703,-2.41,-2.4468,-2.4766,-2.3436,-2.2903,-2.2994,-2.2206,-2.2565,-2.3712,-2.3784,-2.3321,-2.2675,-2.3392,-2.282,-2.1743,-2.2883,-2.3651,-2.4164,0.0,0.0,0.0,0.0,0.0,0.0,0.0,0.0,0.0,0.0,0.0,0.0,0.0,0.0,-2.5864,-2.5926,-2.5718,0.0,0.0,0.0,0.0,0.0,0.0,0.0,0.0,0.0,0.0,0.0,0.0,0.0,0.0,-2.6412,-2.6302,-2.584,-2.6644,-2.699,0.0,0.0,0.0,-2.4585,0.0,0.0,-2.4565,0.0,0.0,0.0,0.0,0.0,0.0,0.0,0.0,0.0,0.0,0.0,0.0,0.0,0.0,0.0,-2.4639,0.0,0.0,0.0,0.0,-2.3448,-2.2757,0.0,-2.2794,-2.263,-2.3316,-2.3771,-2.321,-2.3689,0.0,0.0,0.0,0.0,0.0,0.0,0.0,0.0,0.0,0.0,0.0,0.0,0.0,0.0,0.0,0.0,-2.0777,-2.0929,-2.1221,-2.1678,-2.1547,-2.1815,-2.2563,-2.266,-2.2984,-2.3544,-2.385,-2.4141,-2.4318,-2.2867,-2.2155,-2.2021,-2.0816,-2.1213,-2.2735,-2.3132,-2.3001,-2.2607,-2.3367,-2.2974,-2.2095,-2.2938,-2.3565,-2.4045,0.0,0.0,0.0,0.0,0.0,0.0,0.0,0.0,0.0,0.0,0.0,0.0,0.0,0.0,0.0,-2.6787,-2.6026,-2.5552,-2.5598,0.0,0.0,0.0,0.0,0.0,0.0,0.0,0.0,0.0,0.0,0.0,0.0,0.0,-2.6168,-2.6502,-2.5705,-2.5356,-2.5356,0.0,-2.5356,-2.5301,0.0,-2.4666,-2.5287,0.0,0.0,0.0,-2.4474,-2.433,0.0,-2.4495,0.0,0.0,0.0,0.0,0.0,0.0,0.0,0.0,0.0,0.0,0.0,0.0,0.0,0.0,-2.2212,0.0,-2.2381,-2.1907,-2.2096,-2.233,-2.2267,-2.2423,0.0,0.0,0.0,0.0,0.0,0.0,0.0,0.0,0.0,0.0,0.0,0.0,0.0,0.0,-2.0382,-1.9998,-1.989,-1.9937,-2.0119,-2.0515,-2.0971,-2.158,-2.2296,-2.2563,-2.286,-2.3189,-2.372,-2.3801,-2.3439,-2.245,-2.1662,-2.1029,-1.9821,-1.9964,-2.1116,-2.196,-2.2419,-2.2642,-2.2805,-2.2851,-2.2932,-2.3817,-2.4004,-2.3973,0.0,0.0,0.0,0.0,0.0,0.0,0.0,0.0,0.0,0.0,0.0,0.0,-2.5692,-2.6246,-2.6659,-2.6722,-2.65,-2.6136,-2.555,-2.55,-2.5517,-2.5535,-2.55,0.0,0.0,0.0,0.0,0.0,0.0,0.0,0.0,0.0,0.0,0.0,-2.463,-2.453,-2.453,-2.453,0.0,-2.4511,-2.4281,-2.4337,0.0,0.0,0.0,0.0,0.0,-2.4237,-2.4275,0.0,-2.4428,-2.4615,0.0,0.0,0.0,0.0,0.0,0.0,-2.5308,0.0,0.0,0.0,0.0,0.0,0.0,0.0,0.0,-2.1942,-2.2536,-2.2773,-2.1466,0.0,0.0,0.0,0.0,0.0,0.0,0.0,0.0,0.0,0.0,0.0,0.0,0.0,0.0,0.0,-2.0527,-2.0479,-1.9922,-2.0677,-2.1045,-2.0875,-2.1599,-2.2076,-2.2296,-2.2374,-2.2537,-2.2848,-2.3223,-2.3262,-2.2979,-2.2197,-2.1506,-2.0818,-1.9756,-1.9501,-1.9914,-2.1454,-2.2539,-2.3322,-2.4089,-2.4119,-2.3836,-2.4659,-2.4923,-2.4901,0.0,0.0,0.0,0.0,0.0,0.0,0.0,0.0,0.0,0.0,0.0,0.0,-2.6409,-2.714,-2.7382,-2.6717,-2.6663,-2.6327,-2.552,-2.5431,-2.5428,-2.5462,-2.5431,-2.539,-2.5368,0.0,0.0,0.0,0.0,0.0,0.0,0.0,0.0,0.0,0.0,0.0,0.0,0.0,0.0,0.0,-2.419,0.0,0.0,-2.4318,-2.442,0.0,0.0,0.0,-2.419,-2.419,-2.4321,0.0,0.0,0.0,0.0,0.0,0.0,0.0,0.0,0.0,0.0,0.0,0.0,0.0,-2.2882,-2.2588,-2.2079,0.0,-2.0845,-2.0945,-1.9548,0.0,0.0,0.0,0.0,0.0,0.0,0.0,0.0,0.0,0.0,0.0,0.0,-2.008,-1.9953,-1.9626,-2.0067,-2.0241,-2.0082,-2.1048,-2.1491,-2.126,-2.193,-2.2296,-2.2296,-2.2296,-2.2422,-2.2708,-2.3045,-2.2876,-2.2245,-2.1951,-2.1422,-2.0739,-1.9745,-1.9701,-2.0396,-2.1102,-2.1772,-2.2532,-2.4251,-2.4534,-2.4076,-2.4886,-2.5168,-2.5157,0.0,0.0,0.0,0.0,0.0,0.0,0.0,0.0,0.0,0.0,-2.7206,-2.7101,-2.8063,-2.8646,-2.8376,-2.6871,-2.6659,-2.6265,-2.5445,-2.5335,-2.5336,-2.5399,-2.5326,-2.5308,-2.5308,0.0,0.0,0.0,0.0,0.0,0.0,0.0,0.0,0.0,0.0,0.0,0.0,0.0,0.0,-2.419,-2.419,-2.464,0.0,0.0,-2.464,-2.5172,-2.4456,-2.419,-2.419,-2.419,-2.4321,0.0,0.0,0.0,0.0,0.0,-2.4864,0.0,0.0,0.0,0.0,0.0,0.0,0.0,-2.251,-2.2077,-2.139,-1.8996,-1.8663,-1.8516,-1.7609,0.0,0.0,0.0,0.0,0.0,0.0,0.0,0.0,0.0,0.0,0.0,-1.9273,-1.9339,-1.9346,-1.9292,-1.9464,-1.9808,-2.0351,-2.1149,-2.1597,-2.1597,-2.2046,-2.2296,-2.2296,-2.2296,-2.2426,-2.266,-2.2984,-2.2593,-2.1562,-2.1789,-2.1512,-2.0867,-1.9962,-2.0362,-2.1592,-2.0914,-2.0773,-2.1188,-2.3662,-2.4213,-2.3732,-2.4667,-2.4934,-2.4877,0.0,0.0,0.0,0.0,0.0,0.0,0.0,0.0,0.0,0.0,-2.762,-2.8217,-2.975,-2.8852,-2.8011,-2.7659,-2.7005,-2.6246,-2.5384,-2.5303,-2.5317,-2.5322,-2.5317,-2.5308,-2.5308,-2.5308,0.0,0.0,0.0,0.0,0.0,0.0,0.0,0.0,0.0,0.0,0.0,0.0,0.0,-2.419,-2.419,0.0,-2.442,-2.4263,-2.43,-2.441,-2.4263,-2.419,-2.419,-2.419,-2.4228,-2.4256,0.0,0.0,0.0,-2.4569,0.0,0.0,0.0,0.0,0.0,0.0,0.0,0.0,-2.4052,-2.3841,-2.3226,0.0,-2.1195,-2.0797,-1.9184,-1.9147,0.0,0.0,0.0,0.0,0.0,0.0,0.0,0.0,0.0,0.0,-1.8515,-1.8533,-1.8887,-1.9702,-2.0337,-2.0751,-2.0862,-2.1337,-2.1597,-2.1597,-2.2046,-2.2296,-2.2296,-2.2296,-2.2338,-2.2374,-2.2665,-2.2481,-2.1918,-2.2224,-2.209,-2.1596,-2.1389,-2.1088,-2.0786,-2.1327,-2.1623,-2.1894,-2.3112,-2.3178,-2.2785,-2.4397,-2.4597,-2.4114,0.0,0.0,0.0,0.0,0.0,0.0,0.0,0.0,0.0,0.0,-2.88,-2.9111,-2.9558,-2.8941,-2.8165,-2.7313,-2.6851,-2.6231,0.0,-2.5308,-2.5308,-2.5308,-2.5201,-2.5195,-2.5303,-2.5201,0.0,0.0,0.0,0.0,0.0,0.0,0.0,0.0,0.0,0.0,0.0,0.0,-2.419,-2.419,-2.419,0.0,-2.419,-2.419,-2.419,-2.419,-2.419,-2.419,-2.419,-2.419,-2.419,0.0,-2.419,-2.4266,-2.4366,0.0,-2.4567,-2.4693,0.0,0.0,0.0,-2.4759,0.0,0.0,0.0,-2.3676,-2.3144,-2.1492,-2.0894,-2.0281,-1.9082,0.0,0.0,0.0,0.0,0.0,0.0,0.0,0.0,0.0,0.0,0.0,-1.8005,-1.8385,-1.9045,-2.0122,-2.0885,-2.1291,-2.1291,-2.172,-2.1943,-2.1943,-2.218,-2.2296,-2.2296,-2.2296,-2.2296,-2.231,-2.2742,-2.2617,-2.2011,-2.2353,-2.225,-2.1767,-2.1197,-2.0786,-2.0511,-2.0537,-2.0581,-2.0782,-2.2052,-2.2233,-2.2005,-2.3657,-2.4121,-2.403,0.0,0.0,0.0,0.0,0.0,0.0,0.0,0.0,0.0,-2.9481,-2.9707,-2.9699,-2.9033,-2.8836,-2.8247,-2.7046,-2.6515,0.0,0.0,-2.5283,-2.5192,-2.5192,-2.5056,-2.505,-2.5206,-2.5037,-2.5019,0.0,0.0,0.0,0.0,0.0,0.0,0.0,0.0,0.0,0.0,0.0,0.0,-2.419,0.0,-2.419,-2.419,-2.419,-2.419,-2.419,-2.419,-2.419,-2.419,-2.419,-2.419,-2.419,-2.419,-2.419,0.0,0.0,0.0,0.0,0.0,0.0,0.0,0.0,0.0,-2.4235,0.0,0.0,0.0,-2.13,-2.0335,0.0,0.0,0.0,0.0,0.0,0.0,0.0,0.0,0.0,0.0,0.0,0.0,0.0,0.0,-1.8535,-1.933,-2.019,-2.105,-2.1518,-2.1518,-2.2008,-2.2296,-2.2296,-2.2296,-2.2296,-2.2296,-2.2296,-2.2296,-2.231,-2.2798,-2.2758,-2.2234,-2.231,-2.2207,-2.196,-2.0835,-2.0408,-2.0456,-1.9803,-1.9467,-1.9497,-2.0984,-2.1306,-2.1176,-2.2886,-2.3629,-2.389,-2.5004,-2.5034,0.0,0.0,0.0,0.0,0.0,0.0,0.0,-2.8194,-2.9137,-2.9702,0.0,0.0,0.0,0.0,0.0,0.0,-2.5883,0.0,-2.4861,-2.4861,-2.484,-2.4832,-2.4861,-2.4832,-2.4753,0.0,0.0,0.0,0.0,0.0,0.0,0.0,-2.341,0.0,0.0,0.0,-2.3547,0.0,-2.419,-2.419,0.0,-2.419,-2.419,-2.419,-2.419,-2.419,-2.419,0.0,-2.419,-2.419,0.0,-2.419,-2.4199,-2.4228,0.0,0.0,0.0,0.0,0.0,0.0,-2.4366,0.0,-2.4089,0.0,-2.3804,-2.2896,0.0,0.0,0.0,0.0,0.0,0.0,0.0,0.0,0.0,0.0,0.0,0.0,0.0,0.0,0.0,-1.8819,-1.9314,-1.9424,-2.0556,-2.1242,-2.1242,-2.191,-2.2296,-2.2296,-2.2296,-2.2296,-2.2296,-2.2296,-2.2296,-2.2296,-2.2363,-2.2621,-2.3018,-2.2124,-2.2131,-2.2795,-2.1725,-2.0962,-2.0484,-2.0401,-2.0051,-1.9634,-2.0362,-2.03,-2.0087,-2.2574,-2.3195,-2.2847,-2.4864,-2.4877,0.0,0.0,0.0,0.0,0.0,0.0,0.0,0.0,0.0,0.0,0.0,0.0,0.0,0.0,0.0,-2.5435,0.0,0.0,0.0,-2.4804,-2.4685,-2.4678,-2.4797,-2.4685,-2.4639,0.0,-2.4569,0.0,0.0,0.0,0.0,0.0,-2.3153,0.0,-2.2822,0.0,-2.3189,0.0,0.0,0.0,0.0,-2.4132,-2.4084,-2.3945,-2.4141,-2.3937,-2.3682,0.0,-2.4074,0.0,0.0,0.0,0.0,-2.419,0.0,0.0,0.0,0.0,0.0,0.0,0.0,0.0,-2.419,0.0,-2.4098,0.0,0.0,0.0,0.0,0.0,0.0,0.0,-1.8778,0.0,0.0,0.0,0.0,0.0,0.0,0.0,0.0,0.0,0.0,0.0,-2.0403,-2.119,-2.119,-2.1904,-2.2296,-2.2296,-2.2296,-2.2296,-2.2296,-2.2296,-2.2296,-2.231,-2.2647,-2.294,-2.3171,-2.2289,-2.1968,-2.2007,-2.0733,-1.9967,-1.9618,-1.947,-1.9406,-1.9431,-1.959,-2.0026,-2.0781,-2.2262,-2.2774,-2.2791,-2.4631,0.0,0.0,0.0,0.0,0.0,0.0,0.0,0.0,0.0,0.0,0.0,-2.9289,-2.866,0.0,0.0,-2.6555,-2.5675,0.0,0.0,-2.4631,-2.4631,-2.4495,-2.4486,-2.4631,-2.4495,-2.4486,0.0,0.0,0.0,0.0,0.0,0.0,0.0,0.0,-2.263,-2.2054,0.0,-2.2895,-2.2835,-2.3716,-2.3847,-2.3588,-2.3827,-2.3756,-2.3588,-2.3837,-2.361,-2.3271,-2.3764,-2.3756,0.0,-2.3966,0.0,0.0,0.0,0.0,0.0,-2.4029,0.0,0.0,0.0,0.0,0.0,0.0,0.0,0.0,0.0,0.0,0.0,0.0,0.0,0.0,0.0,0.0,0.0,0.0,0.0,0.0,0.0,0.0,0.0,0.0,0.0,0.0,-1.8946,-2.0028,-2.0764,-2.0969,-2.1624,-2.2076,-2.2296,-2.2296,-2.2296,-2.2296,-2.2296,-2.2296,-2.231,-2.2539,-2.2791,-2.3022,-2.1797,-2.1235,-2.1169,-1.9647,-1.8959,-1.8878,-1.8688,-1.8851,-1.9206,-1.906,-1.9893,-2.1218,-2.1708,-2.2087,-2.2369,-2.4218,-2.4375,0.0,0.0,0.0,0.0,0.0,0.0,0.0,0.0,0.0,0.0,0.0,0.0,0.0,0.0,0.0,-2.5744,-2.6486,0.0,-2.4218,0.0,0.0,-2.4209,0.0,-2.4209,0.0,0.0,0.0,0.0,0.0,0.0,0.0,0.0,0.0,-2.2839,-2.2582,-2.2886,-2.2666,-2.2216,-2.3293,-2.3522,-2.323,0.0,-2.3242,-2.323,-2.3224,0.0,0.0,-2.3224,-2.3224,0.0,0.0,0.0,0.0,0.0,0.0,0.0,0.0,0.0,0.0,-2.3795,0.0,0.0,0.0,0.0,-2.3806,0.0,0.0,0.0,0.0,0.0,0.0,0.0,0.0,0.0,0.0,0.0,0.0,0.0,0.0,0.0,0.0,0.0,0.0,-1.8994,-1.9215,-1.9659,-2.0395,-2.0943,-2.1563,-2.2279,-2.2296,-2.2296,-2.2296,-2.2296,-2.2296,-2.2279,-2.1607,-2.1772,-2.2638,-2.014,-1.9705,-2.082,-1.9021,-1.8378,-1.8604,-1.8595,-1.8761,-1.9001,-1.8992,-1.9743,-2.0814,-2.0844,-2.0978,-2.1122,0.0,0.0,0.0,0.0,0.0,0.0,0.0,-2.6531,0.0,0.0,-2.928,0.0,0.0,-2.9549,-2.9072,0.0,0.0,-2.666,-2.587,-2.5786,0.0,0.0,0.0,-2.5291,0.0,0.0,0.0,0.0,0.0,0.0,0.0,0.0,0.0,0.0,0.0,-2.2338,0.0,0.0,0.0,0.0,0.0,-2.2972,-2.288,0.0,0.0,-2.291,-2.3117,-2.2945,0.0,-2.3075,-2.3057,-2.2872,-2.2891,-2.2611,-2.226,-2.2388,-2.2077,0.0,0.0,0.0,-2.2772,-2.2675,0.0,0.0,0.0,0.0,0.0,0.0,0.0,0.0,0.0,0.0,0.0,0.0,0.0,0.0,0.0,0.0,0.0,0.0,0.0,0.0,0.0,0.0,0.0,-1.8761,-1.9253,-1.9817,0.0,-2.1034,-2.1681,-2.2276,-2.2296,-2.2296,-2.2296,-2.2296,-2.2296,-2.2279,-2.1721,-2.1638,-2.191,-2.0073,-1.9477,-1.9825,-1.8502,-1.81,-1.832,-1.8135,-1.833,-1.8743,-1.8743,-1.9092,-1.9701,-2.0514,-2.0927,-2.1054,-2.3236,0.0,0.0,0.0,0.0,0.0,0.0,0.0,0.0,0.0,-2.9497,0.0,-2.9782,0.0,-2.9365,0.0,-2.797,-2.7357,-2.6311,-2.6088,0.0,-2.449,-2.5166,0.0,0.0,0.0,0.0,0.0,0.0,-2.419,0.0,0.0,0.0,0.0,0.0,-2.2125,-2.1133,-2.2043,-2.1708,0.0,0.0,-2.2563,0.0,0.0,-2.276,-2.259,0.0,-2.2638,-2.2363,-2.2747,-2.2569,-2.2168,-2.2181,-2.1684,-2.1134,-2.1293,-2.0966,-2.0655,-2.0991,-2.158,0.0,-2.1954,-2.2289,0.0,-2.2629,0.0,0.0,0.0,0.0,0.0,0.0,0.0,0.0,0.0,0.0,0.0,0.0,-1.9067,0.0,0.0,0.0,0.0,0.0,0.0,-1.9546,-1.8999,-1.9532,-2.0122,0.0,0.0,-2.1511,-2.2402,-2.2349,-2.2296,-2.2296,-2.2296,-2.2296,-2.2279,-2.1434,-2.1184,-2.139,-1.9636,-1.8976,-1.9171,-1.8206,-1.7894,-1.8029,-1.7861,-1.8068,-1.846,-1.846,-1.8688,-1.9098,-1.994,-2.0294,-2.0301,0.0,0.0,0.0,0.0,-2.3842,0.0,0.0,0.0,-2.7932,0.0,-2.9107,-2.9424,-2.9051,-2.8995,-2.8995,-2.8959,-2.8219,-2.7735,-2.7699,-2.6,0.0,0.0,-2.4205,-2.3797,-2.3682,0.0,0.0,0.0,0.0,0.0,0.0,0.0,0.0,0.0,-2.3317,0.0,-2.0611,-2.2359,-2.191,-2.02,-2.1705,-2.2296,-2.2296,-2.2296,-2.2296,-2.2296,-2.2296,-2.2296,-2.2296,-2.2279,-2.1789,-2.1243,-2.1453,-2.0471,-1.9439,-2.0171,-2.0068,-1.9792,-2.025,-2.1137,-2.1871,-2.1538,0.0,0.0,0.0,0.0,-2.1671,0.0,0.0,0.0,0.0,0.0,0.0,0.0,0.0,0.0,0.0,0.0,0.0,0.0,0.0,0.0,0.0,-2.017,-2.042,-1.9631,-1.9988,-2.0535,0.0,0.0,-2.1152,-2.2643,-2.244,-2.2296,-2.2296,-2.2296,-2.2296,-2.2279,-2.0792,-2.0437,-2.1072,-1.886,-1.8217,-1.8809,-1.8104,-1.78,-1.78,-1.78,-1.7949,-1.8177,-1.8187,-1.8518,-1.9001,-1.9222,-1.9158,-1.8975,-2.3275,-2.3785,-2.4126,0.0,-2.4221,-2.486,0.0,0.0,0.0,0.0,-2.9112,-2.9194,-2.9096,-2.9074,-2.8828,-2.8242,-2.7486,0.0,0.0,0.0,0.0,-2.3708,-2.5162,-2.515,-2.337,-2.4004,-2.417,-2.3827,0.0,0.0,-2.3827,0.0,0.0,0.0,0.0,0.0,-2.0553,-2.1368,-2.1395,-2.0974,-2.1921,-2.2296,0.0,0.0,-2.2296,-2.2296,-2.2296,-2.2296,-2.2248,-2.1894,-2.1521,-2.1096,-2.0466,-1.9677,-1.9012,-1.907,-1.8715,-1.8377,-1.8696,-1.9245,-1.9698,-1.9604,-2.0011,-2.0407,0.0,0.0,0.0,0.0,0.0,0.0,0.0,0.0,0.0,0.0,0.0,0.0,0.0,0.0,0.0,-2.0824,0.0,0.0,-2.0154,-2.0015,-1.9757,-1.9398,-2.0036,0.0,0.0,0.0,0.0,-2.2673,-2.244,-2.2296,-2.2296,-2.2296,-2.2296,-2.2279,-2.1346,-2.0686,-2.0268,-1.913,-1.842,-1.807,-1.7884,-1.78,-1.78,-1.78,-1.7845,-1.7916,-1.8114,-1.841,-1.8734,-1.8983,-1.8913,-1.8706,-2.3352,0.0,0.0,-2.4838,0.0,0.0,-2.6271,-2.6899,0.0,-2.8228,-2.831,0.0,-2.8103,-2.779,-2.74,-2.6929,-2.6517,0.0,-2.5582,0.0,0.0,-2.3606,-2.4497,-2.4396,-2.3114,-2.3277,0.0,-2.335,0.0,0.0,-2.3469,0.0,0.0,0.0,0.0,-2.1889,-2.0825,-2.1096,-2.1393,-2.1718,-2.2141,0.0,0.0,-2.2296,-2.2296,-2.2296,-2.2296,-2.2296,-2.2231,-2.1751,-2.1203,-2.0558,-1.9849,-1.9072,-1.8392,-1.8284,-1.8046,-1.7794,-1.7805,-1.8232,-1.8647,-1.8493,-1.8889,-1.9269,-1.9124,-1.9651,-2.0238,0.0,0.0,0.0,0.0,0.0,0.0,0.0,0.0,0.0,0.0,0.0,0.0,0.0,-2.1542,0.0,-2.1098,-2.0496,-2.0087,-1.9967,-2.0641,0.0,0.0,0.0,0.0,-2.2218,-2.2283,-2.2296,-2.2296,-2.2296,-2.2296,-2.2279,-2.1546,-2.0771,-1.9968,-1.9249,-1.8504,-1.78,-1.78,-1.78,-1.78,-1.78,-1.78,-1.7833,-1.811,-1.829,-1.844,-1.8585,-1.8547,-1.843,0.0,0.0,0.0,0.0,0.0,0.0,0.0,-2.6995,0.0,-2.7126,0.0,-2.6931,-2.6539,-2.587,-2.5455,-2.5455,0.0,-2.5314,-2.5314,-2.4444,-2.3873,-2.3786,-2.3175,-2.2846,-2.2825,-2.2358,-2.2263,0.0,0.0,0.0,0.0,0.0,0.0,0.0,0.0,0.0,0.0,-2.119,-2.1566,-2.2161,-2.2189,-2.2209,-2.2194,-2.2152,-2.2137,-2.212,-2.2124,-2.2119,-2.2006,-2.1558,-2.0708,-1.9771,-1.9274,-1.8528,-1.7789,-1.7687,-1.7676,-1.7618,-1.732,-1.7695,-1.8107,-1.7832,-1.7977,-1.8107,-1.7832,-1.838,-1.908,-1.9429,-1.993,-2.0521,0.0,0.0,0.0,0.0,0.0,0.0,0.0,0.0,0.0,0.0,0.0,0.0,0.0,-2.1309,-2.0886,-2.0775,0.0,0.0,0.0,0.0,0.0,-2.1593,-2.1958,0.0,-2.2296,0.0,-2.2296,-2.2296,-2.1651,-2.0859,-1.9917,-1.9272,-1.8513,-1.7726,-1.7726,-1.7766,-1.78,-1.78,-1.78,-1.7822,-1.8008,-1.8076,-1.8076,-1.8076,-1.8076,-1.8086,0.0,0.0,0.0,0.0,0.0,-2.5977,-2.6159,-2.659,-2.6657,-2.5993,-2.5908,-2.5633,-2.4976,-2.4769,-2.4684,-2.4684,-2.4137,0.0,0.0,0.0,0.0,-2.2626,-2.3247,-2.323,-2.2425,-2.23,-2.1691,0.0,0.0,0.0,0.0,0.0,0.0,0.0,0.0,0.0,-2.119,-2.119,0.0,-2.1417,-2.1635,-2.1718,-2.1705,-2.1354,-2.1229,-2.1227,-2.1234,-2.1097,-2.0827,-2.0419,-1.9749,-1.894,-1.7962,-1.7732,-1.7687,-1.714,-1.6971,-1.6967,-1.6894,-1.6972,-1.7068,-1.7004,-1.703,-1.7056,-1.702,-1.8232,-1.9409,-1.9488,-2.0793,-2.1941,-2.209,0.0,0.0,0.0,0.0,0.0,0.0,0.0,0.0,0.0,0.0,-2.2228,0.0,0.0,0.0,0.0,0.0,0.0,0.0,0.0,0.0,0.0,-2.1477,0.0,0.0,0.0,-2.2296,-2.2296,-2.2161,-2.1227,-1.9571,-1.9455,-1.8647,-1.738,-1.738,-1.7537,-1.78,-1.78,-1.78,-1.7789,-1.7544,-1.7462,-1.7462,-1.7462,-1.7462,-1.7527,0.0,0.0,0.0,0.0,0.0,0.0,0.0,-2.6135,-2.633,-2.588,-2.5344,-2.4897,-2.4541,-2.3599,-2.2992,-2.2992,-2.2675,-2.246,-2.246,-2.2685,-2.2682,-2.2313,-2.2762,-2.2415,-2.1146,-2.1881,-2.1678,-2.0415,0.0,0.0,0.0,0.0,0.0,0.0,0.0,-2.1536,0.0,0.0,0.0,-2.1106,-2.1238,-2.1291,-2.126,-2.1071,-2.0991,-2.1007,-2.1003,-2.0328,-1.9482,-1.9637,-1.9101,-1.825,-1.7531,-1.7289,-1.7224,-1.6886,-1.6797,-1.676,-1.6594,-1.6541,-1.6501,-1.6328,-1.6407,-1.6503,-1.6328,-1.7351,-1.8519,-1.9124,-2.0237,-2.135,-2.2144,-2.2296,0.0,0.0,0.0,0.0,0.0,0.0,0.0,0.0,0.0,0.0,0.0,0.0,0.0,0.0,0.0,0.0,0.0,0.0,0.0,0.0,0.0,0.0,0.0,0.0,0.0,-2.1735,-2.2124,-2.1133,-1.895,-1.9501,-1.8855,-1.7308,-1.7474,-1.7658,-1.78,-1.78,-1.7692,-1.7526,-1.7368,-1.7199,-1.7039,-1.7039,-1.715,-1.7392,0.0,-2.5968,0.0,0.0,-2.5991,0.0,-2.4985,-2.5322,-2.5609,-2.5419,-2.4697,-2.4091,-2.3789,-2.2381,-2.1476,-2.1476,-2.1476,-2.1476,-2.1476,-2.1825,-2.2034,-2.2034,-2.2195,-2.1725,-2.0532,-2.1049,-2.0967,0.0,0.0,0.0,0.0,0.0,0.0,0.0,0.0,0.0,0.0,0.0,-2.0991,-2.0991,-2.0751,-2.0734,-2.083,-2.0606,-2.0605,-2.0714,-2.0721,-1.974,-1.853,-1.8908,-1.8413,-1.7568,-1.7125,-1.6878,-1.6741,-1.6622,-1.66,-1.6534,-1.6277,-1.6191,-1.6122,-1.587,-1.5997,-1.6122,-1.5856,-1.6772,-1.7915,-1.8806,-1.9796,-2.0846,-2.2076,-2.2296,0.0,0.0,0.0,0.0,0.0,0.0,0.0,0.0,0.0,0.0,-2.2218,0.0,0.0,0.0,0.0,-1.9759,-1.9317,-1.9757,0.0,0.0,0.0,-2.1281,-2.2034,0.0,-2.1695,0.0,-2.1812,-2.0851,-1.8656,-1.943,-1.8885,-1.7308,-1.7502,-1.7658,-1.78,-1.78,-1.7595,-1.728,-1.7224,-1.6989,-1.6686,-1.6686,-1.6917,-1.728,0.0,0.0,0.0,0.0,0.0,0.0,-2.3921,-2.3703,-2.3591,-2.3391,-2.3304,-2.2743,-2.1456,-2.1183,-2.1071,-2.1071,-2.1071,-2.1071,-2.1071,-2.1103,-2.1134,-2.1134,-2.189,-2.2235,-2.2082,-1.9553,-1.8191,0.0,0.0,0.0,0.0,0.0,0.0,0.0,0.0,0.0,0.0,-2.1023,-2.0991,-2.0911,-1.9939,-1.9885,-2.0269,-1.9294,-1.9291,-1.9818,-1.9815,-1.9337,-1.8587,-1.8037,-1.7396,-1.6705,-1.6128,-1.6289,-1.6596,-1.6049,-1.5886,-1.59,-1.5856,-1.5856,-1.5842,-1.5813,-1.5827,-1.5842,-1.5813,-1.7372,-1.8873,-1.8974,-2.0652,-2.2127,-2.2262,-2.2296,-2.2296,0.0,0.0,0.0,0.0,0.0,-2.2335,-2.2335,0.0,0.0,0.0,-2.2099,0.0,0.0,-2.0327,-1.9999,-1.8995,-1.8663,-1.8788,-1.944,0.0,-2.038,-2.1102,-2.0806,-2.098,-2.1558,-2.1384,-2.0629,-1.9395,-1.92,-1.845,-1.728,-1.7002,-1.724,-1.78,-1.78,-1.7595,-1.7272,-1.698,-1.6646,-1.6355,-1.6355,-1.6554,-1.6926,0.0,0.0,0.0,0.0,0.0,0.0,0.0,-2.3251,-2.2822,-2.2309,-2.24,-2.2289,-2.1712,-2.1018,-2.0583,-2.0583,-2.0583,-2.0583,-2.0583,-2.0845,-2.0943,-2.0767,-2.1087,-2.0989,-2.0385,-1.8294,-1.7618,0.0,0.0,0.0,0.0,0.0,0.0,0.0,0.0,-2.0347,-2.0551,-1.9879,-1.9625,-1.9577,-1.9148,-1.911,-1.9336,-1.9311,-1.9468,-1.9708,-1.9708,-1.9277,-1.8597,-1.7939,-1.7242,-1.6585,-1.5991,-1.6203,-1.6653,-1.6413,-1.6338,-1.6338,-1.6338,-1.6069,-1.5799,-1.5799,-1.5799,-1.5889,-1.6249,-1.7192,-1.8281,-1.9387,-2.104,-2.2296,-2.2296,-2.2296,-2.2209,0.0,0.0,0.0,0.0,0.0,0.0,-2.1913,0.0,-2.1929,0.0,0.0,0.0,0.0,0.0,-1.9152,-1.8286,-1.8277,-1.8741,-1.9665,0.0,-2.0256,-2.0991,-2.0472,-2.0125,-1.9994,-2.056,-2.0031,-1.8575,-1.9477,-1.917,-1.7876,-1.7547,-1.7554,-1.7789,-1.7584,-1.7296,-1.6964,-1.6633,-1.6301,-1.5997,-1.5997,-1.6326,-1.685,-2.3712,0.0,-2.351,0.0,-2.312,-2.3032,-2.2779,-2.2245,-2.1683,-2.1186,-2.1278,-2.1391,-2.1391,-2.0626,-2.0124,-2.0124,-2.0124,-2.0124,-2.0124,-2.0431,-2.0535,-2.0343,-2.0343,0.0,-1.9296,-1.7821,-1.7551,-1.8591,-1.858,0.0,0.0,0.0,0.0,0.0,-1.9894,-1.9856,-2.006,-1.911,-1.8807,-1.8957,-1.8568,-1.8642,-1.9016,-1.9286,-1.9528,-1.9708,-1.9708,-1.9408,-1.8867,-1.7997,-1.7391,-1.6848,-1.6052,-1.6204,-1.6633,-1.6318,-1.6377,-1.6482,-1.6275,-1.5921,-1.5624,-1.577,-1.5799,-1.5964,-1.6562,-1.7182,-1.8125,-1.9921,-2.1148,-2.1915,-2.1915,-2.1915,-2.1811,-2.1477,0.0,0.0,0.0,0.0,0.0,0.0,-2.143,-2.1306,-2.1039,-2.0791,0.0,0.0,0.0,0.0,-1.7871,-1.8116,0.0,0.0,0.0,0.0,0.0,-2.0052,-1.9608,-1.9322,-2.0046,-1.9715,-1.8523,-1.9439,-1.9176,-1.7998,-1.7859,-1.7738,-1.7618,-1.7392,-1.7101,-1.6763,-1.6421,-1.6109,-1.5799,-1.5799,-1.6219,-1.6841,-2.1983,-2.2804,-2.3273,-2.1955,-2.1819,-2.1661,-2.0854,-2.0289,-1.9885,-1.974,-1.9741,-1.9741,-1.9741,-1.9726,-1.9708,-1.9708,-1.9708,-1.9708,-1.9708,-1.9711,-1.9711,0.0,0.0,-1.9715,-1.9697,-1.8376,-1.7726,-1.7802,0.0,0.0,-1.7543,0.0,-1.893,-1.8949,-1.946,-1.9708,-1.9648,-1.8986,-1.9076,-1.9573,-1.8252,-1.8508,-1.9618,-1.8957,-1.9121,-1.9708,-1.9708,-1.9693,-1.9465,-1.8147,-1.7699,-1.7459,-1.6203,-1.6204,-1.6485,-1.5428,-1.5581,-1.5957,-1.5306,-1.5104,-1.521,-1.5668,-1.5799,-1.5964,-1.6562,-1.7578,-1.8873,-2.0639,-2.1007,-2.1023,-2.1023,-2.1023,-2.1007,-2.1023,0.0,0.0,0.0,0.0,0.0,-2.1023,-2.1023,-2.1023,-2.0991,0.0,0.0,0.0,0.0,0.0,0.0,0.0,0.0,-1.8223,-1.918,0.0,-1.9726,-1.9379,-1.9565,-2.0283,-2.0036,-1.9906,-1.9842,-1.88,-1.7963,-1.7319,-1.7662,-1.7607,-1.7308,-1.7308,-1.7101,-1.6763,-1.6421,-1.6109,-1.5799,-1.5799,-1.6219,-1.6802,-2.0613,-2.1513,-2.2069,-2.1229,-2.1462,-2.168,-2.1415,-2.0855,-2.0302,-1.9883,-1.9445,-1.9024,-1.865,-1.9262,-1.9708,0.0,-1.9708,-1.9708,0.0,-1.9708,-1.9708,-1.9708,-1.9708,-1.9494,-1.9031,-1.7885,-1.7075,-1.6637,0.0,0.0,0.0,-1.8203,-1.8554,-1.8893,-1.8688,-1.8611,-1.8573,-1.7806,-1.7367,-1.7278,-1.7569,-1.7739,-1.7908,-1.8983,-1.9283,-1.9111,-1.8727,-1.8617,-1.8358,-1.674,-1.6194,-1.6049,-1.5192,-1.5751,-1.6574,-1.5966,-1.5928,-1.5995,-1.5522,-1.5233,-1.5134,-1.5285,-1.5566,-1.6069,-1.7145,-1.8584,-1.9852,-2.0406,-2.078,-2.0991,-2.0991,-2.0991,-2.0894,-2.0566,-2.0797,0.0,0.0,0.0,0.0,-2.0129,-2.0333,-2.0265,0.0,-1.9694,0.0,0.0,0.0,0.0,0.0,0.0,0.0,0.0,-1.9169,0.0,-1.9151,-1.8226,-1.7888,-1.8129,-1.8736,-1.921,-1.9547,-1.9206,-1.8414,-1.7306,-1.7411,-1.726,-1.6939,-1.6709,-1.6567,-1.6421,-1.608,-1.5884,-1.5799,-1.5799,-1.6219,-1.6802,-1.9577,-2.0043,-2.0332,-2.0145,-2.0096,-2.0143,-2.0361,-1.9838,-1.9371,-1.9245,-1.8857,-1.8477,-1.8145,-1.8688,0.0,-1.9387,-1.9584,-1.9603,-1.9406,-1.9406,-1.9314,-1.9114,-1.9114,-1.8877,-1.8411,0.0,0.0,-1.6102,-1.6024,-1.6418,-1.7203,-1.7598,-1.7987,-1.8302,-1.8165,-1.7991,-1.7755,-1.6987,-1.6522,-1.6282,-1.6702,-1.6934,-1.7175,-1.8354,-1.8728,-1.8527,-1.799,-1.7798,-1.7559,-1.6019,-1.5499,-1.5372,-1.4711,-1.5129,-1.5787,-1.5393,-1.5434,-1.5524,-1.5023,-1.4775,-1.473,-1.5095,-1.5402,-1.5983,-1.743,-1.88,-1.9831,-2.0037,-1.9989,-1.9976,-2.0164,-2.0213,-2.0043,-1.9552,-2.0058,-2.0347,-1.9831,0.0,0.0,0.0,0.0,0.0,0.0,-1.9078,0.0,0.0,0.0,0.0,0.0,0.0,0.0,-1.8635,-1.8796,0.0,-1.8593,-1.7835,-1.7482,-1.7482,-1.8314,-1.8763,-1.8846,-1.9169,-1.8505,-1.7088,-1.7362,-1.7142,-1.6594,-1.6396,-1.6301,-1.6274,-1.5926,-1.5799,-1.5799,-1.5799,-1.6136,-1.6633,-1.8734,-1.8484,-1.8321,0.0,-1.8047,0.0,-1.8057,-1.7697,-1.7529,-1.7982,-1.8054,-1.8027,-1.7987,-1.8027,-1.8263,-1.8746,0.0,0.0,0.0,-1.8836,-1.8612,-1.8125,-1.8064,-1.7991,-1.7827,-1.6796,-1.6173,-1.6006,-1.5636,-1.5537,-1.5726,-1.6775,-1.725,-1.7333,-1.7787,-1.7689,-1.7153,-1.6513,-1.6273,-1.6271,-1.5708,-1.6146,-1.714,-1.7218,-1.7522,-1.786,-1.7329,-1.7107,-1.689,-1.5713,-1.5296,-1.5183,-1.4554,-1.439,-1.4342,-1.4,-1.4302,-1.4623,-1.4053,-1.3921,-1.4169,-1.5097,-1.5377,-1.5848,-1.7473,-1.8358,-1.8987,-1.9479,-1.8798,-1.8263,-1.8746,-1.8836,-1.8674,-1.8129,-1.892,-1.9409,-1.8873,0.0,0.0,0.0,0.0,0.0,0.0,-1.8987,-1.8921,0.0,0.0,0.0,0.0,0.0,-1.7598,-1.6995,-1.82,-1.8593,-1.8046,-1.8007,-1.8027,-1.8125,-1.8631,-1.8533,-1.7903,-1.8751,-1.8218,-1.6683,-1.7388,-1.7153,-1.6274,-1.6274,-1.6274,-1.6232,-1.5912,-1.5799,-1.5799,-1.5799,-1.6011,-1.6355,0.0,0.0,-1.8,-1.7557,-1.7406,-1.7363,-1.7493,-1.7779,-1.7904,-1.7591,-1.7518,-1.7333,-1.6909,-1.7229,-1.7544,-1.7666,-1.8185,-1.8419,-1.8302,-1.8302,-1.8243,-1.8125,-1.7722,-1.7366,-1.7133,-1.6182,-1.5469,-1.5025,-1.5044,-1.5271,-1.5706,-1.6384,-1.6909,-1.7291,-1.6993,-1.6577,-1.6061,-1.5803,-1.5243,-1.4577,-1.5241,-1.5425,-1.5408,-1.6338,-1.651,-1.6195,-1.5604,-1.5149,-1.4694,-1.3584,-1.3213,-1.3189,-1.303,-1.3229,-1.3564,-1.3818,-1.3994,-1.4098,-1.4061,-1.4279,-1.466,-1.5295,-1.6072,-1.6775,-1.7195,-1.7798,-1.8341,-1.8458,-1.8283,-1.8145,-1.8283,-1.8302,-1.8096,-1.7579,-1.8053,-1.8289,-1.7735,-1.8028,0.0,0.0,-1.8046,-1.8086,-1.7544,-1.8086,-1.831,0.0,0.0,0.0,0.0,-1.7306,-1.7555,-1.7812,-1.8129,-1.8027,-1.7483,-1.7076,-1.7291,-1.8125,-1.8631,-1.8499,-1.7757,-1.8234,-1.7548,-1.6038,-1.6464,-1.6357,-1.5912,-1.5912,-1.5912,-1.5913,-1.5827,-1.5799,-1.5799,-1.5799,-1.6011,-1.6355,-1.6693,-1.7008,-1.7188,-1.6715,-1.6333,-1.6197,-1.6479,-1.6798,-1.7002,-1.6986,-1.6956,-1.6816,-1.6543,-1.6752,-1.693,-1.693,-1.7646,-1.8007,-1.7747,-1.7727,-1.7626,-1.7394,-1.7089,-1.6834,-1.6633,-1.6195,-1.5815,-1.5517,-1.5351,-1.553,-1.6082,-1.635,-1.6659,-1.6909,-1.6637,-1.6198,-1.5672,-1.5357,-1.4751,-1.4046,-1.4642,-1.4831,-1.4865,-1.552,-1.5736,-1.5601,-1.4772,-1.4174,-1.3643,-1.3032,-1.2685,-1.2579,-1.3083,-1.3401,-1.3649,-1.3916,-1.3805,-1.3659,-1.4006,-1.4254,-1.4609,-1.5396,-1.6395,-1.7181,-1.7181,-1.725,-1.7382,-1.7646,-1.7081,-1.6629,-1.6868,-1.691,-1.6749,-1.625,-1.703,-1.7503,-1.7006,-1.7387,0.0,-1.7333,-1.7565,-1.7524,-1.6993,-1.7646,-1.7907,-1.7415,0.0,0.0,-1.6843,-1.712,-1.7282,-1.7275,-1.7558,-1.7483,-1.693,-1.6659,-1.6909,-1.7747,-1.8283,-1.8106,-1.7355,-1.8099,-1.747,-1.5828,-1.6287,-1.6213,-1.5799,-1.5799,-1.5799,-1.5784,-1.5566,-1.561,-1.577,-1.5566,-1.5725,-1.6122,-1.6599,-1.6428,-1.6145,-1.5922,-1.5198,-1.4822,-1.5335,-1.5434,-1.5666,-1.6151,-1.6228,-1.6272,-1.6358,-1.6358,-1.6402,-1.65,-1.7333,-1.7666,-1.7209,-1.7089,-1.6863,-1.6396,-1.6287,-1.6214,-1.6049,-1.6092,-1.6136,-1.6229,-1.5798,-1.5806,-1.6249,-1.6425,-1.65,-1.65,-1.65,-1.617,-1.5563,-1.5085,-1.4538,-1.3972,-1.3956,-1.4231,-1.4624,-1.4546,-1.4812,-1.5072,-1.4175,-1.3527,-1.3084,-1.3103,-1.2826,-1.2663,-1.3673,-1.3975,-1.3969,-1.4057,-1.3654,-1.3323,-1.403,-1.4268,-1.4511,-1.5344,-1.6224,-1.6904,-1.6904,-1.6498,-1.6259,-1.6722,-1.5694,-1.4846,-1.5306,-1.5384,-1.522,-1.4751,-1.5952,-1.679,-1.6323,0.0,-1.7167,-1.7167,-1.7167,-1.6993,-1.6531,-1.7333,-1.7483,-1.6573,-1.6909,-1.6951,0.0,-1.679,-1.6747,-1.6087,-1.6865,-1.7013,-1.638,-1.6346,-1.6633,-1.7175,-1.7713,-1.7607,-1.6957,-1.799,-1.7458,-1.5758,-1.6336,-1.6263,-1.5712,-1.577,-1.5755,-1.5653,-1.5255,-1.5314,-1.5566,-1.521,-1.5359,-1.5755,-1.4707,-1.5002,-1.5177,-1.4526,-1.4435,-1.4482,-1.458,-1.4722,-1.488,-1.4983,-1.4971,-1.5175,-1.5676,-1.5754,-1.593,-1.6457,-1.6659,-1.671,-1.6637,-1.6195,-1.5921,-1.5819,-1.5399,-1.5082,-1.4949,-1.4515,-1.4519,-1.4972,-1.4999,-1.506,-1.5173,-1.6082,-1.65,-1.65,-1.65,-1.5957,-1.5009,-1.4941,-1.4305,-1.3326,-1.3288,-1.3317,-1.335,-1.2935,-1.2844,-1.2903,-1.2793,-1.2435,-1.2096,-1.2478,-1.2561,-1.2621,-1.3238,-1.3356,-1.3352,-1.3875,-1.3546,-1.3277,-1.4451,-1.5069,-1.5288,-1.4946,-1.4982,-1.5096,-1.5096,-1.5028,-1.4983,-1.5062,-1.4869,-1.4721,-1.4801,-1.4824,-1.4643,-1.4136,-1.5069,-1.5659,-1.5142,0.0,-1.6616,-1.6616,-1.6616,-1.6595,-1.6522,-1.6659,-1.668,-1.6522,-1.6573,-1.6367,-1.5764,-1.583,-1.5584,-1.4958,-1.6481,-1.6799,-1.5742,-1.5672,-1.5944,-1.6562,-1.7068,-1.7242,-1.7089,-1.7265,-1.6633,-1.5393,-1.5898,-1.5772,-1.524,-1.5639,-1.558,-1.5195,-1.5134,-1.4937,-1.4737,-1.5013,-1.5149,-1.5315,-1.4353,-1.4598,-1.4649,-1.3919,-1.3681,-1.3691,-1.4035,-1.4166,-1.4329,-1.4663,-1.4698,-1.4812,-1.5073,-1.513,-1.5242,-1.55,-1.5832,-1.603,-1.603,-1.5815,-1.5831,-1.612,-1.5319,-1.5084,-1.56,-1.455,-1.4547,-1.5668,-1.544,-1.5336,-1.5349,-1.6132,-1.6337,-1.6082,-1.6362,-1.5906,-1.4928,-1.5211,-1.4677,-1.3622,-1.3636,-1.3427,-1.312,-1.2681,-1.2639,-1.2807,-1.2545,-1.2284,-1.2133,-1.2606,-1.2819,-1.295,-1.3466,-1.379,-1.3999,-1.3956,-1.395,-1.4023,-1.4284,-1.4974,-1.5454,-1.4858,-1.4698,-1.4698,-1.4698,-1.4445,-1.4213,-1.4213,-1.3967,-1.3729,-1.3729,-1.3729,-1.3666,-1.3451,-1.4092,0.0,0.0,-1.53,-1.603,-1.603,-1.6303,-1.65,-1.65,-1.65,-1.65,-1.65,-1.65,-1.6238,-1.5632,-1.561,-1.532,-1.4732,-1.5487,-1.5642,-1.5118,-1.5073,-1.553,-1.64,-1.6642,-1.6727,-1.6613,-1.6613,-1.5809,-1.445,-1.4663,-1.4627,-1.4414,-1.4634,-1.4739,-1.4752,-1.4549,-1.447,-1.4517,-1.4705,-1.4907,-1.5195,-1.4192,-1.4345,-1.4271,-1.3618,-1.332,-1.3298,-1.3669,-1.3662,-1.3755,-1.4224,-1.4271,-1.434,-1.4468,-1.4491,-1.4537,-1.4686,-1.5118,-1.5363,-1.5267,-1.5283,-1.56,-1.6274,-1.5132,-1.4953,-1.5978,-1.4639,-1.4578,-1.5912,-1.5653,-1.5462,-1.5349,-1.6007,-1.5957,-1.5343,-1.5902,-1.5542,-1.4526,-1.4943,-1.4586,-1.3764,-1.3816,-1.3563,-1.3103,-1.2658,-1.2695,-1.2913,-1.2516,-1.2326,-1.2362,-1.2835,-1.3063,-1.3246,-1.3748,-1.4122,-1.4329,-1.3972,-1.4204,-1.4478,-1.4005,-1.445,-1.4901,-1.44,-1.4271,-1.4271,-1.4271,-1.392,-1.36,-1.36,-1.3214,-1.2905,-1.2905,-1.2905,-1.2932,-1.296,0.0,0.0,0.0,-1.4876,-1.5543,-1.541,-1.6051,-1.6445,-1.6303,-1.6423,-1.65,-1.65,-1.638,-1.603,-1.541,-1.5118,-1.4631,-1.3914,-1.4177,-1.4381,-1.4491,-1.4156,-1.4676,-1.599,-1.5911,-1.5932,-1.6055,-1.6055,-1.5198,-1.3762,-1.376,-1.3706,-1.3629,-1.3762,-1.3952,-1.4154,-1.397,-1.4019,-1.4214,-1.4326,-1.4627,-1.5013,-1.3504,-1.3861,-1.3991,-1.3574,-1.3773,-1.3906,-1.3567,-1.3199,-1.2968,-1.3017,-1.3041,-1.3248,-1.3802,-1.3873,-1.4097,-1.4652,-1.4744,-1.4609,-1.4234,-1.4163,-1.4607,-1.571,-1.4262,-1.3848,-1.4801,-1.3871,-1.3629,-1.4185,-1.4713,-1.4714,-1.4236,-1.5286,-1.5208,-1.4241,-1.4835,-1.4441,-1.3322,-1.3367,-1.3273,-1.3055,-1.3075,-1.3056,-1.2967,-1.2426,-1.224,-1.2279,-1.2304,-1.2288,-1.2362,-1.2835,-1.3001,-1.3131,-1.3705,-1.3553,-1.3215,-1.366,-1.3833,-1.3856,-1.381,-1.356,-1.3233,-1.3076,-1.3041,-1.3041,-1.3041,-1.3002,-1.2978,-1.2978,-1.2929,-1.2905,-1.2905,-1.2905,-1.2895,-1.2905,0.0,0.0,-1.382,-1.4835,-1.5387,-1.4835,-1.5788,-1.6281,-1.572,-1.6173,-1.65,-1.65,-1.5986,-1.5387,-1.4789,-1.3656,-1.2516,-1.1494,-1.261,-1.3419,-1.3862,-1.2516,-1.284,-1.4824,-1.4449,-1.4744,-1.5648,-1.5648,-1.5002,-1.3889,-1.3886,-1.3575,-1.3097,-1.3604,-1.3548,-1.326,-1.3726,-1.3648,-1.334,-1.3785,-1.4198,-1.4549,-1.3111,-1.3242,-1.3165,-1.2548,-1.2947,-1.314,-1.2538,-1.2713,-1.2905,-1.2905,-1.2905,-1.2992,-1.3214,-1.3238,-1.3334,-1.3563,-1.392,-1.4068,-1.3918,-1.4013,-1.4046,-1.402,-1.3495,-1.3477,-1.4122,-1.2941,-1.2698,-1.3497,-1.3772,-1.3807,-1.3624,-1.4698,-1.4638,-1.3627,-1.4197,-1.379,-1.272,-1.3163,-1.3189,-1.2978,-1.2763,-1.2624,-1.2453,-1.2004,-1.1992,-1.2207,-1.2225,-1.2436,-1.2689,-1.2886,-1.3186,-1.3479,-1.3336,-1.3388,-1.3455,-1.3297,-1.3047,-1.2863,-1.3168,-1.3381,-1.3442,-1.3016,-1.2905,-1.2774,-1.232,-1.2212,-1.2212,-1.2212,-1.2212,-1.2369,-1.2822,-1.2905,-1.2905,-1.2905,0.0,-1.3238,-1.3238,-1.3956,-1.4411,-1.4167,-1.5208,-1.5842,-1.561,-1.6151,-1.6324,-1.5974,-1.572,-1.5174,-1.419,-1.2904,-1.1978,-1.1573,-1.1804,-1.22,-1.2802,-1.2543,-1.299,-1.4143,-1.3994,-1.4109,-1.448,-1.448,-1.3885,-1.2849,-1.2864,-1.2594,-1.2212,-1.2404,-1.2413,-1.2307,-1.2514,-1.2673,-1.2826,-1.3247,-1.37,-1.4165,-1.2905,-1.2988,-1.2894,-1.2264,-1.2491,-1.2637,-1.2206,-1.2369,-1.2642,-1.2881,-1.2905,-1.2798,-1.2584,-1.2559,-1.2461,-1.2255,-1.2609,-1.2797,-1.2693,-1.2882,-1.3011,-1.3021,-1.2957,-1.3104,-1.3518,-1.2486,-1.2264,-1.2908,-1.317,-1.3216,-1.3074,-1.4162,-1.4001,-1.2844,-1.3384,-1.2995,-1.1966,-1.2569,-1.2796,-1.2748,-1.2652,-1.2446,-1.2194,-1.2064,-1.208,-1.2223,-1.2359,-1.2627,-1.2905,-1.2905,-1.3176,-1.3443,-1.3041,-1.3176,-1.3443,-1.3017,-1.2666,-1.25,-1.2803,-1.3035,-1.3126,-1.2944,-1.2569,-1.2172,-1.1873,-1.1641,-1.1541,-1.1765,-1.1789,-1.203,-1.2774,-1.2905,-1.2905,-1.2905,-1.3013,-1.3027,-1.2925,-1.3542,-1.3865,-1.3549,-1.4572,-1.5253,-1.5039,-1.5577,-1.5766,-1.5343,-1.5141,-1.4412,-1.2952,-1.1978,-1.1439,-1.1291,-1.1369,-1.1563,-1.1883,-1.2289,-1.2863,-1.3571,-1.3571,-1.3655,-1.3792,-1.3792,-1.3293,-1.2398,-1.2139,-1.1945,-1.188,-1.1776,-1.185,-1.2011,-1.2011,-1.2312,-1.2738,-1.2852,-1.3331,-1.3917,-1.2905,-1.3213,-1.3369,-1.2949,-1.2685,-1.2577,-1.2842,-1.227,-1.2055,-1.2798,-1.2881,-1.2608,-1.1864,-1.1789,-1.1516,-1.0864,-1.0788,-1.064,-1.0237,-1.0464,-1.1331,-1.301,-1.27,-1.2624,-1.2886,-1.2621,-1.2415,-1.2298,-1.2963,-1.3007,-1.252,-1.3587,-1.3265,-1.1815,-1.2366,-1.1973,-1.0921,-1.1379,-1.1839,-1.2242,-1.2695,-1.2617,-1.2252,-1.2715,-1.2607,-1.2262,-1.2725,-1.2905,-1.2905,-1.2905,-1.2905,-1.2905,-1.2881,-1.2881,-1.2881,-1.2881,-1.2881,-1.2881,-1.2881,-1.2344,-1.1972,-1.2715,-1.185,-1.0965,-1.1641,-1.1266,-1.0965,-1.1641,-1.1789,-1.2005,-1.2749,-1.2881,-1.2881,-1.2881,-1.3232,-1.3359,-1.2964,-1.3773,-1.4023,-1.3017,-1.3954,-1.4468,-1.3862,-1.4352,-1.4698,-1.4698,-1.412,-1.2904,-1.0914,-1.0788,-1.0606,-1.0229,-1.1225,-1.16,-1.119,-1.1477,-1.2099,-1.3098,-1.3098,-1.334,-1.3802,-1.3802,-1.3457,-1.2856,-1.1998,-1.1879,-1.2278,-1.196,-1.2077,-1.2478,-1.249,-1.2773,-1.3129,-1.2668,-1.3091,-1.3818,-1.2905,-1.3013,-1.2894,-1.223,-1.2482,-1.2479,-1.1585,-1.1649,-1.1724,-1.1459,-1.1434,-1.135,-1.1116,-1.1091,-1.1015,-1.0813,-1.0788,-1.064,-1.0237,-1.0464,-1.0958,-1.1724,-1.1834,-1.2049,-1.2412,-1.1727,-1.1365,-1.1323,-1.1575,-1.1774,-1.1951,-1.3028,-1.2887,-1.1757,-1.2336,-1.198,-1.0879,-1.0753,-1.127,-1.2194,-1.2054,-1.2061,-1.2223,-1.235,-1.232,-1.2223,-1.2359,-1.2617,-1.2905,-1.2905,-1.2905,-1.2798,-1.2295,-1.1807,-1.1434,-1.1434,-1.1758,-1.203,-1.1559,-1.1275,-1.1266,-1.1956,-1.1626,-1.1031,-1.0522,-1.0431,-1.0427,-1.0393,-1.0587,-1.0892,-1.1352,-1.2,-1.2413,-1.216,-1.2664,-1.3052,-1.2925,-1.315,-1.3253,-1.2949,-1.3576,-1.4003,-1.3815,-1.4352,-1.4514,-1.4097,-1.3034,-1.1929,-1.0864,-1.0338,-1.0265,-1.0615,-1.0486,-1.0673,-1.119,-1.2068,-1.2401,-1.2191,-1.2191,-1.2541,-1.3152,-1.2643,-1.2579,-1.292,-1.3064,-1.2813,-1.233,-1.2643,-1.2486,-1.1975,-1.1597,-1.1763,-1.2192,-1.2066,-1.2378,-1.2936,-1.2847,-1.2905,-1.2774,-1.232,-1.2369,-1.2172,-1.1316,-1.1316,-1.1266,-1.0838,-1.0788,-1.0686,-1.044,-1.0389,-1.0287,-1.0038,-1.002,-0.9951,-0.9808,-0.9945,-1.0273,-1.077,-1.079,-1.1309,-1.2447,-1.1621,-1.1172,-1.1172,-1.1245,-1.1325,-1.1449,-1.2459,-1.2393,-1.1446,-1.1801,-1.1481,-1.063,-1.0345,-1.0799,-1.1655,-1.1394,-1.1563,-1.1982,-1.2135,-1.2203,-1.2233,-1.2398,-1.2656,-1.2905,-1.2905,-1.2715,-1.2344,-1.1616,-1.1141,-1.0788,-1.0788,-1.1091,-1.1316,-1.0914,-1.0618,-1.06,-1.1481,-1.1062,-1.0382,-1.0079,-0.9931,-0.9883,-0.9973,-1.0172,-1.0474,-1.1048,-1.1646,-1.1946,-1.1653,-1.2125,-1.2492,-1.2474,-1.2628,-1.2784,-1.29,-1.3214,-1.3443,-1.3443,-1.3766,-1.3732,-1.3058,-1.2258,-1.1516,-1.0838,-1.0415,-1.0491,-1.1166,-1.0542,-1.0463,-1.1028,-1.1724,-1.176,-1.1165,-1.1594,-1.203,-1.2452,-1.1996,-1.2212,-1.292,-1.3094,-1.3078,-1.2936,-1.2912,-1.269,-1.2323,-1.16,-1.1634,-1.2029,-1.1634,-1.2018,-1.2791,-1.2593,-1.27,-1.2725,-1.2798,-1.2187,-1.1715,-1.1715,-1.1141,-1.0695,-1.0644,-1.0618,-1.0389,-0.9788,-0.971,-0.9465,-0.8857,-0.8804,-0.8899,-0.9154,-0.9178,-0.949,-1.0141,-0.9777,-1.0544,-1.2681,-1.1866,-1.1443,-1.1509,-1.1531,-1.1374,-1.1068,-1.1977,-1.1901,-1.099,-1.1132,-1.0839,-1.0263,-1.0176,-1.0412,-1.0824,-1.0759,-1.1021,-1.147,-1.1868,-1.1989,-1.2032,-1.2488,-1.2686,-1.27,-1.27,-1.2221,-1.1516,-1.0889,-1.0669,-1.0618,-1.0618,-1.0661,-1.0686,-1.0644,-1.0218,-1.0044,-1.1037,-1.0245,-0.9404,-1.0188,-0.9867,-0.9549,-1.0121,-1.0272,-1.0534,-1.1372,-1.1584,-1.1543,-1.1271,-1.1611,-1.1903,-1.1813,-1.2233,-1.2633,-1.2881,-1.2905,-1.2905,-1.2905,-1.2905,-1.2584,-1.1864,-1.174,-1.1416,-1.0745,-1.0712,-1.1015,-1.169,-1.1065,-1.0737,-1.0788,-1.0737,-1.0531,-1.0173,-1.1152,-1.169,-1.1789,-1.174,-1.2163,-1.2886,-1.2569,-1.2937,-1.3771,-1.2948,-1.2881,-1.3211,-1.2249,-1.212,-1.2389,-1.1468,-1.197,-1.3064,-1.1225,-1.125,-1.1425,-1.1956,-1.1466,-1.1015,-1.1015,-1.044,-0.984,-0.9309,-0.9237,-0.9185,-0.9035,-0.9008,-0.8956,-0.8804,-0.8804,-0.883,-0.8893,-0.9084,-0.9398,-0.9873,-1.0002,-1.0424,-1.1241,-1.0394,-1.0238,-1.0816,-1.0468,-1.0702,-1.1492,-1.2163,-1.1913,-1.0962,-1.213,-1.1645,-1.0007,-1.0353,-1.0435,-1.0335,-1.0349,-1.0229,-1.0146,-1.0508,-1.0465,-1.0283,-1.066,-1.0985,-1.125,-1.125,-1.0796,-1.0218,-1.0064,-0.9666,-0.9237,-0.9237,-0.9614,-0.9891,-0.9387,-0.951,-0.9792,-0.9718,-0.9453,-0.9487,-1.0516,-1.0796,-1.0654,-0.9971,-0.9993,-1.0132,-1.0134,-1.0741,-1.1066,-1.0588,-1.1467,-1.2131,-1.1837,-1.2379,-1.2831,-1.2891,-1.2905,-1.2905,-1.2905,-1.2905,-1.2584,-1.1864,-1.1316,-1.0712,-1.0038,-1.0012,-1.0312,-1.099,-1.0364,-1.0269,-1.0788,-1.0287,-0.9982,-0.988,-1.0128,-1.0788,-1.1789,-1.1266,-1.1708,-1.2944,-1.3801,-1.3795,-1.3249,-1.405,-1.3914,-1.3155,-1.2579,-1.2407,-1.2473,-1.2264,-1.2372,-1.2579,-1.0737,-1.0788,-1.0914,-1.1266,-1.104,-1.0686,-1.0364,-1.0038,-0.9562,-0.8883,-0.8804,-0.8804,-0.8804,-0.8804,-0.8804,-0.8804,-0.8804,-0.8804,-0.8804,-0.8935,-0.9095,-0.9302,-0.9453,-0.9642,-0.9832,-0.9402,-0.9586,-1.04,-1.0157,-1.0179,-1.0424,-1.11,-1.0916,-1.0095,-1.1133,-1.1069,-1.0214,-0.9991,-1.0083,-1.0333,-0.9723,-0.9668,-0.995,-1.0139,-1.0204,-1.0252,-1.0417,-1.0631,-1.0737,-1.044,-1.009,-0.9736,-0.9413,-0.9087,-0.8804,-0.8804,-0.9035,-0.9237,-0.891,-0.9061,-0.9413,-0.9725,-0.991,-1.0066,-1.0286,-1.0451,-1.0418,-0.9982,-1.0013,-1.0114,-1.0137,-1.0519,-1.0707,-1.0264,-1.0951,-1.1533,-1.1567,-1.2025,-1.2501,-1.2856,-1.2905,-1.2774,-1.2403,-1.2098,-1.1742,-1.1341,-1.099,-1.0644,-1.0287,-1.0287,-1.0593,-1.1266,-1.0312,-1.0115,-1.0788,-0.9814,-0.9309,-0.9335,-0.9961,-1.0644,-1.1316,-1.1291,-1.2021,-1.3348,-1.4014,-1.4261,-1.4257,-1.4373,-1.4281,-1.3947,-1.2838,-1.2609,-1.2822,-1.2309,-1.2143,-1.2118,-1.0338,-1.0466,-1.0491,-1.0618,-1.0542,-1.032,-0.9865,-0.9718,-0.9439,-0.8883,-0.8804,-0.8804,-0.8804,-0.8804,-0.8804,-0.8804,-0.8804,-0.8804,-0.8804,-0.8804,-0.8804,-0.8804,-0.8804,-0.8804,-0.8804,-0.8804,-0.924,-1.0132,-1.0052,-0.9769,-0.93,-0.991,-0.9837,-0.9194,-0.98,-1.0241,-1.0493,-0.9717,-0.9815,-1.0369,-0.9306,-0.9264,-0.9827,-0.9922,-1.0097,-1.0331,-1.0418,-1.0466,-1.0364,-0.9814,-0.964,-0.9536,-0.8982,-0.8804,-0.8804,-0.8804,-0.8804,-0.8804,-0.8804,-0.8844,-0.9098,-1.0031,-1.0498,-1.053,-0.9914,-0.991,-1.0071,-1.0171,-1.0194,-1.0267,-1.0546,-1.0593,-1.0492,-1.0167,-1.0484,-1.0854,-1.111,-1.1456,-1.1929,-1.2471,-1.2544,-1.2304,-1.169,-1.1141,-1.0737,-1.0644,-1.0644,-1.0593,-1.0466,-1.0568,-1.0889,-1.1441,-1.0389,-1.0064,-1.0618,-0.9413,-0.8857,-0.8982,-1.021,-1.0788,-1.0813,-1.1491,-1.2526,-1.3792,-1.3792,-1.4367,-1.5245,-1.428,-1.4194,-1.4511,-1.3019,-1.2755,-1.3156,-1.2188,-1.1916,-1.1971,-0.9061,-0.9087,-0.9263,-0.984,-0.9465,-0.9237,-0.9718,-0.9316,-0.891,-0.8804,-0.8804,-0.8804,-0.8804,-0.8804,-0.8804,-0.8804,-0.8804,-0.8804,-0.8804,-0.8804,-0.8804,-0.8804,-0.8804,-0.8804,-0.8804,-0.8804,-0.9138,-0.9849,-0.952,-0.9576,-1.0049,-1.0148,-0.9929,-0.9494,-1.0318,-1.0531,-1.0275,-1.0491,-1.0307,-0.9908,-0.973,-0.9083,-0.8276,-0.8799,-0.8696,-0.8369,-0.8875,-0.9087,-0.9061,-0.8962,-0.8929,-0.891,-0.8831,-0.8804,-0.8804,-0.8804,-0.8804,-0.8804,-0.8804,-0.8964,-0.9192,-0.9336,-0.9629,-0.9892,-1.003,-1.0814,-1.1321,-1.0676,-1.0533,-1.0546,-1.0586,-1.0593,-1.0492,-1.0167,-1.0631,-1.0915,-1.0499,-1.0979,-1.1307,-1.1116,-1.1074,-1.104,-1.0939,-1.0838,-1.0568,-0.9987,-0.9935,-0.9692,-0.9113,-0.9614,-0.9987,-1.0064,-0.9891,-0.984,-0.9935,-0.9185,-0.908,-0.9658,-1.044,-1.0788,-1.0813,-1.1491,-1.2526,-1.3792,-1.3792,-1.394,-1.4125,-1.3948,-1.3648,-1.3256,-1.3003,-1.2997,-1.3078,-1.2557,-1.2586,-1.2738,-0.8804,-0.8804,-0.8883,-0.9185,-0.9008,-0.891,-0.9185,-0.8982,-0.8804,-0.8804,-0.8804,-0.8804,-0.8804,-0.8804,-0.8804,-0.8804,-0.8804,-0.8804,-0.8804,-0.8804,-0.8804,-0.8804,-0.8804,-0.8804,-0.8804,-0.8804,-0.8936,-0.9237,-0.9078,-0.9051,-0.9195,-0.9346,-0.9425,-0.9478,-1.0157,-1.0688,-1.109,-1.1047,-1.0859,-1.054,-1.0178,-0.9685,-0.9221,-0.9482,-0.9335,-0.8941,-0.8841,-0.8804,-0.8804,-0.8804,-0.8804,-0.8804,-0.8804,-0.8804,-0.8804,-0.8804,-0.8898,-0.899,-0.8838,-0.8991,-0.9211,-0.9211,-0.9459,-0.976,-1.0053,-1.0643,-1.1021,-1.0681,-1.0593,-1.0593,-1.0593,-1.0593,-1.0546,-1.0388,-1.0779,-1.1027,-1.0775,-1.1076,-1.1173,-1.0837,-1.0466,-1.0244,-1.0244,-1.0031,-0.9883,-0.9803,-0.9597,-0.9439,-0.9375,-0.929,-0.9413,-0.9788,-0.9439,-0.9413,-0.9788,-0.9133,-0.9133,-0.9814,-1.0491,-1.099,-1.1391,-1.2089,-1.3112,-1.4283,-1.3956,-1.4198,-1.4795,-1.4126,-1.3892,-1.3895,-1.3215,-1.2806,-1.2619,-1.245,-1.2158,-1.189]},{"header":{"parameterUnit":"m.s-1","parameterCategory":1,"la1":30.6,"la2":28.766,"lo1":-90.7593,"lo2":-88.6598,"dy":0.0162,"dx":0.0183,"nx":116,"ny":114,"refTime":"2023-02-24T06:00:00:Z","depth":0,"parameterNumber":3,"parameterNumberName":"V-component_of_WINDS"},"data":[0.0,0.0,0.0,0.0,0.0,0.0,0.0,0.0,0.0,0.0,0.0,0.0,0.0,0.0,0.0,0.0,0.0,0.0,0.0,0.0,0.0,0.0,0.0,0.0,0.0,0.0,0.0,0.0,0.0,0.0,0.0,0.0,0.0,0.0,0.0,0.0,0.0,0.0,0.0,0.0,0.0,0.0,0.0,0.0,0.0,0.0,0.0,0.0,0.0,0.0,0.0,0.0,0.0,0.0,0.0,0.0,0.0,0.0,0.0,0.0,0.0,0.0,0.0,0.0,0.0,0.0,0.0,0.0,0.0,0.0,0.0,0.0,0.0,0.0,0.0,0.0,0.0,0.0,0.0,0.0,0.0,0.0,0.0,0.0,0.0,0.0,0.0,0.0,0.0,0.0,0.0,0.0,0.0,0.0,0.0,0.0,0.0,0.0,0.0,0.0,0.0,0.0,0.0,0.0,0.0,0.0,0.0,0.0,0.0,0.0,0.0,0.0,0.0,0.0,0.0,0.0,0.0,0.0,0.0,0.0,0.0,0.0,0.0,0.0,0.0,0.0,0.0,0.0,0.0,0.0,0.0,0.0,0.0,0.0,0.0,0.0,0.0,0.0,0.0,0.0,0.0,0.0,0.0,0.0,0.0,0.0,0.0,0.0,0.0,0.0,0.0,0.0,0.0,0.0,0.0,0.0,0.0,0.0,0.0,0.0,0.0,0.0,0.0,0.0,0.0,0.0,0.0,0.0,0.0,0.0,0.0,0.0,0.0,0.0,0.0,0.0,0.0,0.0,0.0,0.0,0.0,0.0,0.0,0.0,0.0,0.0,0.0,0.0,0.0,0.0,0.0,0.0,0.0,0.0,0.0,0.0,0.0,0.0,0.0,0.0,0.0,0.0,0.0,0.0,0.0,0.0,0.0,0.0,0.0,0.0,0.0,0.0,0.0,0.0,0.0,0.0,0.0,0.0,0.0,0.0,0.0,0.0,0.0,0.0,0.0,0.0,0.0,0.0,0.0,0.0,0.0,0.0,0.0,0.0,0.0,0.0,0.0,0.0,0.0,0.0,0.0,0.0,0.0,0.0,0.0,0.0,0.0,0.0,0.0,0.0,0.0,0.0,0.0,0.0,0.0,0.0,0.0,0.0,0.0,0.0,0.0,0.0,0.0,0.0,0.0,0.0,0.0,0.0,0.0,0.0,0.0,0.0,0.0,0.0,0.0,0.0,0.0,0.0,0.0,0.0,0.0,0.0,0.0,0.0,0.0,0.0,0.0,0.0,0.0,0.0,0.0,0.0,0.0,0.0,0.0,0.0,0.0,0.0,0.0,0.0,0.0,0.0,0.0,0.0,0.0,0.0,0.0,0.0,0.0,0.0,0.0,0.0,0.0,0.0,0.0,0.0,0.0,0.0,0.0,0.0,0.0,0.0,0.0,0.0,0.0,0.0,0.0,0.0,0.0,0.0,0.0,0.0,0.0,0.0,0.0,0.0,0.0,0.0,0.0,0.0,0.0,0.0,0.0,0.0,0.0,0.0,0.0,0.0,0.0,0.0,0.0,0.0,0.0,0.0,0.0,0.0,0.0,0.0,0.0,0.0,0.0,0.0,0.0,0.0,0.0,0.0,0.0,0.0,0.0,0.0,0.0,0.0,0.0,0.0,0.0,0.0,0.0,0.0,0.0,0.0,0.0,0.0,0.0,0.0,0.0,0.0,0.0,0.0,0.0,0.0,0.0,0.0,0.0,0.0,0.0,0.0,0.0,0.0,0.0,0.0,0.0,0.0,0.0,0.0,0.0,0.0,0.0,0.0,0.0,0.0,0.0,0.0,0.0,0.0,0.0,0.0,0.0,0.0,0.0,0.0,0.0,0.0,0.0,0.0,0.0,0.0,0.0,0.0,0.0,0.0,0.0,0.0,0.0,0.0,0.0,0.0,0.0,0.0,0.0,0.0,0.0,0.0,0.0,0.0,0.0,0.0,0.0,0.0,0.0,0.0,0.0,0.0,0.0,0.0,0.0,0.0,0.0,0.0,0.0,0.0,0.0,0.0,0.0,0.0,0.0,0.0,0.0,0.0,0.0,0.0,0.0,0.0,0.0,0.0,0.0,0.0,0.0,0.0,0.0,0.0,0.0,0.0,0.0,0.0,0.0,0.0,0.0,0.0,0.0,0.0,0.0,0.0,0.0,0.0,0.0,0.0,0.0,0.0,0.0,0.0,0.0,0.0,0.0,0.0,0.0,0.0,0.0,0.0,0.0,0.0,0.0,0.0,0.0,0.0,0.0,0.0,0.0,0.0,0.0,0.0,0.0,0.0,0.0,0.0,0.0,0.0,0.0,0.0,0.0,0.0,0.0,0.0,0.0,0.0,0.0,0.0,0.0,0.0,0.0,0.0,0.0,0.0,0.0,0.0,0.0,0.0,0.0,0.0,0.0,0.0,0.0,0.0,0.0,0.0,0.0,0.0,0.0,0.0,0.0,0.0,0.0,0.0,0.0,0.0,0.0,0.0,0.0,0.0,0.0,0.0,0.0,0.0,0.0,0.0,0.0,0.0,0.0,0.0,0.0,0.0,0.0,0.0,0.0,0.0,0.0,0.0,0.0,0.0,0.0,0.0,0.0,0.0,0.0,0.0,0.0,0.0,0.0,0.0,0.0,0.0,0.0,0.0,0.0,0.0,0.0,0.0,0.0,0.0,0.0,0.0,0.0,0.0,0.0,0.0,0.0,0.0,0.0,0.0,0.0,0.0,0.0,0.0,0.0,0.0,0.0,0.0,0.0,0.0,0.0,0.0,0.0,0.0,0.0,0.0,0.0,0.0,0.0,0.0,0.0,0.0,0.0,0.0,0.0,0.0,0.0,0.0,0.0,0.0,0.0,0.0,0.0,0.0,0.0,0.0,0.0,0.0,0.0,0.0,0.0,0.0,0.0,0.0,0.0,0.0,0.0,0.0,0.0,0.0,0.0,0.0,0.0,0.0,0.0,0.0,0.0,0.0,0.0,0.0,0.0,0.0,0.0,0.0,0.0,0.0,0.0,0.0,0.0,0.0,0.0,0.0,0.0,0.0,0.0,0.0,0.0,0.0,0.0,0.0,0.0,0.0,0.0,0.0,0.0,0.0,0.0,0.0,0.0,0.0,0.0,0.0,0.0,0.0,0.0,0.0,0.0,0.0,0.0,0.0,0.0,0.0,0.0,0.0,0.0,0.0,0.0,0.0,0.0,0.0,0.0,0.0,0.0,0.0,0.0,0.0,0.0,0.0,0.0,0.0,0.0,0.0,0.0,0.0,0.0,0.0,0.0,0.0,0.0,0.0,0.0,0.0,0.0,0.0,0.0,0.0,0.0,0.0,0.0,0.0,0.0,0.0,0.0,0.0,0.0,0.0,0.0,0.0,0.0,0.0,0.0,0.0,0.0,0.0,0.0,0.0,0.0,0.0,0.0,0.0,0.0,0.0,0.0,0.0,0.0,0.0,0.0,0.0,0.0,0.0,0.0,0.0,0.0,0.0,0.0,0.0,0.0,0.0,0.0,0.0,0.0,0.0,0.0,0.0,0.0,0.0,0.0,0.0,0.0,0.0,0.0,0.0,0.0,0.0,0.0,0.0,0.0,0.0,0.0,0.0,0.0,0.0,0.0,0.0,0.0,0.0,0.0,0.0,0.0,0.0,0.0,0.0,0.0,0.0,0.0,0.0,0.0,0.0,0.0,0.0,0.0,0.0,0.0,0.0,0.0,0.0,0.0,0.0,0.0,0.0,0.0,0.0,0.0,0.0,0.0,0.0,0.0,0.0,0.0,0.0,0.0,0.0,0.0,0.0,0.0,0.0,0.0,0.0,0.0,0.0,0.0,0.0,0.0,0.0,0.0,0.0,0.0,0.0,0.0,0.0,0.0,0.0,0.0,0.0,0.0,0.0,0.0,0.0,0.0,0.0,0.0,0.0,0.0,0.0,0.0,0.0,0.0,0.0,0.0,0.0,0.0,0.0,0.0,0.0,0.0,0.0,0.0,0.0,0.0,0.0,0.0,0.0,0.0,0.0,0.0,0.0,0.0,0.0,0.0,0.0,0.0,0.0,0.0,0.0,0.0,0.0,0.0,0.0,0.0,0.0,0.0,0.0,0.0,0.0,0.0,0.0,0.0,0.0,0.0,0.0,0.0,0.0,0.0,0.0,0.0,0.0,0.0,0.0,0.0,0.0,0.0,0.0,0.0,0.0,0.0,0.0,0.0,0.0,0.0,0.0,0.0,0.0,0.0,0.0,0.0,0.0,0.0,0.0,0.0,0.0,0.0,0.0,0.0,0.0,0.0,0.0,0.0,0.0,0.0,0.0,0.0,0.0,0.0,0.0,0.0,0.0,0.0,0.0,0.0,0.0,0.0,0.0,0.0,0.0,0.0,0.0,0.0,0.0,0.0,0.0,0.0,0.0,0.0,0.0,0.0,0.0,0.0,0.0,0.0,0.0,0.0,0.0,0.0,0.0,0.0,0.0,0.0,0.0,0.0,0.0,0.0,0.0,0.0,0.0,0.0,0.0,0.0,0.0,0.0,0.0,0.0,0.0,0.0,0.0,0.0,0.0,0.0,0.0,0.0,0.0,0.0,0.0,0.0,0.0,0.0,0.0,0.0,0.0,0.0,0.0,0.0,0.0,0.0,0.0,0.0,0.0,0.0,0.0,0.0,0.0,0.0,0.0,0.0,0.0,0.0,0.0,0.0,0.0,0.0,0.0,0.0,0.0,0.0,0.0,0.0,0.0,0.0,0.0,0.0,0.0,0.0,0.0,0.0,0.0,0.0,0.0,0.0,0.0,0.0,0.0,0.0,0.0,0.0,0.0,0.0,0.0,0.0,0.0,0.0,0.0,0.0,0.0,0.0,0.0,0.0,0.0,0.0,0.0,0.0,0.0,0.0,0.0,0.0,0.0,0.0,0.0,0.0,0.0,0.0,0.0,0.0,0.0,0.0,0.0,0.0,0.0,0.0,0.0,0.0,0.0,0.0,0.0,0.0,0.0,0.0,0.0,0.0,0.0,0.0,0.0,0.0,0.0,0.0,0.0,0.0,0.0,0.0,0.0,0.0,0.0,0.0,0.0,0.0,0.0,0.0,0.0,0.0,0.0,0.0,0.0,0.0,0.0,0.0,0.0,0.0,0.0,0.0,0.0,0.0,0.0,0.0,0.0,0.0,0.0,0.0,0.0,0.0,0.0,0.0,0.0,0.0,0.0,0.0,0.0,0.0,0.0,0.0,0.0,0.0,0.0,0.0,0.0,0.0,0.0,0.0,0.0,0.0,0.0,0.0,0.0,0.0,0.0,0.0,0.0,0.0,0.0,0.0,0.0,0.0,0.0,0.0,0.0,0.0,0.0,0.0,0.0,0.0,0.0,0.0,0.0,0.0,0.0,0.0,0.0,0.0,0.0,0.0,0.0,0.0,0.0,0.0,0.0,0.0,0.0,0.0,0.0,0.0,0.0,0.0,0.0,0.0,0.0,0.0,0.0,0.0,0.0,0.0,0.0,0.0,0.0,0.0,0.0,0.0,0.0,0.0,0.0,0.0,0.0,0.0,0.0,0.0,0.0,0.0,0.0,0.0,0.0,0.0,0.0,0.0,0.0,0.0,0.0,0.0,0.0,0.0,0.0,0.0,0.0,0.0,0.0,0.0,0.0,0.0,0.0,0.0,0.0,0.0,0.0,0.0,0.0,0.0,0.0,0.0,0.0,0.0,0.0,0.0,0.0,0.0,0.0,0.0,0.0,0.0,0.0,0.0,0.0,0.0,0.0,0.0,0.0,0.0,0.0,0.0,0.0,0.0,0.0,0.0,0.0,0.0,0.0,0.0,0.0,0.0,0.0,0.0,0.0,0.0,0.0,0.0,0.0,0.0,0.0,0.0,0.0,0.0,0.0,0.0,0.0,0.0,0.0,0.0,0.0,0.0,0.0,0.0,0.0,0.0,0.0,0.0,0.0,0.0,0.0,0.0,0.0,0.0,0.0,0.0,0.0,0.0,0.0,0.0,0.0,0.0,0.0,0.0,0.0,0.0,0.0,0.0,0.0,0.0,0.0,0.0,0.0,0.0,0.0,0.0,0.0,0.0,0.0,0.0,0.0,-0.4597,0.0,0.0,0.0,0.0,0.0,0.0,0.0,0.0,0.0,0.0,0.0,0.0,0.0,0.0,0.0,0.0,0.0,0.0,0.0,0.0,0.0,0.0,0.0,0.0,0.0,0.0,0.0,0.0,0.0,0.0,0.0,0.0,0.0,0.0,0.0,0.0,0.0,0.0,0.0,0.0,0.0,0.0,0.0,0.0,0.0,0.0,0.0,0.0,0.0,0.0,0.0,0.0,0.0,0.0,0.0,0.0,0.0,0.0,0.0,0.0,0.0,0.0,0.0,0.0,0.0,0.0,0.0,0.0,0.0,0.0,0.0,0.0,0.0,0.0,0.0,0.0,0.0,0.0,0.0,0.0,0.0,0.0,0.0,0.0,0.0,0.0,0.0,0.0,0.0,0.0,0.0,0.0,0.0,0.0,0.0,0.0,0.0,0.0,0.0,0.0,0.0,0.0,0.0,0.0,0.0,0.0,0.0,0.0,0.0,0.0,0.0,0.0,0.0,0.0,0.0,0.0,-0.4837,0.0,0.0,0.0,0.0,0.0,0.0,0.0,0.0,0.0,0.0,0.0,0.0,0.0,0.0,0.0,0.0,0.0,0.0,0.0,0.0,0.0,0.0,0.0,0.0,0.0,0.0,0.0,0.0,0.0,0.0,0.0,0.0,0.0,0.0,0.0,0.0,0.0,0.0,0.0,0.0,0.0,0.0,0.0,0.0,0.0,0.0,0.0,0.0,0.0,0.0,0.0,0.0,0.0,0.0,0.0,0.0,0.0,0.0,0.0,0.0,0.0,0.0,0.0,0.0,0.0,0.0,0.0,0.0,0.0,0.0,0.0,0.0,0.0,0.0,0.0,0.0,0.0,0.0,0.0,0.0,0.0,0.0,0.0,0.0,0.0,0.0,0.0,0.0,0.0,0.0,0.0,0.0,0.0,0.0,0.0,0.0,0.0,0.0,0.0,0.0,0.0,0.0,0.0,0.0,0.0,0.0,0.0,0.0,-0.543,-0.5534,-0.5625,-0.5387,-0.5372,-0.5435,-0.5078,-0.4879,-0.4795,-0.4591,0.0,0.0,0.0,0.0,0.0,0.0,0.0,0.0,0.0,0.0,0.0,0.0,0.0,0.0,0.0,0.0,0.0,0.0,0.0,0.0,0.0,0.0,0.0,0.0,0.0,0.0,0.0,0.0,0.0,0.0,0.0,0.0,0.0,0.0,0.0,0.0,0.0,0.0,0.0,0.0,0.0,0.0,0.0,0.0,0.0,0.0,0.0,0.0,0.0,0.0,0.0,0.0,0.0,0.0,0.0,0.0,0.0,0.0,0.0,0.0,0.0,0.0,0.0,0.0,0.0,0.0,0.0,0.0,0.0,0.0,0.0,0.0,0.0,0.0,0.0,0.0,0.0,0.0,0.0,0.0,0.0,0.0,0.0,0.0,0.0,0.0,0.2769,0.2536,0.0,0.0,0.0,0.0,0.0,0.0,0.0,0.0,0.0,0.0,0.0,0.0,0.0,-0.4574,-0.5501,-0.574,-0.5807,-0.5715,-0.5851,-0.5849,-0.571,-0.6013,-0.5997,-0.5736,-0.5447,0.0,-0.4869,-0.462,0.0,0.0,0.0,0.0,0.0,0.0,0.0,0.0,0.0,0.0,0.0,0.0,0.0,0.0,0.0,0.0,0.0,0.0,0.0,0.0,0.0,0.0,0.0,0.0,0.0,0.0,0.0,0.0,0.0,0.0,0.0,0.0,0.0,0.0,0.0,0.0,0.0,0.0,0.0,0.0,0.0,0.0,0.0,0.0,0.0,0.0,0.0,0.0,0.0,0.0,0.0,0.0,0.0,0.0,0.0,0.0,0.0,0.0,0.0,0.0,0.0,0.0,0.0,0.0,0.0,0.0,0.0,0.0,0.0,0.0,0.0,0.0,0.0,0.0,0.0,0.0,0.0,0.0,0.0,0.0,0.0,0.0,0.0,0.0,0.0,0.2606,0.1792,0.1717,0.0701,0.0,0.0,0.0,0.0,0.0,0.0,0.0,0.0,0.0,0.0,-0.1795,-0.2746,-0.3819,-0.4979,-0.526,-0.5356,-0.5302,-0.6074,-0.5966,-0.5036,-0.5922,-0.638,-0.6534,-0.6414,-0.6267,-0.6085,-0.5333,-0.5019,-0.5191,0.0,0.0,0.0,0.0,-0.8915,-0.9217,0.0,0.0,0.0,0.0,0.0,0.0,0.0,0.0,0.0,0.0,0.0,0.0,0.0,0.0,0.0,0.0,0.0,0.0,0.0,0.0,0.0,0.0,0.0,0.0,0.0,0.0,0.0,0.0,0.0,0.0,0.0,0.0,0.0,0.0,0.0,0.0,0.0,0.0,0.0,0.0,0.0,0.0,0.0,0.0,0.0,0.0,0.0,0.0,0.0,0.0,0.0,0.0,0.0,0.0,0.0,0.0,0.0,0.0,0.0,0.0,0.0,0.0,0.0,0.0,0.0,0.0,0.0,0.0,0.0,0.0,0.0,0.0,0.0,0.0,0.0,0.0,0.0,0.191,0.1203,0.1121,0.0436,0.0,0.0,0.0,0.0,0.0,0.0,0.0,0.0,-0.0734,-0.1189,-0.1241,-0.2357,-0.3442,-0.4478,-0.5224,-0.559,-0.5585,-0.6454,-0.6275,-0.5191,-0.6267,-0.693,-0.733,-0.7179,-0.7091,-0.7012,-0.6023,-0.564,-0.5632,-0.5521,-0.6373,-0.7699,-0.8216,-0.871,-0.9159,0.0,0.0,0.0,0.0,0.0,0.0,0.0,0.0,0.0,0.0,0.0,0.0,0.0,0.0,0.0,0.0,0.0,0.0,0.0,0.0,0.0,0.0,0.0,0.0,0.0,0.0,0.0,0.0,0.0,0.0,0.0,0.0,0.0,0.0,0.0,0.0,0.0,0.0,0.0,0.0,0.0,0.0,0.0,0.0,0.0,0.0,0.0,0.0,0.0,0.0,0.0,0.0,0.0,0.0,0.0,0.0,0.0,0.0,0.0,0.0,0.0,0.0,0.0,0.0,0.0,0.0,0.0,0.0,0.0,0.0,0.0,0.0,0.0,0.0,0.0,0.0,0.0,0.0,0.0,0.1118,0.0462,0.0,0.0,0.0,0.0,0.0,0.0,0.0,0.0,-0.0837,-0.1385,-0.1583,-0.3219,-0.4218,-0.4478,-0.6479,-0.7459,-0.7439,-0.7205,-0.7067,-0.6979,-0.7634,-0.793,-0.7924,-0.735,-0.7088,-0.7038,-0.6504,-0.6258,-0.6229,-0.5889,-0.6439,-0.7558,-0.857,-0.8914,-0.8908,0.0,0.0,0.0,0.0,0.0,0.0,0.0,0.0,0.0,0.0,0.0,0.0,0.0,0.0,0.0,0.0,0.0,0.0,0.0,0.0,0.0,0.0,0.0,0.0,0.0,0.0,0.0,0.0,0.0,0.0,0.0,0.0,0.0,0.0,0.0,0.0,0.0,0.0,0.0,0.0,0.0,0.0,0.0,0.0,0.0,0.0,0.0,0.0,0.0,0.0,0.0,0.0,0.0,0.0,0.0,0.0,0.0,0.0,0.0,0.0,0.0,0.0,0.0,0.0,0.0,0.0,0.0,0.0,0.0,0.0,0.0,0.0,0.0,0.0,0.0,0.0,0.0,0.0,0.0,0.1563,0.0678,0.0,0.1208,0.0488,0.0,0.0,0.0,0.0,0.0,-0.0311,-0.0497,-0.0568,-0.1187,-0.1533,-0.1608,-0.4034,-0.5288,-0.5286,-0.6938,-0.5883,-0.2658,-0.6331,-0.799,-0.7962,-0.7383,-0.7119,-0.7078,-0.6501,-0.6318,-0.6287,-0.6176,-0.6472,-0.7005,-0.7557,-0.8248,-0.8995,0.0,0.0,0.0,0.0,0.0,0.0,0.0,0.0,0.0,0.0,0.0,0.0,0.0,0.0,0.0,0.0,0.0,0.0,0.0,0.0,0.0,0.0,0.0,0.0,0.0,0.0,0.0,0.0,0.0,0.0,0.0,0.0,0.0,0.0,0.0,0.0,0.0,0.0,0.0,0.0,0.0,0.0,1.6767,0.0,0.0,0.0,0.0,0.0,0.0,0.0,0.0,0.0,0.0,0.0,0.0,0.0,0.0,0.0,0.0,0.0,0.0,0.0,0.0,0.0,0.0,0.0,0.0,0.0,0.0,0.0,0.0,0.0,0.0,0.0,0.0,0.0,0.0,0.0,0.1741,0.2635,0.2012,0.1642,0.2028,0.1253,0.0546,0.0046,0.0,0.0,0.0,0.0,0.0,0.0,0.0,0.0,0.0,-0.1768,-0.267,-0.2668,-0.4438,-0.3426,-0.0101,-0.3703,-0.5296,-0.535,-0.6558,-0.7109,-0.7075,-0.6659,-0.6463,-0.64,-0.6337,-0.638,-0.6518,-0.698,-0.7873,-0.8959,0.0,0.0,0.0,0.0,0.0,0.0,0.0,0.0,0.0,0.0,0.0,0.0,0.0,0.0,0.0,0.0,0.0,0.0,0.0,0.0,0.0,0.0,0.0,0.0,0.0,0.0,0.0,0.0,0.0,0.0,0.0,0.0,0.0,0.0,0.0,0.0,0.0,0.0,0.0,0.0,0.0,0.0,2.1216,0.0,0.0,0.0,0.0,0.0,0.0,0.0,0.0,0.0,0.0,0.0,0.0,0.0,0.0,0.0,0.0,0.0,0.0,0.0,0.0,0.0,0.0,0.0,0.0,0.0,0.0,0.0,0.0,0.0,0.0,0.0,0.0,0.0,0.4878,0.4496,0.4235,0.4255,0.4402,0.3898,0.2397,0.2207,0.1595,0.0101,0.0,0.0,0.0,0.0,0.0,0.0,0.0,0.0,0.0,0.0,0.0,0.0,0.0,0.0,0.0,0.0,0.0,-0.0283,-0.5014,-0.7073,-0.6993,-0.685,-0.6704,-0.6589,-0.638,-0.6173,-0.6108,-0.6945,-0.7848,-0.8849,0.0,0.0,0.0,0.0,0.0,0.0,0.0,0.0,0.0,0.0,0.0,0.0,0.0,0.0,0.0,0.0,0.0,0.0,0.0,0.0,0.0,0.0,0.0,0.0,0.0,0.0,0.0,0.0,0.0,0.0,0.0,0.0,0.0,0.0,0.0,0.0,0.0,0.0,0.0,0.0,0.0,0.0,2.2485,0.0,0.0,0.0,0.0,0.0,0.0,0.0,0.0,0.0,0.0,0.0,0.0,0.0,0.0,0.0,0.0,0.0,0.0,0.0,0.0,0.0,0.0,0.0,0.0,0.0,0.0,0.0,0.0,0.0,0.0,0.0,0.0,0.6169,0.4598,0.4424,0.4793,0.577,0.5066,0.4294,0.3715,0.2771,0.1581,0.0105,0.0,0.0,0.0,0.0,0.0,0.0,0.0,0.0,0.0,0.0,0.0,0.0,0.0,0.0,0.0,0.0,0.0,-0.0283,-0.5023,-0.6485,-0.5515,-0.6306,-0.6652,-0.664,-0.6488,-0.6364,-0.6235,-0.6499,-0.7505,-0.8975,0.0,0.0,0.0,0.0,0.0,0.0,0.0,0.0,0.0,0.0,0.0,0.0,0.0,0.0,0.0,0.0,0.0,0.0,0.0,0.0,0.0,0.0,0.0,0.0,0.0,0.0,0.0,0.0,0.0,0.0,0.0,0.0,0.0,0.0,0.0,0.0,0.0,0.0,0.0,0.0,0.0,0.0,2.5376,2.3747,2.3003,2.2538,2.0733,2.0207,2.0074,1.8295,0.0,0.0,0.0,0.0,0.0,0.0,0.0,0.0,0.0,0.0,0.0,0.0,0.0,0.0,0.0,0.0,0.0,0.0,0.0,0.0,0.0,0.0,0.0,0.0,0.7288,0.7283,0.6284,0.6233,0.6592,0.7392,0.6869,0.6188,0.5421,0.4602,0.328,0.1197,0.1189,0.0913,0.0053,0.0,0.0,0.0,0.0,0.0,0.0,0.0,0.0,0.0,0.0,0.0,0.0,0.0,0.0,0.0,-0.3644,-0.5023,-0.4849,-0.5635,-0.6244,0.0,0.0,0.0,0.0,0.0,-0.7422,-0.8305,0.0,0.0,0.0,0.0,0.0,0.0,0.0,0.0,0.0,0.0,0.0,0.0,0.0,0.0,0.0,0.0,0.0,0.0,0.0,0.0,0.0,0.0,0.0,0.0,0.0,0.0,0.0,0.0,0.0,0.0,0.0,0.0,0.0,0.0,0.0,0.0,0.0,0.0,0.0,0.0,0.0,0.0,2.8762,2.6753,2.6459,2.6822,2.4125,2.2794,2.2098,2.0844,0.0,0.0,0.0,0.0,0.0,0.0,0.0,0.0,0.0,0.0,0.0,0.0,0.0,0.0,0.0,0.0,0.0,0.0,0.0,0.0,0.0,0.0,0.0,0.0,0.7899,0.8268,0.8851,0.8872,0.8838,0.8915,0.91,0.8603,0.7052,0.6868,0.5625,0.2806,0.2652,0.1903,0.0107,0.0,0.0,0.0,0.0,0.0,0.0,0.0,0.0,0.0,0.0,0.0,0.0,0.0,0.0,-0.0095,-0.169,-0.327,-0.4676,-0.4971,-0.5712,-0.6647,-0.6409,-0.63,-0.6416,-0.7442,-0.7521,-0.7424,0.0,0.0,0.0,0.0,0.0,0.0,0.0,0.0,0.0,0.0,0.0,0.0,0.0,0.0,0.0,0.0,0.0,0.0,0.0,0.0,0.0,0.0,0.0,0.0,0.0,0.0,0.0,0.0,0.0,0.0,0.0,0.0,0.0,0.0,0.0,0.0,0.0,0.0,0.0,0.0,0.0,0.0,2.9528,2.8624,2.8161,2.7881,2.6495,2.5752,2.5218,2.3902,2.284,2.1745,1.9953,0.0,0.0,0.0,0.0,0.0,0.0,0.0,0.0,0.0,0.0,0.0,0.0,0.0,0.0,0.0,0.0,0.0,0.0,0.0,0.0,0.7702,0.8225,0.8747,0.9228,0.9269,0.9262,0.9293,0.932,0.8749,0.7232,0.668,0.548,0.3309,0.1572,0.0387,0.0,0.0,0.0,0.0,0.0,0.0,0.0,0.0,0.0,0.0,0.0,0.0,0.0,0.0,0.0,-0.0095,-0.1716,-0.2953,-0.392,-0.4752,-0.5658,-0.6538,-0.6368,-0.63,-0.6416,-0.7442,-0.7639,-0.767,0.0,0.0,0.0,0.0,0.0,0.0,0.0,0.0,0.0,0.0,0.0,0.0,0.0,0.0,0.0,0.0,0.0,0.0,0.0,0.0,0.0,0.0,0.0,0.0,0.0,0.0,0.0,0.0,0.0,0.0,0.0,0.0,0.0,0.0,0.0,0.0,0.0,0.0,0.0,0.0,0.0,0.0,2.9767,2.9478,2.9369,2.93,2.8196,2.7702,2.7353,2.5723,2.4682,2.3733,2.2109,2.0025,1.7895,0.0,0.0,0.0,0.0,0.0,0.0,0.0,0.0,0.0,0.0,0.0,0.0,0.0,0.0,1.0346,0.0,0.0,0.9078,0.9586,0.9334,0.915,0.9452,0.9557,0.9574,0.9503,0.9496,0.917,0.8329,0.8026,0.6976,0.498,0.3208,0.1612,0.0055,0.0,0.0,0.0,0.0,0.0,0.0,0.0,0.0,0.0,0.0,0.0,0.0,0.0,0.0,-0.0048,-0.0843,-0.211,-0.3706,-0.5282,-0.6175,-0.6566,-0.6385,-0.63,-0.6377,-0.6872,-0.6912,-0.6921,0.0,0.0,0.0,0.0,0.0,0.0,0.0,0.0,0.0,0.0,0.0,0.0,0.0,0.0,0.0,0.0,0.0,0.0,0.0,0.0,0.0,0.0,0.0,0.0,0.0,0.0,0.0,0.0,0.0,0.0,0.0,0.0,0.0,0.0,0.0,0.0,0.0,0.0,0.0,0.0,0.0,0.0,2.9792,2.9792,3.0131,3.0476,2.9379,2.8707,2.8122,2.678,2.5438,2.4236,2.3519,2.1926,2.0053,1.8725,1.763,0.0,0.0,0.0,0.0,0.0,0.0,0.0,0.0,0.0,1.264,1.2301,1.2602,1.2793,1.2268,1.1274,1.0653,1.105,1.0176,0.9479,0.9629,0.9727,0.9741,0.9625,0.9608,0.9551,0.9453,0.9412,0.8644,0.6979,0.5909,0.429,0.184,0.1731,0.122,0.0055,0.0,0.0,0.0,0.0,0.0,0.0,0.0,0.0,0.0,0.0,0.0,-0.0049,-0.052,-0.1805,-0.3758,-0.5901,-0.6753,-0.6675,-0.6446,-0.6323,-0.63,-0.63,-0.6162,-0.6118,0.0,0.0,0.0,0.0,0.0,0.0,0.0,0.0,0.0,0.0,0.0,0.0,0.0,0.0,0.0,0.0,0.0,0.0,0.0,0.0,0.0,0.0,0.0,0.0,0.0,0.0,0.0,0.0,0.0,0.0,0.0,0.0,0.0,0.0,0.0,0.0,0.0,0.0,0.0,0.0,0.0,0.0,2.9792,2.9792,3.0131,3.0505,2.9899,2.8222,2.6376,2.6827,2.5083,2.2876,2.3521,2.2621,2.1051,1.9644,0.0,1.6204,1.5135,1.4138,1.3262,1.2777,1.2656,1.3032,0.0,0.0,1.4386,1.4849,1.4528,1.3745,1.2592,1.1652,1.0712,0.9813,0.96,0.9635,0.9778,0.9767,0.9811,0.9793,0.9612,0.9488,0.9514,0.9316,0.9121,0.8894,0.8594,0.8242,0.792,0.7929,0.5456,0.0164,0.0,0.0,0.0,0.0,0.0,0.0,0.0,0.0,0.0,0.0,0.0,-0.0147,-0.239,-0.3466,-0.3767,-0.6088,-0.6936,-0.6681,-0.6555,-0.6412,-0.63,-0.63,-0.6162,-0.6118,0.0,0.0,0.0,0.0,0.0,0.0,0.0,0.0,0.0,0.0,0.0,0.0,0.0,0.0,0.0,0.0,0.0,0.0,0.0,0.0,0.0,0.0,0.0,0.0,0.0,0.0,0.0,0.0,0.0,0.0,0.0,0.0,0.0,0.0,0.0,0.0,0.0,0.0,0.0,0.0,0.0,0.0,2.9715,2.8813,2.8278,2.7998,2.7811,2.6826,0.0,0.0,2.3582,2.2778,2.2978,2.2269,2.107,1.9669,1.9075,0.0,1.6851,1.6309,1.5976,1.4963,1.5529,1.63,1.6389,1.6456,1.6394,1.6008,1.5967,1.5878,1.5527,1.3893,1.2519,0.0,1.0806,0.9724,0.97,0.9755,0.9713,0.9592,0.9317,0.9187,0.9296,0.9248,0.918,0.9049,0.8932,0.8902,0.8912,0.8903,0.6153,0.0163,0.0,0.0,0.0,0.0,0.0,0.0,0.0,0.0,0.0,0.0,0.0,-0.0147,-0.2587,-0.366,-0.3765,-0.6045,-0.6903,-0.681,-0.6566,-0.6474,-0.6412,-0.633,-0.6259,-0.6204,0.0,0.0,0.0,0.0,0.0,0.0,0.0,0.0,0.0,0.0,0.0,0.0,0.0,0.0,0.0,0.0,0.0,0.0,0.0,0.0,0.0,0.0,0.0,0.0,0.0,0.0,0.0,0.0,0.0,0.0,0.0,0.0,0.0,0.0,0.0,0.0,0.0,0.0,0.0,0.0,0.0,0.0,2.9029,2.7642,2.6318,2.5158,2.5156,2.4424,0.0,0.0,2.1346,2.1182,2.126,2.087,2.0135,1.8967,1.9192,1.9476,1.7904,1.7982,1.825,1.7138,1.8145,1.9209,1.8484,1.8379,1.8163,1.726,1.715,1.7158,1.7093,1.5108,1.3512,1.3505,1.1399,0.9727,0.9625,0.9679,0.9578,0.9314,0.8879,0.873,0.8833,0.9005,0.9064,0.8888,0.8885,0.8885,0.8885,0.8873,0.6845,0.2365,0.2201,0.1494,0.0,0.0,0.0,0.0,0.0,0.0,0.0,0.0,0.0,-0.0147,-0.2602,-0.3631,-0.3767,-0.6107,-0.698,-0.6844,-0.662,-0.6525,-0.6443,-0.6337,-0.63,-0.6262,0.0,0.0,0.0,0.0,0.0,0.0,0.0,0.0,0.0,0.0,0.0,0.0,0.0,0.0,0.0,0.0,0.0,0.0,0.0,0.0,0.0,0.0,0.0,0.0,0.0,0.0,0.0,0.0,0.0,0.0,0.0,0.0,0.0,0.0,0.0,0.0,0.0,0.0,0.0,0.0,0.0,0.0,2.7483,2.6563,2.4696,2.2537,2.2513,0.0,0.0,0.0,1.8365,1.7061,1.7932,1.823,0.0,1.7385,1.7461,0.0,0.0,0.0,1.8919,1.8752,1.981,2.0886,2.0712,2.019,1.9632,1.9179,1.8085,1.6899,1.5934,1.425,1.2791,1.2024,1.0606,0.9615,0.9608,0.947,0.9279,0.8957,0.8394,0.8006,0.0,0.8581,0.8896,0.8875,0.8885,0.8885,0.8885,0.8873,0.8565,0.7768,0.7751,0.528,0.005,0.0,0.0,0.0,0.0,0.0,0.0,0.0,0.0,-0.0147,-0.2689,-0.3726,-0.3774,-0.6344,-0.7102,-0.6705,-0.6698,-0.6519,-0.6306,-0.6303,-0.63,-0.6276,0.0,0.0,0.0,0.0,0.0,0.0,0.0,0.0,0.0,0.0,0.0,0.0,0.0,0.0,0.0,0.0,0.0,0.0,0.0,0.0,0.0,0.0,0.0,0.0,0.0,0.0,0.0,0.0,0.0,0.0,0.0,0.0,0.0,0.0,0.0,0.0,0.0,0.0,0.0,0.0,0.0,0.0,2.5777,2.3868,2.2081,2.0391,0.0,0.0,0.0,0.0,0.0,0.0,1.6344,0.0,0.0,1.5672,0.0,0.0,0.0,0.0,2.2218,2.2268,2.3444,2.4097,2.2215,2.1644,2.0778,1.8352,1.7336,1.6702,1.6189,1.4859,1.3535,1.2514,1.1402,1.0396,0.9489,0.9364,0.9253,0.8965,0.8381,0.0,0.0,0.0,0.0,0.8889,0.89,0.889,0.8878,0.8913,0.8598,0.801,0.7995,0.713,0.5325,0.5284,0.3521,0.0,0.0,0.0,0.0,0.0,0.0,-0.0098,-0.1739,-0.2883,-0.3724,-0.5398,-0.6367,-0.6844,-0.6742,-0.6576,-0.6429,-0.6334,-0.63,-0.6262,0.0,0.0,0.0,0.0,0.0,0.0,0.0,0.0,0.0,0.0,0.0,0.0,0.0,0.0,0.0,0.0,0.0,0.0,0.0,0.0,0.0,0.0,0.0,0.0,0.0,0.0,0.0,0.0,0.0,0.0,0.0,0.0,0.0,0.0,0.0,0.0,0.0,0.0,0.0,0.0,0.0,0.0,2.2063,2.0181,1.8537,0.0,0.0,0.0,0.0,0.0,0.0,0.0,0.0,0.0,0.0,0.0,0.0,0.0,0.0,2.1819,2.4031,2.4104,2.5084,2.5377,2.279,2.19,2.0836,1.8281,1.6927,1.6213,1.6126,1.4437,1.2936,1.2578,1.1244,0.9957,0.919,0.9264,0.9269,0.8923,0.8355,0.7986,0.0,0.0,0.0,0.8592,0.8764,0.8893,0.8878,0.8907,0.8719,0.8348,0.8111,0.7977,0.7992,0.8002,0.5539,0.0704,0.0252,0.0,0.0,0.0,0.0,-0.0049,-0.1292,-0.2481,-0.3685,-0.4893,-0.5973,-0.6837,-0.6739,-0.6576,-0.6426,-0.6334,-0.63,-0.6265,0.0,0.0,0.0,0.0,0.0,0.0,0.0,0.0,0.0,0.0,0.0,0.0,0.0,0.0,0.0,0.0,0.0,0.0,0.0,0.0,0.0,0.0,0.0,0.0,0.0,0.0,0.0,0.0,0.0,0.0,0.0,0.0,0.0,0.0,0.0,0.0,0.0,0.0,0.0,0.0,0.0,0.0,1.6747,1.5906,0.0,0.0,0.0,0.0,0.0,0.0,0.0,0.0,0.0,0.0,0.0,0.0,0.0,1.8045,2.0519,2.2749,2.4297,2.413,2.47,2.4704,2.2534,2.1076,1.9926,1.8775,1.6822,1.5411,0.0,0.0,1.1211,1.2178,1.0151,0.8552,0.8838,0.9213,0.9315,0.0,0.0,0.0,0.0,0.0,0.0,0.8056,0.0,0.8875,0.8885,0.8913,0.8885,0.8921,0.832,0.8009,0.7993,0.7982,0.5992,0.2012,0.0706,0.005,0.0,0.0,0.0,-0.0048,-0.119,-0.2416,-0.3703,-0.4821,-0.5881,-0.6702,-0.6702,-0.6522,-0.63,-0.63,-0.63,-0.6279,0.0,0.0,0.0,0.0,0.0,0.0,0.0,0.0,0.0,0.0,0.0,0.0,0.0,0.0,0.0,0.0,0.0,0.0,0.0,0.0,0.0,0.0,0.0,0.0,0.0,0.0,0.0,0.0,0.0,0.0,0.0,0.0,0.0,0.0,0.0,0.0,0.0,0.0,0.0,0.0,0.0,0.0,1.4442,0.0,0.0,0.0,0.0,0.0,0.0,0.0,0.0,0.0,0.0,1.3169,1.3119,1.3913,1.5884,1.8085,1.9526,2.1677,2.358,2.3812,2.3888,2.3365,2.1219,1.9956,1.8696,1.6651,1.5293,1.4376,1.4186,0.0,0.0,1.1528,1.0887,0.0,0.8758,0.9255,0.0,0.8947,0.0,0.9356,0.9357,0.8937,0.0,0.0,0.8811,0.8876,0.8878,0.8903,0.8889,0.8874,0.8738,0.8481,0.7999,0.7979,0.6139,0.2509,0.1811,0.0958,0.0,0.0,0.0,0.0,-0.0333,-0.1673,-0.3614,-0.3927,-0.5091,-0.6702,-0.6702,-0.6522,-0.63,-0.63,-0.63,-0.6279,0.0,0.0,0.0,0.0,0.0,0.0,0.0,0.0,0.0,0.0,0.0,0.0,0.0,0.0,0.0,0.0,0.0,0.0,0.0,0.0,0.0,0.0,0.0,0.0,0.0,0.0,0.0,0.0,0.0,0.0,0.0,0.0,0.0,0.0,0.0,0.0,0.0,0.0,0.0,0.0,0.0,0.0,0.0,0.0,0.0,0.0,0.0,0.0,0.0,0.0,0.0,1.3223,1.4032,1.4067,1.3948,1.4796,1.6554,1.8494,1.9683,2.1544,2.3157,2.2895,2.2498,2.1642,1.9462,1.8189,1.6973,1.499,1.4135,1.3607,1.3307,1.22,1.1251,0.0,0.0,0.0,0.8775,0.8855,0.9085,0.0,0.9586,0.0,0.9781,0.9465,0.9163,0.0,0.8896,0.8903,0.8878,0.8885,0.8917,0.8908,0.8659,0.834,0.7992,0.8012,0.6695,0.4114,0.2663,0.1611,0.0857,0.025,0.0,0.0,0.0,-0.1061,-0.2858,-0.3392,-0.4526,-0.5945,-0.6491,-0.6522,-0.63,-0.63,-0.63,-0.6269,0.0,0.0,0.0,0.0,0.0,0.0,0.0,0.0,0.0,0.0,0.0,0.0,0.0,0.0,0.0,0.0,0.0,0.0,0.0,0.0,0.0,0.0,0.0,0.0,0.0,0.0,0.0,0.0,0.0,0.0,0.0,0.0,0.0,0.0,0.0,0.0,0.0,0.0,0.0,0.0,0.0,0.0,0.0,0.0,0.0,0.0,0.0,0.0,0.0,0.0,1.2689,1.3701,1.4909,1.5067,1.4977,1.6112,1.7506,1.8926,2.019,2.1634,2.2506,2.1533,2.0848,1.975,1.7596,1.6286,1.5158,1.3773,1.326,1.2953,1.2717,1.1145,1.0124,1.074,0.0,0.7827,0.8814,0.8564,0.8627,0.9647,0.9774,0.9821,0.9821,0.9724,0.9446,0.8957,0.8917,0.8885,0.8885,0.8885,0.892,0.8879,0.8328,0.8004,0.7992,0.8008,0.7403,0.6234,0.3569,0.2163,0.1961,0.0594,0.0,0.0,0.0,0.0,-0.1879,-0.3081,-0.4144,-0.5048,-0.6245,-0.6532,-0.6327,-0.6306,-0.63,-0.6262,0.0,0.0,0.0,0.0,0.0,0.0,0.0,0.0,0.0,0.0,0.6693,0.7264,0.0,0.0,0.0,0.0,0.0,0.0,0.0,0.0,0.0,0.0,0.0,0.0,0.0,0.0,0.0,0.0,0.0,0.0,0.0,0.0,0.0,0.0,0.0,0.0,0.0,0.0,0.0,0.0,0.0,0.0,0.0,0.0,0.0,0.0,0.0,0.0,0.0,0.0,1.3575,1.4426,1.5167,1.5671,1.6152,1.7081,1.7955,1.8707,1.941,1.9986,2.0282,1.9856,1.9116,1.8136,1.678,1.5371,0.0,1.3146,1.2509,1.212,1.2067,1.1457,1.1202,1.1948,0.9729,0.8231,0.9172,0.9393,0.958,0.0,0.9802,0.9785,0.9785,0.9357,0.0,0.0,0.8917,0.8885,0.8885,0.8885,0.8879,0.8899,0.8342,0.8011,0.7992,0.7992,0.7902,0.7612,0.4924,0.3065,0.1961,0.0594,0.0,0.0,0.0,0.0,-0.1879,-0.3081,-0.4176,-0.5192,-0.6283,-0.659,-0.646,-0.6344,-0.63,-0.6293,0.0,0.0,0.0,0.0,0.0,0.0,0.0,0.1767,0.2702,0.3855,0.4178,0.4934,0.6582,0.7264,0.0,0.0,0.0,0.0,0.0,0.0,0.0,0.0,0.0,0.0,0.0,0.0,0.0,0.0,0.0,0.0,0.0,0.0,0.0,0.0,0.0,0.0,0.0,0.0,0.0,0.0,0.0,0.0,0.0,0.0,0.0,0.0,0.0,0.0,0.0,0.0,1.3206,1.4233,1.5471,1.6046,1.648,1.7522,1.8023,1.8404,1.9165,1.9466,1.9506,1.9212,1.835,1.7275,1.6086,0.0,0.0,1.2509,1.198,1.1683,1.1873,1.1395,1.1221,1.1931,1.0915,0.9705,0.8785,0.9299,0.9788,0.9782,0.9778,0.9795,0.978,0.9513,0.9228,0.8915,0.8887,0.8885,0.8885,0.892,0.8885,0.8923,0.8292,0.7988,0.7992,0.7988,0.7995,0.7955,0.5979,0.432,0.3012,0.1662,0.0673,0.0,0.0,0.0,-0.0941,-0.2165,-0.2907,-0.3435,-0.5103,-0.5678,-0.5635,-0.6126,-0.63,-0.6289,0.0,0.0,0.0,0.0,0.0,0.0,0.0,0.0649,0.1421,0.2207,0.2294,0.2988,0.4868,0.5557,0.5925,0.0,0.0,0.0,0.0,0.0,0.0,0.0,0.0,0.0,0.0,0.0,0.0,0.0,0.0,0.0,0.0,0.0,0.0,0.0,0.0,0.0,0.0,0.0,0.0,0.0,0.0,0.0,0.0,0.0,0.0,0.0,0.0,0.0,0.0,0.0,1.2335,1.3513,1.519,1.5925,1.6386,1.7396,1.7876,1.8303,1.9138,1.9412,1.9372,1.9011,1.8029,1.6878,1.5585,1.4168,1.2859,1.1993,1.159,1.1496,1.173,1.1428,1.1339,0.0,1.2121,1.1569,0.989,0.9617,0.9654,0.9803,0.9825,0.0,0.9815,0.9662,0.0,0.8828,0.8826,0.0,0.8831,0.8832,0.8792,0.8713,0.8223,0.7988,0.7992,0.7988,0.7988,0.7988,0.6631,0.5275,0.3961,0.2612,0.1285,0.0,0.0,0.0,0.0,-0.1313,-0.1759,-0.1853,-0.4052,-0.4843,-0.4839,-0.564,-0.6103,-0.624,0.0,0.0,0.0,0.0,0.0,0.0,0.0,0.0738,0.162,0.254,0.256,0.2343,0.2046,0.2967,0.3865,0.0,0.0,0.0,0.0,0.0,0.0,0.0,0.0,0.0,0.0,0.0,0.0,0.0,0.0,0.0,0.0,0.0,0.0,0.0,0.0,0.0,0.0,0.0,0.0,0.0,0.0,0.0,0.0,0.0,0.0,0.0,0.0,0.0,0.0,0.0,0.0,1.2288,1.3453,1.4752,1.5951,1.664,1.7595,1.8584,1.9256,1.9559,1.9626,1.9065,1.8029,1.6824,1.5377,0.0,1.2576,1.165,1.1409,1.1395,1.1429,1.1837,1.2418,1.3227,0.0,1.3555,1.4891,1.1564,0.9176,0.972,0.0,0.0,0.9822,0.932,0.8881,0.8569,0.8525,0.0,0.8558,0.8551,0.8418,0.8087,0.8013,0.7988,0.7992,0.7988,0.7988,0.7988,0.6631,0.5275,0.3961,0.2612,0.1285,0.0,0.0,0.0,0.0,-0.1313,-0.1774,-0.1979,-0.4076,-0.4892,-0.4871,-0.4844,-0.5473,-0.6141,0.0,0.0,0.0,0.0,0.0,0.0,-0.1426,-0.0269,0.0647,0.1021,0.1028,0.0892,0.0674,0.1038,0.1613,0.0,0.0,0.0,0.0,0.0,0.0,0.0,0.0,0.0,0.0,0.0,0.0,0.0,0.0,0.0,0.0,0.0,0.0,0.0,0.0,0.0,0.0,0.0,0.0,0.0,0.0,0.0,0.0,0.0,0.0,0.0,0.0,0.0,0.0,0.0,0.0,0.0,1.1957,1.306,0.0,0.0,1.6767,1.7622,1.8577,1.9185,1.9399,1.8811,1.7769,1.6547,1.5303,0.0,1.2368,1.1804,1.1276,1.1069,1.1597,1.1618,1.1919,0.0,0.0,0.0,1.4566,1.1054,0.8597,0.9165,0.9258,0.0,0.0,0.0,0.8355,0.8404,0.8441,0.0,0.8393,0.8393,0.8284,0.8009,0.8022,0.7999,0.7988,0.7988,0.7988,0.7988,0.7434,0.609,0.3998,0.3463,0.2031,0.0,0.0,0.0,0.0,-0.0516,-0.0718,-0.0873,-0.2331,-0.3292,-0.3799,-0.3763,-0.4411,-0.517,0.0,0.0,0.0,0.0,0.0,-0.2188,-0.2209,-0.0954,0.0,0.0,0.0,0.0,0.0,0.0,0.0214,0.074,0.2213,0.0,0.0,0.0,0.0,0.0,0.0,0.0,0.0,0.0,0.8708,0.7658,0.7457,0.0,0.0,0.0,0.0,0.0,0.0,0.0,0.0,0.0,0.0,0.0,0.0,0.0,0.0,0.0,0.0,0.0,0.0,0.0,0.0,0.0,0.0,0.0,0.0,0.0,0.0,0.0,1.5712,1.6667,1.7689,1.839,1.88,1.8323,1.7261,1.6032,1.4995,0.0,1.2064,1.1725,1.1223,1.1002,1.1623,1.1592,1.1732,0.0,0.0,1.2603,1.3458,1.1084,0.9555,1.0349,0.0,0.8919,0.0,0.8352,0.81,0.8275,0.0,0.0,0.8208,0.8204,0.815,0.7994,0.7995,0.7988,0.7988,0.7988,0.7988,0.7988,0.7988,0.6764,0.4541,0.4168,0.2725,0.0508,0.0135,0.0,0.0,0.0,0.0,-0.0122,-0.1187,-0.2035,-0.2657,-0.2657,-0.331,-0.4079,0.0,0.0,0.0,0.0,0.0,0.0,-0.2209,-0.0949,0.0,0.0,0.0,0.0,0.0,0.0,0.0,0.0,0.1537,0.0,0.0,0.0,0.0,0.0,0.0,0.0,0.0,0.0,0.8519,0.7116,0.7364,0.6688,0.5096,0.5096,0.0,0.0,0.0,0.0,0.0,0.0,0.0,0.0,0.0,0.0,0.0,0.0,0.0,0.0,0.0,0.0,0.0,0.0,0.0,0.0,0.0,0.0,0.0,0.0,1.4426,1.5917,1.656,1.7154,1.7602,1.7595,1.6493,1.5177,1.4295,1.2985,1.1745,1.1122,1.1223,1.1382,1.1395,1.1904,1.23,1.2286,0.0,0.0,1.2314,1.2284,1.2694,0.0,0.0,0.8887,0.8896,0.833,0.8064,0.8272,0.0,0.0,0.7992,0.7992,0.7992,0.7992,0.7988,0.7988,0.7988,0.7988,0.7988,0.7988,0.7988,0.7211,0.5756,0.455,0.3196,0.0,0.0,0.0,0.0,0.0,0.0,-0.0122,-0.1187,-0.1607,-0.1607,-0.1607,-0.2236,-0.298,0.0,0.0,0.0,0.0,0.0,0.0,0.0,-0.0953,0.0,0.0,0.0,0.0,0.0,0.0,0.0,0.0,0.0,0.0,0.0,0.0,0.0,0.0,0.0,0.0,0.0,0.0,0.912,0.7717,0.8176,0.7557,0.5898,0.5688,0.5589,0.5579,0.0,0.0,0.0,0.0,0.0,0.0,0.0,0.0,0.0,0.0,0.0,0.0,0.0,0.0,0.0,0.0,0.0,0.0,0.0,0.0,0.0,0.0,0.0,0.0,1.5357,1.5939,1.6339,1.6139,1.5438,1.4569,1.3687,1.2652,1.1739,1.1189,1.0948,1.0967,1.1322,1.1261,1.1403,1.2179,0.0,0.0,0.0,0.0,0.0,0.9568,1.1838,1.2188,0.0,0.0,1.0613,0.8263,0.0,0.0,0.8038,0.8871,0.897,0.8038,0.7988,0.7988,0.7988,0.7988,0.7988,0.7988,0.7988,0.7211,0.5789,0.5422,0.396,0.0,0.0,0.0,0.0,0.0,0.0,-0.004,-0.0393,-0.0941,-0.1525,-0.077,-0.1542,-0.2721,0.0,0.0,0.0,0.0,0.0,0.0,0.0,-0.0936,0.0,0.0,0.0,0.0,0.0,0.0,0.0,0.0,0.0,0.0,0.0,0.0,0.0,0.0,0.0,0.0,0.0,0.8507,0.8622,0.7587,0.8097,0.7656,0.6378,0.6203,0.602,0.5793,0.561,0.0,0.0,0.0,0.0,0.0,0.0,0.0,0.5464,0.0,0.0,0.0,0.0,0.0,0.0,0.0,0.0,0.0,0.0,0.0,0.0,0.0,0.0,0.0,0.0,1.4643,1.4918,1.4776,1.4202,0.0,1.2859,1.2098,1.1437,1.1001,1.0846,1.0853,1.1067,1.1169,1.1484,1.2166,1.269,0.0,0.0,0.0,0.0,0.9266,0.0,0.0,0.0,1.1943,1.1962,0.0,0.0,0.0,0.8821,0.9998,1.0092,0.8775,0.8775,0.8531,0.7988,0.7988,0.7961,0.7904,0.7904,0.7405,0.6377,0.5909,0.4543,0.0,0.0,0.0,0.0,0.0,0.0,0.0,0.0,-0.039,-0.0927,-0.0228,-0.0781,-0.1633,0.0,0.0,0.0,0.0,0.0,0.0,0.0,-0.0904,0.0,0.0,0.0,0.0,0.0,0.0,0.0,0.0,0.0,0.0,0.0,0.0,0.0,0.0,0.0,0.0,0.6039,0.7033,0.7344,0.6968,0.7417,0.7274,0.6579,0.6671,0.642,0.5864,0.583,0.5647,0.5402,0.5545,0.5599,0.5588,0.5575,0.5576,0.0,0.0,0.0,0.0,0.0,0.0,0.0,0.0,0.0,0.0,0.0,0.0,0.0,0.0,0.0,0.0,0.0,0.0,0.0,0.0,0.0,0.0,0.0,0.0,0.0,1.0653,1.0846,1.0969,1.0653,1.1471,1.2199,1.2161,1.327,0.0,0.0,1.4352,0.0,0.0,1.2082,0.0,1.3031,1.3256,0.0,0.0,0.0,0.0,1.0194,1.1361,1.1453,1.0173,1.0124,0.944,0.8021,0.7975,0.7897,0.7794,0.7794,0.7641,0.7353,0.6162,0.4855,0.0,0.0,0.0,0.0,0.0,0.0,0.0,0.0,0.0,0.0,0.0,-0.0074,-0.0181,0.0,0.0,0.0,0.0,0.0,0.0,0.0,0.0,0.0,0.0,0.0,0.0,0.0,0.0,0.0,0.0,0.0,0.0,0.0,0.0,0.0,0.0,0.0,0.0,0.6316,0.7455,0.7845,0.7451,0.7962,0.787,0.7204,0.7075,0.6841,0.6474,0.6129,0.5745,0.5395,0.5433,0.5453,0.546,0.5449,0.5456,0.0,0.0,0.0,0.0,0.5395,0.5395,0.0,0.0,0.0,0.0,0.0,0.0,0.0,0.0,1.0532,0.0,0.0,0.0,0.0,0.0,0.0,0.0,0.0,0.0,0.0,0.0,0.0,0.0,0.0,1.0817,1.1009,1.1002,0.0,1.3992,1.3703,1.4922,0.0,1.278,1.3921,1.4094,1.2068,1.3898,0.0,0.0,0.0,1.2861,1.1507,1.2716,1.2726,1.1206,1.1254,1.021,0.7865,0.7865,0.779,0.7648,0.7648,0.7489,0.7149,0.6073,0.4793,0.0,0.0,0.0,0.0,0.0,0.0,0.0,0.0,0.0,0.0,0.0,-0.0888,-0.1861,0.0,0.0,0.0,0.0,0.0,0.0,0.0,0.0,0.0,0.0,0.0,0.0,0.0,0.0,0.0,0.0,0.0,0.0,0.0,0.0,0.0,0.0,0.0,0.5868,0.594,0.6709,0.7131,0.7204,0.7586,0.7741,0.757,0.7421,0.7119,0.6675,0.6088,0.5654,0.5399,0.547,0.546,0.5399,0.5474,0.0,0.0,0.0,0.0,0.0,0.5395,0.5395,0.0,0.5552,0.5597,0.5734,0.0,0.0,0.0,0.0,1.0133,0.0,0.0,0.0,0.0,0.0,0.0,0.0,0.0,0.0,0.0,0.0,0.0,0.0,0.0,0.0,1.0764,0.0,1.2663,0.0,0.0,0.0,1.4743,1.4009,1.4935,1.5059,0.0,0.0,0.0,0.0,0.0,1.3992,1.265,1.3737,1.374,1.224,1.1734,1.0524,0.8507,0.7947,0.7641,0.7495,0.7424,0.7223,0.6954,0.5881,0.4598,0.0,0.0,0.0,0.0,0.0,0.0,0.0,0.0,0.0,0.0,0.0,-0.0876,-0.1909,0.0,0.0,0.0,0.0,0.0,0.0,0.0,0.0,0.0,0.0,0.0,0.0,0.0,0.0,0.0,0.0,0.0,0.0,0.0,0.0,0.0,0.0,0.0,0.5378,0.5463,0.5674,0.6084,0.6664,0.6956,0.7305,0.7757,0.7648,0.7278,0.6637,0.5983,0.5603,0.5405,0.5559,0.5535,0.5405,0.5535,0.0,0.0,0.0,0.0,0.0,0.0,0.0,0.0,0.565,0.5735,0.5874,0.6612,0.0,0.0,0.0,0.0,0.0,0.0,0.0,0.0,0.0,0.0,0.0,0.0,0.0,0.0,0.0,0.0,0.0,0.0,1.073,0.0,0.0,0.0,0.0,1.4663,1.453,1.4563,1.5311,1.5438,0.0,1.5745,0.0,0.0,0.0,0.0,1.4851,1.3716,1.4533,1.4456,1.3222,1.2039,1.0778,0.9403,0.8144,0.7441,0.7313,0.7136,0.6867,0.6554,0.5374,0.4186,0.3001,0.0,0.0,0.0,0.0,0.0,0.0,0.0,-0.0071,-0.0209,-0.0174,-0.0832,-0.1722,0.0,0.0,0.0,0.0,0.0,0.0,0.0,0.0,0.0,0.0,0.0,0.0,0.0,0.0,0.0,0.0,0.0,0.0,0.0,0.0,0.0,0.0,0.3811,0.4708,0.5728,0.5779,0.6034,0.6549,0.6892,0.7234,0.7482,0.7667,0.7334,0.6538,0.63,0.5897,0.5405,0.5559,0.5535,0.5395,0.5423,0.0,0.0,0.0,0.0,0.0,0.0,0.0,0.0,0.5446,0.5463,0.5497,0.5628,0.0,0.0,0.0,0.0,0.0,1.0396,1.0982,1.1296,0.0,0.0,0.0,0.0,0.0,0.0,0.0,0.0,0.0,0.0,1.1376,1.1919,0.0,0.0,1.4269,0.0,0.0,1.5244,1.5384,0.0,1.5685,0.0,0.0,0.0,0.0,0.0,1.4985,1.4753,1.4894,1.4685,1.393,1.2764,1.1379,0.9815,0.8075,0.7075,0.6803,0.678,0.6229,0.5154,0.4074,0.2942,0.1795,0.0,0.0185,0.0,0.0,0.0,0.0,0.0,-0.0442,-0.1078,-0.0988,-0.205,-0.3642,0.0,0.0,0.0,0.0,0.0,0.0,0.0,0.0,0.0,0.0,0.0,0.0,0.0,0.0,0.0,0.0,0.0,0.0,0.0,0.0,0.0,0.2002,0.2976,0.4267,0.5885,0.6007,0.6331,0.684,0.7021,0.7336,0.7722,0.7531,0.7037,0.6385,0.6153,0.5853,0.5518,0.5504,0.5494,0.5498,0.0,0.0,0.0,0.0,0.0,0.0,0.0,0.0,0.0,0.0,0.5518,0.5518,0.5518,0.0,0.0,0.0,0.0,0.0,0.9899,1.0546,1.0855,0.0,0.0,0.0,0.0,0.0,0.0,0.0,0.0,0.0,0.0,0.0,1.2096,1.2525,0.0,1.4329,1.5089,1.5164,1.5217,0.0,0.0,0.0,0.0,0.0,0.0,0.0,0.0,0.0,1.4502,1.4335,1.4055,1.3627,1.2464,1.1381,1.0401,0.8434,0.7159,0.6576,0.6413,0.6025,0.5452,0.4306,0.3247,0.2253,0.0,0.043,0.0,0.0,0.0,0.0,0.0,-0.0519,-0.1408,-0.2257,-0.3044,-0.3791,0.0,0.0,0.0,0.0,0.0,0.0,0.0,0.0,0.0,0.0,0.0,0.0,0.0,0.0,0.0,0.0,0.0,0.0,0.0,0.0,0.0421,0.133,0.2513,0.3932,0.5529,0.6044,0.6615,0.7232,0.7204,0.7423,0.7874,0.7341,0.6778,0.6286,0.5976,0.5735,0.5532,0.5484,0.5496,0.5531,0.0,0.0,0.0,0.0,0.0,0.0,0.0,0.0,0.0,0.0,0.0,0.0,0.0,0.0,0.0,0.0,0.7558,0.851,0.9249,0.997,1.0419,0.0,0.0,0.0,0.0,0.0,0.0,0.0,0.0,0.0,0.0,1.1228,0.0,1.3313,1.3848,1.4289,1.4928,1.5068,1.5169,1.5277,1.5297,0.0,0.0,0.0,0.0,0.0,0.0,0.0,1.3895,1.3594,1.326,1.3006,1.2084,1.1268,1.0607,0.9047,0.7715,0.662,0.616,0.5828,0.5563,0.4613,0.3691,0.2803,0.1761,0.0938,0.0275,0.0099,0.0,0.0,0.0,-0.0622,-0.1703,-0.3421,-0.3878,-0.3768,0.0,0.0,0.0,0.0,0.0,0.0,0.0,0.0,0.0,0.0,0.0,0.0,0.0,0.0,0.0,0.0,0.0,0.0,0.0,0.0,0.0459,0.1527,0.2752,0.3695,0.4312,0.5605,0.6734,0.766,0.7465,0.7476,0.7611,0.7121,0.6702,0.6293,0.6088,0.5776,0.5419,0.5552,0.5525,0.5428,0.5395,0.0,0.0,0.0,0.0,0.0,0.0,0.0,0.0,0.0,0.0,0.0,0.0,0.0,0.0,0.0,0.0,0.7742,0.8463,0.9394,1.011,1.0019,1.0726,0.0,1.118,1.2531,0.0,1.1676,0.0,0.0,0.0,1.1256,1.1824,1.3046,1.3721,1.4289,1.4928,0.0,1.5277,1.5068,0.0,0.0,0.0,0.0,0.0,0.0,0.0,0.0,1.328,1.3018,1.271,1.2378,1.2032,1.1265,0.9968,0.9713,0.8724,0.7033,0.6219,0.5309,0.4331,0.4251,0.3654,0.2659,0.1712,0.1257,0.1134,0.0323,0.0,0.0,0.0,-0.0879,-0.234,-0.4148,-0.465,-0.4442,0.0,0.0,0.0,0.0,0.0,0.0,0.0,0.0,0.0,0.0,0.0,0.0,0.0,0.0,0.0,0.0,0.0,0.0,0.0,0.0,0.0187,0.0575,0.2387,0.366,0.4167,0.6022,0.7245,0.7782,0.7593,0.752,0.7486,0.6926,0.651,0.6296,0.5926,0.5711,0.5627,0.5535,0.5552,0.562,0.547,0.5395,0.0,0.0,0.0,0.0,0.0,0.0,0.0,0.0,0.0,0.0,0.0,0.0,0.0,0.0,0.0,0.6497,0.7572,0.8293,0.8883,0.9489,1.0275,0.0,0.0,1.2461,1.3104,1.1538,1.1612,0.0,0.0,0.0,1.2091,1.3247,1.3821,1.4289,1.4928,1.5102,1.5129,0.0,0.0,0.0,0.0,0.0,0.0,0.0,0.0,0.0,1.2652,1.2402,1.21,1.1764,1.1476,1.1008,1.0352,0.9548,0.8742,0.789,0.6739,0.5888,0.5305,0.4938,0.421,0.3232,0.2499,0.1784,0.1126,0.0338,0.0,-0.006,-0.0599,-0.1377,-0.234,-0.3626,-0.4266,-0.4498,0.0,0.0,0.0,0.0,0.0,0.0,0.0,0.0,0.0,0.0,0.0,0.0,0.0,0.0,0.0,0.0,0.0,0.0,0.0,0.0,0.0,0.0,0.1871,0.3247,0.3999,0.588,0.7053,0.7473,0.744,0.7392,0.725,0.6671,0.6398,0.635,0.5886,0.573,0.5852,0.5559,0.5556,0.5717,0.5477,0.5395,0.0,0.0,0.0,0.0,0.0,0.0,0.0,0.0,0.0,0.0,0.0,0.0,0.0,0.0,0.0,0.0,0.6266,0.7306,0.8406,0.0,0.0,0.0,1.1344,1.2337,1.2838,1.184,1.1913,1.2077,1.1785,0.0,0.0,0.0,1.3494,1.3955,1.4355,1.4489,0.0,0.0,0.0,0.0,0.0,0.0,0.0,0.0,0.0,0.0,0.0,1.1651,1.135,1.0989,1.0728,1.0488,1.0318,0.9485,0.8824,0.8334,0.717,0.6389,0.5966,0.5323,0.4665,0.3967,0.3043,0.2211,0.1453,0.0415,0.0,-0.0087,-0.0926,-0.1482,-0.1959,-0.2833,-0.3411,-0.3763,0.0,0.0,0.0,0.0,0.0,0.0,0.0,0.0,0.0,0.0,0.0,0.0,0.0,0.0,0.0,0.0,0.0,0.0,0.0,0.0,0.0,0.0,0.1155,0.2364,0.355,0.4896,0.6012,0.6816,0.7003,0.7034,0.6867,0.6475,0.637,0.6479,0.6012,0.5859,0.5983,0.5714,0.5603,0.5601,0.5465,0.5395,0.5375,0.0,0.0,0.0,0.0,0.0,0.0,0.0,0.0,0.0,0.0,0.0,0.0,0.0,0.4692,0.4837,0.4563,0.6578,0.8964,0.0,0.0,0.0,1.1458,1.2312,1.2885,1.2806,1.2315,1.1777,1.1483,1.1395,0.0,1.1859,1.2619,1.32,1.3206,0.0,0.0,0.0,0.0,0.0,0.0,0.0,0.0,0.0,0.0,0.0,0.0,1.074,1.0445,1.012,0.9833,0.9708,0.9708,0.9708,0.9176,0.8189,0.7452,0.6711,0.5958,0.5245,0.4884,0.4823,0.3193,0.2504,0.2375,0.0676,0.0,-0.0084,-0.0811,-0.109,-0.1202,-0.1925,-0.2202,-0.2202,0.0,0.0,0.0,0.0,0.0,0.0,0.0,0.0,0.0,0.0,0.0,0.0,0.0,0.0,0.0,0.0,0.0,0.0,0.0,0.0,0.0,0.0,0.106,0.2065,0.2958,0.4808,0.6125,0.6866,0.6731,0.6667,0.6616,0.6245,0.6095,0.6136,0.5885,0.5767,0.571,0.5549,0.5501,0.5593,0.5559,0.5488,0.5375,0.0,0.0,0.0,0.0,0.0,0.0,0.0,0.0,0.0,0.0,0.0,0.0,0.0,0.4549,0.4612,0.4512,0.5128,0.629,0.842,0.0,0.0,0.0,1.1858,0.0,0.0,1.1971,1.1597,1.1717,0.0,0.0,1.2091,1.2398,1.2645,0.0,0.0,0.0,0.0,0.0,0.0,0.0,0.0,0.0,0.0,0.0,0.0,0.0,1.01,0.993,0.9813,0.9526,0.9344,0.9344,0.9165,0.8659,0.7841,0.71,0.6354,0.5631,0.5024,0.4701,0.4545,0.3119,0.2423,0.2181,0.0625,0.0,-0.0028,-0.0252,-0.0643,-0.1118,-0.1341,-0.1758,-0.2202,0.0,0.0,0.0,0.0,0.0,0.0,0.0,0.0,0.0,0.0,0.0,0.0,0.0,0.0,0.0,0.0,0.0,0.0,0.0,0.0,0.0,0.0,0.0615,0.1571,0.2818,0.4798,0.6002,0.6369,0.6281,0.6233,0.6217,0.6061,0.6091,0.6287,0.619,0.6085,0.5956,0.573,0.5644,0.5671,0.5605,0.5534,0.5457,0.0,0.0,0.0,0.0,0.0,0.0,0.0,0.0,0.0,0.0,0.0,0.0,0.4487,0.4491,0.4512,0.4491,0.5094,0.6006,0.736,0.8804,1.0163,1.1325,0.0,0.0,0.0,1.2104,1.1757,1.1703,1.155,0.0,1.1744,1.1877,1.1977,0.0,0.0,0.0,0.0,0.0,0.0,0.0,0.0,0.0,0.0,0.0,0.0,0.0,0.9606,0.9452,0.9339,0.9138,0.9038,0.9038,0.8891,0.8289,0.7262,0.6804,0.6068,0.5085,0.478,0.458,0.4411,0.2991,0.2132,0.1675,0.0476,0.0,0.0,0.0,-0.028,-0.0671,-0.0671,-0.0754,-0.092,0.0,0.0,0.0,0.0,0.0,0.0,0.0,0.0,0.0,0.0,0.0,0.0,0.0,0.0,0.0,0.0,0.0,0.0,0.0,0.0,0.0,0.0,0.0169,0.1147,0.3025,0.4823,0.5674,0.5548,0.5677,0.5732,0.5755,0.5921,0.6252,0.6739,0.6764,0.6682,0.6516,0.6162,0.5966,0.5817,0.5644,0.561,0.5612,0.5231,0.0,0.0,0.0,0.0,0.0,0.0,0.0,0.0,0.0,0.0,0.4491,0.4491,0.4453,0.4419,0.4487,0.5909,0.7245,0.6728,0.8814,0.0,1.1739,1.2281,1.2663,1.2663,0.0,1.2058,1.1489,1.1349,1.1269,1.1035,1.1169,0.0,0.0,0.0,0.0,0.0,0.0,0.0,0.0,0.0,0.0,0.0,0.0,0.0,0.0,0.9302,0.918,0.8818,0.8857,0.8857,0.8804,0.8804,0.8103,0.0,0.6642,0.5909,0.4598,0.4515,0.446,0.4322,0.2843,0.1786,0.1062,0.0364,0.0112,0.0112,0.0112,0.0112,0.0112,0.0112,0.0532,0.1006,0.0,0.0,0.0,0.0,0.0,0.0,0.0,0.0,0.0,0.0,0.0,0.0,0.0,0.0,0.0,0.0,0.0,0.0,0.0,0.0,0.0,0.0,0.1474,0.2423,0.2766,0.4553,0.535,0.5046,0.5181,0.5332,0.5504,0.5825,0.6414,0.7171,0.7353,0.7195,0.6793,0.6444,0.6169,0.5935,0.5588,0.5696,0.5997,0.5359,0.5013,0.0,0.0,0.0,0.0,0.0,0.0,0.0,0.4491,0.4491,0.4491,0.4491,0.4158,0.3907,0.4375,0.5455,0.0,0.714,0.9156,1.1089,1.1443,1.1623,1.171,1.171,1.1622,1.1542,1.1415,1.1056,1.0834,1.0969,0.0,0.0,0.0,0.0,0.0,0.0,0.0,0.0,0.0,0.0,0.0,0.0,0.0,0.0,0.969,1.0171,0.9941,0.8837,0.9309,0.9335,0.8811,0.8804,0.8348,0.0,0.6885,0.615,0.5273,0.4732,0.4153,0.3511,0.2591,0.1786,0.109,0.0923,0.0866,0.0866,0.0866,0.0866,0.0866,0.0866,0.095,0.109,0.0,0.0,0.0,0.0,0.0,0.0,0.0,0.0,0.0,0.0,0.0,0.0,0.0,0.0,0.0,0.0,0.0,0.0,0.0,0.0,0.0,0.0,0.1447,0.2379,0.2586,0.3934,0.469,0.4809,0.5139,0.5588,0.6123,0.6877,0.7587,0.818,0.8214,0.7916,0.7408,0.7076,0.6818,0.6568,0.601,0.6067,0.6394,0.5452,0.4999,0.4823,0.4574,0.0,0.0,0.0,0.0,0.0,0.0,0.0,0.4491,0.4491,0.4269,0.4061,0.4216,0.0,0.0,0.8094,0.0,1.0902,1.1295,1.1069,1.0809,1.0982,1.1122,1.1176,1.1035,1.0648,1.0354,1.0399,0.0,0.0,0.0,0.0,0.0,0.0,0.0,0.0,0.0,0.0,0.0,0.0,0.0,1.0644,1.0287,1.032,1.0141,0.9762,0.9484,0.9316,0.929,0.8956,0.8427,0.7696,0.6966,0.6041,0.5003,0.4653,0.4267,0.3818,0.3065,0.2508,0.212,0.1786,0.1576,0.1503,0.1222,0.1052,0.1013,0.1084,0.1312,0.1619,0.0,0.0,0.0,0.0,0.0,0.0,0.0,0.0,0.0,0.0,0.0,0.0,0.0,0.0,0.0,0.0,0.0,0.0,0.0,0.0,0.0,0.0,0.1025,0.1889,0.2478,0.335,0.4092,0.472,0.5362,0.6191,0.7199,0.8032,0.8712,0.9209,0.9055,0.8663,0.8154,0.7767,0.7539,0.7289,0.6454,0.6463,0.6815,0.5545,0.4941,0.4783,0.4563,0.4491,0.4491,0.4491,0.0,0.0,0.0,0.0,0.4491,0.4491,0.447,0.4429,0.436,0.0,0.7225,0.9086,0.9988,0.0,1.1015,1.0561,1.0114,1.0392,1.0633,1.0695,1.0486,1.0167,0.9857,0.0,0.0,0.0,0.0,0.0,0.0,0.0,0.0,0.0,0.0,0.0,0.0,0.0,0.0,1.1124,1.099,1.0568,1.0474,1.0788,0.984,0.9458,0.9788,0.9237,0.8613,0.7883,0.702,0.5932,0.468,0.4543,0.4491,0.446,0.3649,0.3314,0.3259,0.2649,0.2298,0.2133,0.1517,0.1205,0.1096,0.1242,0.1675,0.2232,0.0,0.0,0.0,0.0,0.0,0.0,0.0,0.0,0.0,0.0,0.0,0.0,0.0,0.0,0.0,0.0,0.0,0.0,0.0,0.0,0.0,0.0,0.102,0.1878,0.2476,0.3353,0.4131,0.4781,0.5848,0.7027,0.8296,0.7979,0.8477,0.9616,0.936,0.9096,0.8846,0.8317,0.7942,0.7538,0.6325,0.6549,0.7394,0.5541,0.4817,0.4775,0.4581,0.4491,0.4491,0.4491,0.4491,0.0,0.0,0.0,0.4491,0.4491,0.4375,0.4433,0.5377,0.0,0.825,0.0,0.9741,0.9849,0.0,0.0,0.9753,0.0,0.9863,0.9876,0.9836,0.9559,0.9317,0.0,0.0,0.0,0.0,0.0,0.0,0.0,0.0,0.0,0.0,0.0,0.0,0.0,1.227,1.2353,1.169,1.2197,1.1974,1.0838,1.1191,1.0889,0.9814,0.971,0.9335,0.8646,0.7262,0.6172,0.5351,0.4759,0.4491,0.446,0.3707,0.3345,0.3287,0.3204,0.3063,0.2903,0.2285,0.1969,0.1867,0.2012,0.212,0.2286,0.0,0.0,0.0,0.0,0.0,0.0,0.0,0.0,0.0,0.0,0.0,0.0,0.0,0.0,0.0,0.0,0.0,0.0,0.0,0.0,0.0,0.0,0.0443,0.1214,0.2323,0.2713,0.3475,0.4622,0.5656,0.6606,0.7456,0.8914,1.0094,1.0899,1.0282,0.9869,0.957,0.8858,0.8462,0.8221,0.7264,0.6947,0.0,0.0,0.0,0.0,0.4539,0.4488,0.4491,0.4512,0.4491,0.4491,0.4491,0.0,0.0,0.0,0.4447,0.4446,0.4854,0.6247,0.7672,0.0,0.8767,0.9479,0.9646,0.9426,0.9239,0.9399,0.8963,0.8642,0.8827,0.8577,0.8221,0.0,0.0,0.0,0.0,0.0,0.0,0.0,0.0,0.0,0.0,0.0,0.0,0.0,1.2725,1.2774,1.2427,1.232,1.2197,1.1974,1.15,1.1141,1.0914,1.0192,0.9242,0.8182,0.7101,0.6199,0.5483,0.4696,0.4385,0.4491,0.4153,0.4012,0.3984,0.3984,0.3839,0.3539,0.2943,0.2362,0.1957,0.2417,0.2425,0.2356,0.0,0.0,0.0,0.0,0.0,0.0,0.0,0.0,0.0,0.0,0.0,0.0,0.0,0.0,0.0,0.0,0.0,0.0,0.0,0.0,0.0,0.0,0.0,0.0684,0.2172,0.22,0.2943,0.4491,0.5198,0.6184,0.7427,0.9584,1.1012,1.1759,1.0955,1.0385,0.996,0.9198,0.8891,0.8824,0.802,0.0,0.0,0.0,0.0,0.0,0.0,0.0,0.0,0.0,0.0,0.0,0.0,0.4491,0.0,0.0,0.0,0.4734,0.0,0.0,0.6973,0.6929,0.7994,0.9124,0.0,0.0,0.907,0.0,0.8352,0.7728,0.7782,0.758,0.0,0.0,0.0,0.0,0.0,0.0,0.0,0.0,0.0,0.0,0.0,0.0,0.0,0.0,1.2905,1.2856,1.2725,1.2184,1.2113,1.2549,1.1634,1.1302,1.1636,1.0418,0.9268,0.8217,0.7122,0.6312,0.5756,0.4835,0.4513,0.4647,0.4701,0.4596,0.4436,0.4624,0.4437,0.3929,0.329,0.2643,0.2098,0.2729,0.2719,0.2599,0.0,0.0,0.0,0.0,0.0,0.0,0.0,0.0,0.0,0.0,0.0,0.0,0.0,0.0,0.0,0.0,0.0,0.0,0.0,0.0,0.0,0.0,0.0,0.0,0.2181,0.2209,0.2959,0.4491,0.0,0.0,0.9531,0.9316,1.0015,1.1389,1.0861,1.0271,0.9686,0.0,0.0,0.0,0.0,0.0,0.0,0.0,0.0,0.0,0.0,0.0,0.0,0.0,0.0,0.0,0.0,0.0,0.0,0.0,0.0,0.0,0.0,0.6009,0.0,0.7166,0.7997,0.0,0.0,0.0,0.0,0.8956,0.8221,0.7482,0.682,0.6674,0.0,0.0,0.0,0.0,0.0,0.0,0.0,0.0,0.0,0.0,0.0,0.0,0.0,0.0,1.2905,1.2695,1.2262,1.2186,1.2015,1.1685,1.1973,1.1841,1.1241,1.0281,0.9762,0.9658,0.7593,0.6588,0.6497,0.5514,0.5068,0.5076,0.521,0.4853,0.426,0.4958,0.477,0.392,0.3196,0.28,0.2678,0.299,0.3074,0.3199,0.0,0.0,0.0,0.0,0.0,0.0,0.0,0.0,0.0,0.0,0.0,0.0,0.0,0.2949,0.2371,0.1842,0.0,0.0,0.0,0.0,0.0,0.0,0.0,0.0,0.0,0.1895,0.0,0.0,0.0,0.5598,0.7733,0.8409,0.907,0.976,1.0133,1.016,0.992,0.9217,0.0,0.0,0.0,0.0,0.0,0.0,0.0,0.0,0.0,0.0,0.0,0.0,0.0,0.0,0.0,0.0,0.0,0.0,0.0,0.0,0.0,0.0,0.0,0.6592,0.7266,0.7903,0.8315,0.8653,0.8823,0.8607,0.7717,0.6892,0.6534,0.6163,0.0,0.0,0.0,0.0,0.0,0.0,0.0,0.0,0.0,0.0,0.0,0.0,0.0,0.0,0.0,1.2695,1.2233,1.2836,1.2986,1.2459,1.2953,1.2707,1.1607,1.1247,1.0636,0.9788,0.8534,0.7481,0.6578,0.5952,0.5419,0.5019,0.5794,0.5888,0.5474,0.5246,0.4984,0.4639,0.3993,0.336,0.2887,0.3471,0.3482,0.3342,0.0,0.0,0.0,0.0,0.0,0.0,0.0,0.0,0.0,0.0,0.0,0.0,0.0,0.0,0.3147,0.2382,0.1798,0.0,0.0,0.0,0.0,0.0,0.0,0.0,0.0,0.0,0.0,0.0,0.0,0.0,0.0,0.773,0.8419,0.9119,0.9599,0.979,0.0,0.0,0.0,0.8918,0.0,0.0,0.8971,0.0,0.0,0.0,0.0,0.0,0.0,0.0,0.0,0.0,0.0,0.0,0.0,0.0,0.0,0.0,0.4345,0.0,0.0,0.0,0.0,0.7534,0.8114,0.0,0.8636,0.8293,0.724,0.6369,0.6273,0.5742,0.0,0.0,0.0,0.0,0.0,0.0,0.0,0.0,0.0,0.0,0.0,0.0,0.0,0.0,0.0,0.0,1.2857,1.3494,1.3617,1.2993,1.3172,1.2914,1.2187,1.1922,1.1241,1.0115,0.9155,0.7931,0.6516,0.6342,0.5833,0.516,0.6265,0.6435,0.5933,0.5553,0.5257,0.496,0.4357,0.3767,0.3327,0.3864,0.4023,0.3997,0.0,0.0,0.0,0.0,0.0,0.0,0.0,0.0,0.0,0.0,0.0,0.0,0.0,0.0,0.0,0.2609,0.2363,0.1927,0.1174,0.0,0.0,0.0,0.0,0.0,0.0,0.0,0.0,0.0,0.0,0.0,0.0,0.0,0.8,0.9646,0.9324,0.9198,0.9198,0.0,0.9198,0.9178,0.0,0.9039,0.9329,0.0,0.0,0.0,0.8938,0.8348,0.0,0.7723,0.0,0.0,0.0,0.0,0.0,0.0,0.0,0.0,0.0,0.0,0.0,0.0,0.0,0.0,0.7838,0.0,0.9099,0.8109,0.6887,0.601,0.6019,0.5409,0.0,0.0,0.0,0.0,0.0,0.0,0.0,0.0,0.0,0.0,0.0,0.0,0.0,0.0,1.4205,1.397,1.409,1.409,1.3795,1.3164,1.2538,1.2428,1.2905,1.2187,1.1491,1.0813,0.9433,0.7964,0.6473,0.673,0.6365,0.5585,0.656,0.6439,0.5559,0.5884,0.559,0.489,0.4278,0.4029,0.4018,0.4173,0.4666,0.5205,0.0,0.0,0.0,0.0,0.0,0.0,0.0,0.0,0.0,0.0,0.0,0.0,0.4559,0.4451,0.4103,0.337,0.3254,0.2833,0.1955,0.2091,0.212,0.1898,0.2091,0.0,0.0,0.0,0.0,0.0,0.0,0.0,0.0,0.0,0.0,0.0,0.8965,0.8898,0.8898,0.8898,0.0,0.8891,0.8838,0.8858,0.0,0.0,0.0,0.0,0.0,0.8672,0.8507,0.0,0.7996,0.7262,0.0,0.0,0.0,0.0,0.0,0.0,0.4491,0.0,0.0,0.0,0.0,0.0,0.0,0.0,0.0,0.8013,0.7051,0.6316,0.6409,0.0,0.0,0.0,0.0,0.0,0.0,0.0,0.0,0.0,0.0,0.0,0.0,0.0,0.0,0.0,1.4407,1.4373,1.4112,1.3947,1.3995,1.4247,1.3236,1.2778,1.2905,1.2691,1.2236,1.1516,1.0645,0.9369,0.7772,0.7643,0.7066,0.6191,0.6754,0.6834,0.6591,0.6585,0.6357,0.5923,0.5313,0.4688,0.4176,0.4348,0.4535,0.4756,0.0,0.0,0.0,0.0,0.0,0.0,0.0,0.0,0.0,0.0,0.0,0.0,0.4657,0.4785,0.4644,0.4112,0.4074,0.3671,0.271,0.2982,0.301,0.2704,0.2982,0.3314,0.3622,0.0,0.0,0.0,0.0,0.0,0.0,0.0,0.0,0.0,0.0,0.0,0.0,0.0,0.0,0.0,0.8804,0.0,0.0,0.8851,0.8858,0.0,0.0,0.0,0.8804,0.8804,0.8315,0.0,0.0,0.0,0.0,0.0,0.0,0.0,0.0,0.0,0.0,0.0,0.0,0.0,0.738,0.7888,0.8036,0.0,0.6698,0.6105,0.607,0.0,0.0,0.0,0.0,0.0,0.0,0.0,0.0,0.0,0.0,0.0,0.0,1.2792,1.3238,1.439,1.4647,1.474,1.4725,1.413,1.3956,1.4306,1.3406,1.2905,1.2905,1.2905,1.2525,1.1789,1.1116,0.9888,0.8207,0.7989,0.7376,0.6514,0.6847,0.7146,0.7348,0.7163,0.6812,0.6381,0.6074,0.5383,0.4598,0.4837,0.4921,0.4976,0.0,0.0,0.0,0.0,0.0,0.0,0.0,0.0,0.0,0.0,0.4858,0.4779,0.4948,0.5019,0.4972,0.4738,0.4701,0.4336,0.3491,0.4098,0.4211,0.3541,0.4153,0.4491,0.4491,0.0,0.0,0.0,0.0,0.0,0.0,0.0,0.0,0.0,0.0,0.0,0.0,0.0,0.0,0.8804,0.8804,0.8938,0.0,0.0,0.8938,0.9131,0.8871,0.8804,0.8804,0.8804,0.8374,0.0,0.0,0.0,0.0,0.0,0.6199,0.0,0.0,0.0,0.0,0.0,0.0,0.0,0.7696,0.7927,0.7759,0.6914,0.6267,0.5771,0.5531,0.0,0.0,0.0,0.0,0.0,0.0,0.0,0.0,0.0,0.0,0.0,1.2278,1.232,1.2987,1.477,1.4834,1.4995,1.5475,1.4434,1.3792,1.3792,1.3214,1.2905,1.2905,1.2905,1.2559,1.1922,1.1241,1.0,0.8358,0.8146,0.7591,0.6755,0.6995,0.7386,0.7832,0.7638,0.7102,0.6452,0.6618,0.6065,0.5207,0.5412,0.5471,0.5458,0.0,0.0,0.0,0.0,0.0,0.0,0.0,0.0,0.0,0.0,0.5306,0.4975,0.5279,0.5087,0.4908,0.4877,0.4762,0.4569,0.4276,0.4405,0.4436,0.4294,0.4436,0.4491,0.4491,0.4491,0.0,0.0,0.0,0.0,0.0,0.0,0.0,0.0,0.0,0.0,0.0,0.0,0.0,0.8804,0.8804,0.0,0.8858,0.8831,0.8844,0.8884,0.8831,0.8804,0.8804,0.8804,0.8699,0.8619,0.0,0.0,0.0,0.7482,0.0,0.0,0.0,0.0,0.0,0.0,0.0,0.0,0.7699,0.8209,0.8425,0.0,0.7195,0.6782,0.6676,0.636,0.0,0.0,0.0,0.0,0.0,0.0,0.0,0.0,0.0,0.0,1.1795,1.1949,1.262,1.4151,1.454,1.4767,1.488,1.419,1.3792,1.3792,1.3214,1.2905,1.2905,1.2905,1.2832,1.2691,1.1956,1.1025,0.9931,0.9376,0.8563,0.7648,0.7706,0.7675,0.7591,0.7762,0.7393,0.6746,0.7039,0.6537,0.5655,0.5548,0.5369,0.5291,0.0,0.0,0.0,0.0,0.0,0.0,0.0,0.0,0.0,0.0,0.6352,0.5823,0.5879,0.5364,0.4935,0.4816,0.4735,0.4655,0.0,0.4491,0.4491,0.4491,0.4956,0.4983,0.4519,0.4956,0.0,0.0,0.0,0.0,0.0,0.0,0.0,0.0,0.0,0.0,0.0,0.0,0.8804,0.8804,0.8804,0.0,0.8804,0.8804,0.8804,0.8804,0.8804,0.8804,0.8804,0.8804,0.8804,0.0,0.8804,0.8533,0.8182,0.0,0.7423,0.6993,0.0,0.0,0.0,0.6605,0.0,0.0,0.0,0.8326,0.8424,0.7822,0.7348,0.6909,0.6431,0.0,0.0,0.0,0.0,0.0,0.0,0.0,0.0,0.0,0.0,0.0,1.0952,1.1266,1.2017,1.3477,1.3988,1.426,1.426,1.3671,1.3348,1.3348,1.3065,1.2905,1.2905,1.2905,1.2905,1.2881,1.1807,1.097,1.0381,0.9719,0.8849,0.7923,0.811,0.7927,0.7491,0.7475,0.7238,0.6953,0.7405,0.6639,0.5308,0.5707,0.5348,0.4834,0.0,0.0,0.0,0.0,0.0,0.0,0.0,0.0,0.0,0.8072,0.7441,0.6891,0.6736,0.5998,0.5459,0.5288,0.5154,0.0,0.0,0.4943,0.4897,0.4897,0.5641,0.5668,0.4928,0.5637,0.5719,0.0,0.0,0.0,0.0,0.0,0.0,0.0,0.0,0.0,0.0,0.0,0.0,0.8804,0.0,0.8804,0.8804,0.8804,0.8804,0.8804,0.8804,0.8804,0.8804,0.8804,0.8804,0.8804,0.8804,0.8804,0.0,0.0,0.0,0.0,0.0,0.0,0.0,0.0,0.0,0.8021,0.0,0.0,0.0,0.7779,0.7402,0.0,0.0,0.0,0.0,0.0,0.0,0.0,0.0,0.0,0.0,0.0,0.0,0.0,0.0,1.0513,1.1245,1.2433,1.3121,1.3478,1.3478,1.3126,1.2905,1.2905,1.2905,1.2905,1.2905,1.2905,1.2905,1.2881,1.1742,1.0947,1.0457,0.9962,0.9113,0.802,0.8391,0.8142,0.7471,0.7208,0.6989,0.6904,0.756,0.6667,0.5084,0.5892,0.5401,0.4536,0.5515,0.5378,0.0,0.0,0.0,0.0,0.0,0.0,0.0,0.8653,0.8217,0.7854,0.0,0.0,0.0,0.0,0.0,0.0,0.6784,0.0,0.6372,0.6372,0.6453,0.648,0.6372,0.648,0.6777,0.0,0.0,0.0,0.0,0.0,0.0,0.0,0.8549,0.0,0.0,0.0,0.8571,0.0,0.8804,0.8804,0.0,0.8804,0.8804,0.8804,0.8804,0.8804,0.8804,0.0,0.8804,0.8804,0.0,0.8804,0.8778,0.8699,0.0,0.0,0.0,0.0,0.0,0.0,0.8182,0.0,0.8738,0.0,0.8664,0.8362,0.0,0.0,0.0,0.0,0.0,0.0,0.0,0.0,0.0,0.0,0.0,0.0,0.0,0.0,0.0,0.9954,1.027,1.0437,1.166,1.2388,1.2388,1.2714,1.2905,1.2905,1.2905,1.2905,1.2905,1.2905,1.2905,1.2905,1.2749,1.1996,1.0764,1.091,1.0027,0.8353,0.8585,0.8231,0.7506,0.745,0.6978,0.6379,0.7211,0.6916,0.6045,0.6155,0.5622,0.496,0.6199,0.6145,0.0,0.0,0.0,0.0,0.0,0.0,0.0,0.0,0.0,0.0,0.0,0.0,0.0,0.0,0.0,0.6875,0.0,0.0,0.0,0.6588,0.702,0.7047,0.6615,0.702,0.7182,0.0,0.7482,0.0,0.0,0.0,0.0,0.0,0.8456,0.0,0.8278,0.0,0.8469,0.0,0.0,0.0,0.0,0.8962,0.9035,0.9342,0.8936,0.9309,0.984,0.0,0.9061,0.0,0.0,0.0,0.0,0.8804,0.0,0.0,0.0,0.0,0.0,0.0,0.0,0.0,0.8804,0.0,0.8771,0.0,0.0,0.0,0.0,0.0,0.0,0.0,0.6535,0.0,0.0,0.0,0.0,0.0,0.0,0.0,0.0,0.0,0.0,0.0,1.1573,1.2203,1.2203,1.2646,1.2905,1.2905,1.2905,1.2905,1.2905,1.2905,1.2905,1.2881,1.2073,1.1375,1.0805,1.0661,0.9867,0.8613,0.9231,0.8838,0.7752,0.8065,0.7595,0.6738,0.7446,0.6749,0.5374,0.5809,0.5284,0.4559,0.7208,0.0,0.0,0.0,0.0,0.0,0.0,0.0,0.0,0.0,0.0,0.0,0.9658,0.8865,0.0,0.0,0.7866,0.7605,0.0,0.0,0.7208,0.7208,0.7723,0.775,0.7208,0.7723,0.775,0.0,0.0,0.0,0.0,0.0,0.0,0.0,0.0,0.8349,0.8273,0.0,0.8589,0.8909,0.9015,0.9484,1.0012,0.9536,0.9658,1.0012,0.951,0.9961,1.0636,0.9692,0.9658,0.0,0.929,0.0,0.0,0.0,0.0,0.0,0.9014,0.0,0.0,0.0,0.0,0.0,0.0,0.0,0.0,0.0,0.0,0.0,0.0,0.0,0.0,0.0,0.0,0.0,0.0,0.0,0.0,0.0,0.0,0.0,0.0,0.0,0.0,1.0047,1.1044,1.1688,1.1803,1.239,1.2778,1.2905,1.2905,1.2905,1.2905,1.2905,1.2905,1.2881,1.1733,1.1147,1.1074,1.0602,0.9874,0.9013,0.9662,0.9247,0.816,0.8541,0.8124,0.7301,0.7725,0.6777,0.5241,0.5766,0.5303,0.4576,0.8725,0.8156,0.0,0.0,0.0,0.0,0.0,0.0,0.0,0.0,0.0,0.0,0.0,0.0,0.0,0.0,0.0,0.9275,0.9575,0.0,0.8725,0.0,0.0,0.8752,0.0,0.8752,0.0,0.0,0.0,0.0,0.0,0.0,0.0,0.0,0.0,0.8682,0.9124,0.8614,0.9072,1.0124,0.9857,1.0167,1.0771,0.0,1.0745,1.0771,1.0737,0.0,0.0,1.0737,1.0737,0.0,0.0,0.0,0.0,0.0,0.0,0.0,0.0,0.0,0.0,0.9614,0.0,0.0,0.0,0.0,0.9588,0.0,0.0,0.0,0.0,0.0,0.0,0.0,0.0,0.0,0.0,0.0,0.0,0.0,0.0,0.0,0.0,0.0,0.0,0.7989,0.9346,1.037,1.0816,1.1729,1.2418,1.2895,1.2905,1.2905,1.2905,1.2905,1.2905,1.2895,1.2381,1.2006,1.1753,1.1164,1.045,0.9653,0.9561,0.9188,0.8675,0.8695,0.8378,0.787,0.7891,0.7259,0.6339,0.6373,0.5991,0.5536,0.0,0.0,0.0,0.0,0.0,0.0,0.0,0.9624,0.0,0.0,1.0693,0.0,0.0,1.0755,1.0581,0.0,0.0,0.967,0.9384,0.9385,0.0,0.0,0.0,0.9205,0.0,0.0,0.0,0.0,0.0,0.0,0.0,0.0,0.0,0.0,0.0,0.8997,0.0,0.0,0.0,0.0,0.0,1.1266,1.1408,0.0,0.0,1.1391,1.0965,1.1409,0.0,1.1099,1.1091,1.1248,0.9953,0.9714,0.9737,0.8819,0.8808,0.0,0.0,0.0,0.9784,1.0007,0.0,0.0,0.0,0.0,0.0,0.0,0.0,0.0,0.0,0.0,0.0,0.0,0.0,0.0,0.0,0.0,0.0,0.0,0.0,0.0,0.0,0.0,0.0,0.8378,0.9132,0.9935,0.0,1.1361,1.2049,1.2861,1.2905,1.2905,1.2905,1.2905,1.2905,1.2895,1.1978,1.1475,1.1375,1.0589,1.0085,0.9831,0.9967,0.9725,0.9259,0.9617,0.9239,0.8419,0.8419,0.8006,0.7317,0.6641,0.6025,0.5641,1.0712,0.0,0.0,0.0,0.0,0.0,0.0,0.0,0.0,0.0,1.1286,0.0,1.0913,0.0,1.0688,0.0,1.018,0.9923,0.9544,0.9754,0.0,0.934,0.9597,0.0,0.0,0.0,0.0,0.0,0.0,0.8804,0.0,0.0,0.0,0.0,0.0,0.9706,0.9437,1.022,1.0471,0.0,0.0,1.2187,0.0,0.0,1.1816,1.2138,0.0,1.2132,1.2749,1.1841,1.1717,1.1725,1.0432,1.0111,0.9996,0.9121,0.9089,0.9358,0.9373,0.9778,0.0,1.0501,1.0751,0.0,1.0945,0.0,0.0,0.0,0.0,0.0,0.0,0.0,0.0,0.0,0.0,0.0,0.0,0.8266,0.0,0.0,0.0,0.0,0.0,0.0,0.7114,0.7773,0.8518,0.9303,0.0,0.0,1.1588,1.2482,1.2774,1.2905,1.2905,1.2905,1.2905,1.2895,1.1851,1.1412,1.1524,1.0496,1.0116,1.0247,1.03,1.0098,0.9814,1.0157,0.9784,0.8978,0.8978,0.8541,0.7789,0.6939,0.6496,0.6474,0.0,0.0,0.0,0.0,1.1213,0.0,0.0,0.0,1.284,0.0,1.2206,1.2,1.0862,1.0733,1.0733,1.0719,1.0411,1.0198,1.0184,1.0307,0.0,0.0,1.0057,0.9918,0.984,0.0,0.0,0.0,0.0,0.0,0.0,0.0,0.0,0.0,1.0534,0.0,1.0615,1.0785,1.1164,1.1692,1.2563,1.2905,1.2905,1.2905,1.2905,1.2905,1.2905,1.2905,1.2905,1.2895,1.2612,1.2111,1.1407,1.0714,1.02,1.0445,0.9869,0.9361,1.029,1.0395,1.0403,1.1033,0.0,0.0,0.0,0.0,1.1072,0.0,0.0,0.0,0.0,0.0,0.0,0.0,0.0,0.0,0.0,0.0,0.0,0.0,0.0,0.0,0.0,0.6749,0.6487,0.626,0.7498,0.8453,0.0,0.0,1.1099,1.1787,1.2535,1.2905,1.2905,1.2905,1.2905,1.2895,1.2034,1.1829,1.2135,1.0889,1.0518,1.0859,1.0479,1.0303,1.0303,1.0303,1.0,0.9538,0.9518,0.8857,0.787,0.7259,0.7426,0.7933,1.2637,1.3049,1.2828,0.0,1.1326,1.1526,0.0,0.0,0.0,0.0,1.3076,1.3036,1.2727,1.268,1.2609,1.239,1.2022,0.0,0.0,0.0,0.0,1.0711,1.1335,1.1362,1.0558,1.0624,1.0291,0.9536,0.0,0.0,0.9536,0.0,0.0,0.0,0.0,0.0,1.0642,1.1482,1.1921,1.2109,1.2656,1.2905,0.0,0.0,1.2905,1.2905,1.2905,1.2905,1.291,1.2897,1.2836,1.252,1.1462,1.0992,1.062,0.9508,0.9561,0.9952,0.981,1.0233,1.0751,1.0923,1.1235,1.1487,0.0,0.0,0.0,0.0,0.0,0.0,0.0,0.0,0.0,0.0,0.0,0.0,0.0,0.0,0.0,0.8974,0.0,0.0,0.7385,0.6721,0.6443,0.6774,0.7367,0.0,0.0,0.0,0.0,1.1771,1.2535,1.2905,1.2905,1.2905,1.2905,1.2895,1.2324,1.1943,1.1731,1.1045,1.0635,1.0459,1.0352,1.0303,1.0303,1.0303,1.0225,1.0059,0.9657,0.9079,0.8439,0.7863,0.8028,0.85,1.3381,0.0,0.0,1.3068,0.0,0.0,1.3098,1.3632,0.0,1.3768,1.3732,0.0,1.303,1.2775,1.2595,1.245,1.2225,0.0,1.1827,0.0,0.0,1.1481,1.1882,1.1866,1.1242,1.0947,0.0,0.9972,0.0,0.0,0.9992,0.0,0.0,0.0,0.0,1.1916,1.1337,1.1935,1.232,1.2539,1.2783,0.0,0.0,1.2905,1.2905,1.2905,1.2905,1.2905,1.29,1.2908,1.2646,1.2201,1.1518,1.1067,1.0565,0.967,0.9824,1.0273,1.0176,1.0686,1.1287,1.15,1.1603,1.1693,1.1892,1.1778,1.1743,0.0,0.0,0.0,0.0,0.0,0.0,0.0,0.0,0.0,0.0,0.0,0.0,0.0,0.8567,0.0,0.7705,0.6883,0.6502,0.6802,0.736,0.0,0.0,0.0,0.0,1.1504,1.2415,1.2905,1.2905,1.2905,1.2905,1.2895,1.2408,1.1992,1.1587,1.1113,1.0684,1.0303,1.0303,1.0303,1.0303,1.0303,1.0303,1.0244,0.9705,0.9319,0.9019,0.8716,0.8797,0.9039,0.0,0.0,0.0,0.0,0.0,0.0,0.0,1.5312,0.0,1.4423,0.0,1.387,1.2729,1.227,1.2006,1.2006,0.0,1.1939,1.1939,1.2254,1.2428,1.2382,1.2161,1.1988,1.1945,1.0965,1.0441,0.0,0.0,0.0,0.0,0.0,0.0,0.0,0.0,0.0,0.0,1.2203,1.2451,1.2827,1.2973,1.3017,1.3041,1.3113,1.3138,1.3128,1.2967,1.2899,1.2898,1.2889,1.2597,1.2145,1.1609,1.0914,1.0322,1.0418,1.0438,1.0534,1.0981,1.1409,1.1815,1.2227,1.2012,1.1815,1.2227,1.1681,1.1323,1.2141,1.2034,1.1878,0.0,0.0,0.0,0.0,0.0,0.0,0.0,0.0,0.0,0.0,0.0,0.0,0.0,0.7285,0.6761,0.6725,0.0,0.0,0.0,0.0,0.0,1.1181,1.2234,0.0,1.2905,0.0,1.2905,1.2905,1.25,1.2074,1.1674,1.1267,1.0824,1.039,1.039,1.0361,1.0303,1.0303,1.0303,1.0264,0.9854,0.9687,0.9687,0.9687,0.9687,0.9667,0.0,0.0,0.0,0.0,0.0,1.6549,1.752,1.6454,1.5313,1.4781,1.4695,1.4466,1.388,1.373,1.3683,1.3683,1.338,0.0,0.0,0.0,0.0,1.2801,1.3052,1.3042,1.272,1.214,1.1747,0.0,0.0,0.0,0.0,0.0,0.0,0.0,0.0,0.0,1.2203,1.2203,0.0,1.2396,1.329,1.3637,1.3695,1.4201,1.4387,1.425,1.3269,1.2897,1.2888,1.2914,1.4119,1.5032,1.1609,1.0419,1.0418,1.0972,1.1126,1.1203,1.1557,1.1719,1.1786,1.1879,1.1842,1.1804,1.189,1.1982,1.2099,1.2266,1.2494,1.27,1.2754,0.0,0.0,0.0,0.0,0.0,0.0,0.0,0.0,0.0,0.0,0.981,0.0,0.0,0.0,0.0,0.0,0.0,0.0,0.0,0.0,0.0,1.1935,0.0,0.0,0.0,1.2905,1.2905,1.2827,1.2566,1.217,1.2098,1.1623,1.0886,1.0886,1.0668,1.0303,1.0303,1.0303,1.0322,1.062,1.0753,1.0753,1.0753,1.0753,1.061,0.0,0.0,0.0,0.0,0.0,0.0,0.0,1.7381,1.6613,1.5782,1.4966,1.4338,1.4133,1.4005,1.3952,1.3952,1.376,1.3663,1.3663,1.3363,1.3096,1.2915,1.3075,1.2974,1.255,1.2254,1.2016,1.1906,0.0,0.0,0.0,0.0,0.0,0.0,0.0,1.3523,0.0,0.0,0.0,1.3544,1.4057,1.426,1.4306,1.4583,1.4698,1.4641,1.4267,1.3906,1.3515,1.3183,1.3783,1.4549,1.3758,1.2389,1.1239,1.2045,1.2036,1.1818,1.2084,1.2156,1.221,1.2473,1.2336,1.224,1.2473,1.2065,1.1826,1.2508,1.2431,1.2357,1.2817,1.2905,0.0,0.0,0.0,0.0,0.0,0.0,0.0,0.0,0.0,0.0,0.0,0.0,0.0,0.0,0.0,0.0,0.0,0.0,0.0,0.0,0.0,0.0,0.0,0.0,0.0,1.2549,1.2773,1.2573,1.1985,1.195,1.1583,1.1,1.0734,1.0505,1.0303,1.0303,1.0448,1.0687,1.0905,1.1169,1.1412,1.1412,1.1244,1.0867,0.0,1.8652,0.0,0.0,1.8754,0.0,1.8111,1.8146,1.7807,1.6586,1.532,1.4475,1.4258,1.4087,1.398,1.398,1.398,1.398,1.398,1.3539,1.3272,1.3272,1.327,1.299,1.2398,1.2214,1.2044,0.0,0.0,0.0,0.0,0.0,0.0,0.0,0.0,0.0,0.0,0.0,1.4698,1.4698,1.4733,1.479,1.4892,1.4902,1.497,1.5119,1.5438,1.5181,1.4542,1.3549,1.3134,1.3359,1.5218,1.4099,1.2247,1.2987,1.2824,1.2459,1.2603,1.265,1.2738,1.3112,1.2925,1.2738,1.3129,1.227,1.1717,1.2774,1.24,1.2096,1.2778,1.2905,0.0,0.0,0.0,0.0,0.0,0.0,0.0,0.0,0.0,0.0,1.0717,0.0,0.0,0.0,0.0,0.9611,1.0056,1.056,0.0,0.0,0.0,1.2819,1.3272,0.0,1.2811,0.0,1.2689,1.2436,1.1828,1.1878,1.1572,1.1,1.0725,1.0505,1.0303,1.0303,1.0572,1.1008,1.1132,1.1486,1.1957,1.1957,1.1627,1.1008,0.0,0.0,0.0,0.0,0.0,0.0,1.9588,1.8644,1.7536,1.6378,1.6092,1.5667,1.4746,1.4627,1.4617,1.4617,1.4617,1.4617,1.4617,1.4571,1.4525,1.4525,1.4523,1.4063,1.304,1.2637,1.2184,0.0,0.0,0.0,0.0,0.0,0.0,0.0,0.0,0.0,0.0,1.4686,1.4698,1.471,1.4754,1.5087,1.5518,1.5589,1.5902,1.6337,1.6371,1.6334,1.598,1.3903,1.3198,1.3228,1.3443,1.3309,1.3083,1.3171,1.3154,1.3107,1.3129,1.3129,1.3146,1.3181,1.3163,1.3146,1.3181,1.3002,1.285,1.2979,1.2874,1.2807,1.2886,1.2905,1.2905,0.0,0.0,0.0,0.0,0.0,1.2798,1.2798,0.0,0.0,0.0,1.1351,0.0,0.0,1.0695,1.0522,1.0611,1.1297,1.1912,1.2415,0.0,1.4105,1.4537,1.3576,1.3269,1.3635,1.2722,1.2273,1.2267,1.2678,1.2183,1.1008,1.1468,1.1142,1.0303,1.0303,1.0572,1.1057,1.1534,1.2011,1.2437,1.2437,1.2138,1.1579,0.0,0.0,0.0,0.0,0.0,0.0,0.0,1.9081,1.8276,1.7508,1.6387,1.5499,1.5097,1.5165,1.5231,1.5231,1.5231,1.5231,1.5231,1.4903,1.4698,1.4711,1.4697,1.4392,1.3717,1.32,1.28,0.0,0.0,0.0,0.0,0.0,0.0,0.0,0.0,1.5577,1.5241,1.5288,1.5298,1.5295,1.5334,1.5475,1.5693,1.6061,1.63,1.65,1.65,1.6283,1.5848,1.4624,1.3777,1.3192,1.3211,1.3506,1.385,1.3864,1.3801,1.374,1.374,1.3483,1.3198,1.3198,1.3198,1.3303,1.3664,1.3462,1.3251,1.3481,1.3211,1.2905,1.2905,1.2905,1.3017,0.0,0.0,0.0,0.0,0.0,0.0,1.3396,0.0,1.3144,0.0,0.0,0.0,0.0,0.0,1.1085,1.179,1.1841,1.2345,1.3421,0.0,1.4283,1.4698,1.3972,1.3543,1.3423,1.291,1.2578,1.2382,1.2861,1.2509,1.1526,1.1098,1.0678,1.0322,1.0592,1.1019,1.1523,1.2029,1.2508,1.2925,1.2925,1.2443,1.1689,2.2112,0.0,2.1029,0.0,2.0908,2.0154,1.9671,1.9125,1.8519,1.7777,1.6512,1.5649,1.5649,1.5791,1.5864,1.5864,1.5864,1.5864,1.5864,1.5466,1.523,1.5226,1.5226,0.0,1.4376,1.3767,1.3316,1.3017,1.3101,0.0,0.0,0.0,0.0,0.0,1.6182,1.6259,1.585,1.5753,1.5781,1.5906,1.558,1.5643,1.5957,1.6183,1.635,1.65,1.65,1.6249,1.5831,1.5135,1.4368,1.3643,1.3321,1.3687,1.4237,1.4185,1.4236,1.4233,1.4085,1.3718,1.3374,1.3232,1.3198,1.3366,1.3959,1.379,1.3627,1.4046,1.3767,1.343,1.343,1.343,1.3563,1.4014,0.0,0.0,0.0,0.0,0.0,0.0,1.405,1.4236,1.4663,1.4023,0.0,0.0,0.0,0.0,1.2513,1.2538,0.0,0.0,0.0,0.0,0.0,1.4568,1.4116,1.391,1.3521,1.3173,1.291,1.2775,1.2572,1.2226,1.0891,1.037,1.0534,1.0867,1.1319,1.1847,1.2318,1.2785,1.3198,1.3198,1.2615,1.1737,2.1935,2.2605,2.302,2.1907,2.1629,2.1009,1.9362,1.8592,1.7787,1.6674,1.6491,1.6491,1.6491,1.6479,1.65,1.65,1.65,1.65,1.65,1.6466,1.6466,0.0,0.0,1.6,1.5012,1.4389,1.3602,1.2611,0.0,0.0,1.4917,0.0,1.7271,1.725,1.6731,1.65,1.645,1.5932,1.6007,1.6387,1.5349,1.553,1.6425,1.5906,1.6045,1.65,1.65,1.6488,1.6333,1.5261,1.4884,1.4683,1.3566,1.3627,1.408,1.3952,1.4277,1.459,1.4056,1.3901,1.3785,1.3323,1.3198,1.3366,1.3959,1.4045,1.4126,1.4586,1.4675,1.4686,1.4686,1.4686,1.4675,1.4686,0.0,0.0,0.0,0.0,0.0,1.4686,1.4686,1.4686,1.4698,0.0,0.0,0.0,0.0,0.0,0.0,0.0,0.0,1.411,1.5636,0.0,1.6479,1.5484,1.5183,1.5564,1.4557,1.4068,1.4023,1.2503,1.2346,1.317,1.1171,1.0553,1.1,1.1,1.1319,1.1847,1.2318,1.2785,1.3198,1.3198,1.2615,1.1792,2.177,2.1988,2.2263,2.237,2.1983,2.1492,2.0953,1.9704,1.8808,1.8827,1.7779,1.7167,1.7544,1.693,1.65,0.0,1.65,1.65,0.0,1.65,1.65,1.65,1.65,1.6177,1.548,1.5208,1.4713,1.4022,0.0,0.0,0.0,1.7617,1.7646,1.7312,1.7504,1.7128,1.6324,1.5893,1.5534,1.5252,1.5006,1.5318,1.5984,1.6177,1.6578,1.6983,1.6532,1.6362,1.6242,1.544,1.5167,1.5065,1.4322,1.4089,1.4156,1.4376,1.4563,1.4721,1.4826,1.4393,1.3868,1.3702,1.3442,1.3453,1.4419,1.4882,1.513,1.5272,1.4994,1.4698,1.4698,1.4698,1.4835,1.5253,1.4971,0.0,0.0,0.0,0.0,1.5762,1.5531,1.562,0.0,1.5526,0.0,0.0,0.0,0.0,0.0,0.0,0.0,0.0,1.659,0.0,1.7055,1.6738,1.6644,1.6758,1.5652,1.4941,1.453,1.2985,1.2656,1.3219,1.1524,1.1075,1.156,1.1891,1.212,1.2318,1.2791,1.3064,1.3198,1.3198,1.2615,1.1792,2.2031,2.1873,2.1899,2.2571,2.1931,2.1273,2.1038,1.9881,1.9077,1.9203,1.8289,1.7727,1.8066,1.7504,0.0,1.6816,1.6616,1.6595,1.6795,1.6795,1.69,1.7097,1.7097,1.6775,1.6004,0.0,0.0,1.4691,1.5989,1.7188,1.8328,1.8384,1.8224,1.7907,1.8046,1.7526,1.6557,1.612,1.5645,1.5216,1.5105,1.5517,1.6262,1.6598,1.7086,1.7505,1.6849,1.6597,1.6481,1.5605,1.5298,1.5205,1.4678,1.4389,1.434,1.4735,1.5002,1.5189,1.5221,1.4807,1.4381,1.4481,1.4269,1.4328,1.5286,1.588,1.6167,1.5974,1.5971,1.5925,1.5718,1.5686,1.5872,1.6443,1.5884,1.5577,1.6167,0.0,0.0,0.0,0.0,0.0,0.0,1.6367,0.0,0.0,0.0,0.0,0.0,0.0,0.0,1.6163,1.6924,0.0,1.7605,1.7603,1.7597,1.7597,1.6672,1.5954,1.5397,1.4055,1.3507,1.3532,1.2185,1.1782,1.2084,1.2383,1.2508,1.2544,1.3012,1.3198,1.3198,1.3198,1.272,1.2029,2.2575,2.2224,2.2029,0.0,2.1699,0.0,2.0142,1.944,1.8798,1.8338,1.8212,1.8185,1.8224,1.8185,1.7947,1.7442,0.0,0.0,0.0,1.7374,1.7585,1.8086,1.8064,1.7526,1.6479,1.6291,1.5755,1.4796,1.6369,1.7678,1.87,1.8877,1.8949,1.8874,1.8419,1.7805,1.7042,1.6549,1.6237,1.5989,1.5504,1.6005,1.7028,1.7032,1.7446,1.7938,1.7253,1.7033,1.689,1.5747,1.5363,1.5283,1.4778,1.4611,1.4658,1.5013,1.5505,1.5819,1.5336,1.5192,1.5228,1.5532,1.5613,1.5779,1.6401,1.697,1.7209,1.671,1.7415,1.7947,1.7442,1.7374,1.749,1.7972,1.7224,1.6761,1.7218,0.0,0.0,0.0,0.0,0.0,0.0,1.7209,1.6814,0.0,0.0,0.0,0.0,0.0,1.6411,1.5883,1.6824,1.7605,1.8165,1.8204,1.8185,1.8086,1.7565,1.6982,1.6369,1.5389,1.4621,1.3967,1.3014,1.2577,1.2544,1.2544,1.2544,1.2597,1.303,1.3198,1.3198,1.3198,1.2908,1.2437,0.0,0.0,2.309,2.3673,2.2735,2.1877,2.1748,2.0543,1.9754,2.0059,1.9286,1.8874,1.9281,1.8968,1.865,1.8535,1.8027,1.7787,1.7907,1.7907,1.7967,1.8086,1.7606,1.6881,1.5907,1.5661,1.5605,1.5764,1.6967,1.7959,1.8717,1.9269,1.9281,1.8912,1.9207,1.8452,1.6962,1.691,1.631,1.5327,1.5308,1.5731,1.6343,1.6338,1.6691,1.7104,1.648,1.6424,1.6572,1.6189,1.6065,1.6035,1.5912,1.5696,1.5433,1.518,1.5205,1.5453,1.614,1.6104,1.5998,1.6582,1.6789,1.6922,1.7083,1.7528,1.7867,1.7747,1.7927,1.8066,1.7927,1.7907,1.7783,1.7389,1.7548,1.7584,1.7202,1.7601,0.0,0.0,1.8165,1.8125,1.865,1.8125,1.7759,0.0,0.0,0.0,0.0,1.796,1.81,1.7542,1.7777,1.8185,1.8708,1.9132,1.8912,1.8086,1.7565,1.6583,1.5267,1.4601,1.3989,1.3368,1.2776,1.2722,1.303,1.303,1.303,1.306,1.3163,1.3198,1.3198,1.3198,1.2908,1.2437,2.2611,2.2571,2.2655,2.3488,2.2584,2.1641,2.1427,2.0652,2.0128,2.0243,1.9679,1.9387,1.9672,1.9442,1.9262,1.9262,1.8554,1.8204,1.8458,1.8477,1.8574,1.8817,1.8487,1.7817,1.6816,1.6589,1.6629,1.6934,1.7737,1.8508,1.9166,1.9528,1.9548,1.9281,1.9566,1.8966,1.7715,1.7472,1.6783,1.5841,1.5909,1.6292,1.6838,1.6826,1.7211,1.7595,1.666,1.6559,1.6773,1.6237,1.6163,1.632,1.6447,1.6366,1.6159,1.5904,1.5638,1.561,1.6471,1.6542,1.6621,1.7594,1.7931,1.8026,1.8026,1.8418,1.8722,1.8473,1.897,1.9342,1.9108,1.9071,1.8848,1.8247,1.8302,1.8204,1.7572,1.8045,0.0,1.8874,1.8631,1.8669,1.9207,1.8554,1.8302,1.8798,0.0,0.0,1.8421,1.8724,1.8655,1.8125,1.8341,1.8708,1.9262,1.9548,1.9281,1.8458,1.7927,1.6811,1.5253,1.4953,1.4242,1.3193,1.3219,1.3217,1.3198,1.3198,1.3198,1.3215,1.3442,1.3391,1.3232,1.3442,1.3224,1.2738,2.2535,2.2151,2.202,2.3113,2.2165,2.1119,2.0724,2.0529,2.0278,1.9945,1.9907,1.9871,1.98,1.98,1.9764,1.9708,1.8874,1.8535,1.8987,1.8937,1.906,1.954,1.9453,1.8901,1.7824,1.76,1.7533,1.7633,1.8254,1.8837,1.9408,1.9618,1.9708,1.9708,1.9708,1.9271,1.8506,1.7938,1.7249,1.6577,1.6743,1.7149,1.7661,1.7725,1.8088,1.8406,1.712,1.6892,1.709,1.618,1.6052,1.6354,1.6698,1.6803,1.6834,1.6939,1.6638,1.6379,1.6758,1.7042,1.7526,1.8738,1.9123,1.9233,1.9233,1.9531,1.968,1.9236,2.0133,2.0862,2.0405,2.0322,2.0152,1.9576,1.9223,1.8812,1.8208,0.0,1.9024,1.9024,1.9024,1.9207,1.9657,1.8874,1.8708,1.9621,1.9281,1.9244,0.0,1.9358,1.8929,1.8546,1.8771,1.9188,1.9782,1.9785,1.9518,1.8991,1.8463,1.7416,1.5952,1.5951,1.5076,1.3578,1.4014,1.3859,1.3301,1.3232,1.325,1.334,1.3735,1.3698,1.3442,1.3785,1.3648,1.322,2.3882,2.372,2.3539,2.4175,2.3269,2.2407,2.2344,2.1521,2.0862,2.0812,2.0797,2.0649,2.0246,2.021,2.0072,1.9744,1.9548,1.9479,1.9566,1.9045,1.8765,1.8852,1.8311,1.7504,1.6422,1.584,1.581,1.6375,1.7369,1.7908,1.8042,1.9166,1.9708,1.9708,1.9708,1.9016,1.7848,1.7727,1.7011,1.6023,1.6932,1.7355,1.7477,1.7762,1.7924,1.7882,1.6747,1.6577,1.6802,1.6373,1.626,1.6411,1.702,1.725,1.7401,1.796,1.8307,1.8358,1.7727,1.8609,1.9879,2.0477,2.0668,2.0682,2.0682,2.0732,2.0764,2.0683,2.0846,2.0975,2.0894,2.0878,2.0671,2.0001,1.9997,1.9863,1.9251,0.0,1.9584,1.9584,1.9584,1.9603,1.969,1.9548,1.953,1.969,1.9621,1.9767,2.0177,2.0126,2.0218,2.0541,1.9468,1.9325,2.0195,2.015,1.9911,1.9477,1.8956,1.813,1.7051,1.704,1.6345,1.5127,1.4825,1.4358,1.3752,1.3357,1.3425,1.3802,1.3868,1.4052,1.4262,1.4,1.3852,1.3669,2.3365,2.3305,2.3273,2.3808,2.311,2.2397,2.2137,2.1658,2.1244,2.1039,2.0991,2.091,2.0699,2.0682,2.0599,2.043,2.0174,2.0017,2.0017,1.9185,1.8867,1.9211,1.8834,1.8421,1.7986,1.7188,1.6882,1.7061,1.784,1.8237,1.8252,1.9226,1.9513,1.9166,1.9543,1.8957,1.7712,1.8087,1.7845,1.7241,1.7651,1.7981,1.8183,1.7944,1.8093,1.8333,1.7466,1.7626,1.8202,1.7878,1.7725,1.7824,1.8535,1.8636,1.8578,1.9121,1.9245,1.9168,1.8999,1.9603,2.0416,2.0878,2.0991,2.0991,2.0991,2.1166,2.1322,2.1322,2.1507,2.1706,2.1706,2.1706,2.1399,2.0468,2.0697,0.0,0.0,1.9895,2.0017,2.0017,1.9821,1.9708,1.9708,1.9708,1.9708,1.9708,1.9708,1.9874,2.028,2.0297,2.0516,2.0991,2.0366,2.0248,2.0666,2.0651,2.0285,1.9588,1.9357,1.8659,1.7622,1.7622,1.7064,1.6083,1.5862,1.528,1.4477,1.4256,1.4203,1.4246,1.4454,1.4533,1.4485,1.4294,1.4084,1.3802,2.2822,2.2957,2.3118,2.3351,2.3071,2.2632,2.2089,2.1864,2.1643,2.1338,2.1307,2.126,2.115,2.1134,2.1102,2.1023,2.0666,2.0387,2.0214,1.9214,1.8882,1.9438,1.9109,1.9225,1.9908,1.8653,1.8002,1.8024,1.8327,1.8386,1.8252,1.9076,1.9144,1.8612,1.9291,1.898,1.8018,1.8535,1.8669,1.8558,1.8714,1.8971,1.9244,1.8767,1.8954,1.9325,1.8556,1.88,1.9451,1.9119,1.8963,1.905,1.9772,1.9844,1.9767,2.0235,2.0144,1.9973,2.0283,2.0353,2.051,2.1149,2.1307,2.1307,2.1307,2.1538,2.1764,2.1764,2.2046,2.2296,2.2296,2.2296,2.2009,2.1149,0.0,0.0,0.0,2.0335,2.0348,2.0449,2.0,1.9729,1.9821,1.9747,1.9708,1.9708,1.9782,2.0017,2.0449,2.0618,2.0847,2.1122,2.097,2.0973,2.1134,2.0889,2.048,1.9924,1.9737,1.9241,1.847,1.847,1.8072,1.7379,1.7106,1.6443,1.5506,1.5151,1.4897,1.4786,1.5014,1.4968,1.4783,1.4674,1.4374,1.4,2.3213,2.3887,2.4173,2.3511,2.3915,2.4086,2.338,2.269,2.2237,2.2209,2.2194,2.2049,2.1613,2.1568,2.1399,2.1023,2.0959,2.0671,1.9955,1.8967,1.8529,1.8764,1.793,1.8545,2.0846,1.8576,1.7681,1.8362,1.7967,1.7458,1.6891,1.8177,1.8572,1.8269,1.8945,1.9076,1.8806,1.887,1.8912,1.904,2.0037,2.0445,2.0501,2.0834,2.0988,2.0898,1.9787,1.9428,1.9451,1.9119,1.9006,1.9106,1.9802,2.0236,2.0644,2.1287,2.1454,2.1439,2.1469,2.098,2.0772,2.1924,2.2194,2.2194,2.2194,2.224,2.2254,2.2254,2.2282,2.2296,2.2296,2.2296,2.2279,2.2184,0.0,0.0,2.1486,2.0798,2.0466,2.0894,2.0208,1.9839,2.0212,1.9927,1.9708,1.9708,2.0052,2.0466,2.0926,2.1591,2.1844,2.1561,2.0883,2.0862,2.1552,2.0574,2.035,2.0878,2.021,1.9971,2.0119,2.0119,1.9999,1.9697,1.8638,1.7772,1.703,1.558,1.5213,1.5491,1.5211,1.5359,1.5653,1.521,1.4799,1.4454,2.2651,2.2936,2.3093,2.299,2.3059,2.3107,2.2973,2.2586,2.2296,2.2296,2.2296,2.2223,2.2046,2.2032,2.1974,2.1811,2.1538,2.1254,2.0979,1.992,1.92,1.8904,1.9139,1.9934,2.1336,1.9141,1.8219,1.8705,1.7867,1.7318,1.7089,1.7751,1.7877,1.7559,1.8254,1.8636,1.8725,1.8799,1.928,1.9984,1.989,2.0301,2.0931,2.0584,2.0771,2.1143,2.0703,2.0851,2.1222,2.108,2.0848,2.0706,2.1238,2.1321,2.1325,2.1859,2.1714,2.146,2.1915,2.1624,2.1356,2.2096,2.2296,2.2349,2.2514,2.255,2.255,2.255,2.255,2.2487,2.2321,2.2296,2.2296,2.2296,0.0,2.2032,2.2032,2.1491,2.1165,2.1353,2.06,2.0141,2.0297,1.9945,1.9803,2.0037,2.0212,2.0601,2.1337,2.2071,2.241,2.2292,2.1571,2.1237,2.1359,2.14,2.1406,2.1368,2.1092,2.1016,2.1118,2.1118,2.0977,2.0713,2.0289,1.9301,1.7936,1.735,1.6813,1.6331,1.6198,1.6148,1.6052,1.5579,1.5182,1.483,2.2296,2.2496,2.2618,2.2588,2.2709,2.274,2.2598,2.2487,2.2402,2.231,2.2296,2.2335,2.2412,2.2426,2.248,2.2571,2.2286,2.1998,2.1765,2.0716,1.9892,1.9488,1.9904,2.0669,2.1792,1.9789,1.884,1.9093,1.788,1.7185,1.6999,1.7257,1.7212,1.6929,1.7721,1.8176,1.8382,1.8944,1.9799,2.0753,2.0445,2.0662,2.1173,2.0842,2.0923,2.1224,2.1461,2.187,2.2296,2.2296,2.2092,2.1884,2.2194,2.2092,2.1884,2.2209,2.1938,2.1651,2.2175,2.213,2.2008,2.2251,2.2443,2.2594,2.2686,2.2784,2.2835,2.2721,2.2708,2.2625,2.2349,2.2296,2.2296,2.2296,2.2482,2.2564,2.233,2.2099,2.1921,2.1842,2.1055,2.0566,2.0699,2.0347,2.0225,2.05,2.0649,2.1117,2.2043,2.2587,2.2755,2.2524,2.2134,2.1746,2.1327,2.1501,2.146,2.1251,2.1251,2.1383,2.1597,2.1597,2.1587,2.1529,2.1025,2.0029,1.8693,1.8133,1.7404,1.6646,1.6646,1.645,1.6122,1.5906,1.5506,1.5089,2.2296,2.2885,2.3156,2.2429,2.3182,2.3529,2.2468,2.2541,2.2612,2.2335,2.231,2.2398,2.2669,2.2708,2.2848,2.3165,2.32,2.2882,2.2143,2.1103,2.0494,2.052,1.9791,2.0301,2.2262,2.0395,1.944,1.9491,1.8007,1.6952,1.6316,1.6592,1.6601,1.645,1.7377,1.7792,1.7909,1.9365,2.0454,2.1258,2.1989,2.1854,2.1275,2.2023,2.1837,2.1292,2.204,2.2296,2.2296,2.2296,2.2296,2.2296,2.231,2.231,2.231,2.231,2.231,2.231,2.231,2.25,2.2634,2.236,2.2764,2.3117,2.2784,2.2972,2.3117,2.2784,2.2708,2.2639,2.2363,2.231,2.231,2.231,2.2919,2.3139,2.2398,2.253,2.2605,2.2321,2.1539,2.115,2.1552,2.1228,2.0991,2.0991,2.1384,2.2071,2.3141,2.32,2.2876,2.2125,2.2513,2.2344,2.1611,2.0547,2.0187,2.051,2.051,2.0889,2.1613,2.1613,2.1853,2.2212,2.0677,1.9818,1.9365,1.7565,1.6623,1.6299,1.6315,1.6094,1.5856,1.6177,1.5811,1.518,2.2296,2.2482,2.2618,2.2584,2.2692,2.2805,2.2922,2.2802,2.2764,2.292,2.2933,2.2952,2.3045,2.3057,2.3093,2.3189,2.32,2.2882,2.2143,2.1103,2.0718,2.1259,2.0343,2.0353,2.1498,1.9908,1.9056,1.908,1.7867,1.7455,1.776,1.7328,1.6871,1.6444,1.7375,1.8186,1.8843,1.8577,1.9519,2.1173,2.0826,2.0889,2.1224,2.1444,2.1393,2.1224,2.1461,2.1854,2.2296,2.2296,2.2296,2.2335,2.2527,2.2742,2.2933,2.2933,2.2768,2.2625,2.287,2.2989,2.2972,2.2665,2.3317,2.3927,2.3494,2.3918,2.4197,2.3551,2.3849,2.3969,2.3082,2.3237,2.3285,2.2689,2.2613,2.255,2.233,2.238,2.2387,2.2316,2.1779,2.146,2.1582,2.1228,2.1118,2.1399,2.2017,2.2613,2.3165,2.3426,2.333,2.2893,2.321,2.2823,2.1611,2.1604,2.1752,2.205,2.205,2.2055,2.2106,2.2289,2.2347,2.2265,2.1475,2.0505,1.9448,1.8612,1.7627,1.6672,1.6914,1.6799,1.6514,1.6607,1.6351,1.5939,2.2307,2.2296,2.2349,2.2514,2.2487,2.2594,2.2947,2.2947,2.2972,2.3177,2.32,2.3247,2.338,2.3403,2.3448,2.3577,2.3606,2.3232,2.2357,2.1697,2.1478,2.1779,2.0894,2.0774,2.1613,2.0128,1.935,1.935,1.8261,1.7819,1.7971,1.767,1.7334,1.6969,1.7413,1.8021,1.8693,1.8472,1.9136,2.0289,2.019,2.0386,2.0754,2.1072,2.119,2.1241,2.1529,2.1921,2.2296,2.2296,2.236,2.25,2.2797,2.3033,2.32,2.32,2.3057,2.2947,2.3141,2.33,2.3394,2.3345,2.4064,2.4683,2.4259,2.4657,2.4929,2.4303,2.4559,2.475,2.4242,2.4416,2.4357,2.35,2.348,2.3309,2.2562,2.2723,2.277,2.2344,2.2046,2.1884,2.1884,2.166,2.1658,2.2003,2.2459,2.2848,2.3177,2.3392,2.3357,2.3021,2.3335,2.3092,2.224,2.2522,2.2591,2.2455,2.2633,2.2625,2.2463,2.2621,2.255,2.2265,2.1685,2.0778,1.9638,1.8831,1.7914,1.7,1.7077,1.6888,1.6633,1.6888,1.6617,1.608,2.2429,2.2391,2.2377,2.2335,2.2563,2.2746,2.2746,2.3033,2.3265,2.3288,2.33,2.3403,2.3703,2.3735,2.3876,2.417,2.419,2.3801,2.2801,2.2644,2.2494,2.2251,2.1516,2.1499,2.2357,2.0866,2.0073,2.0035,1.9002,1.8158,1.7542,1.7883,1.7981,1.789,1.7687,1.7731,1.8003,1.8988,1.9327,1.9279,2.0182,2.0352,2.017,2.0977,2.1245,2.1266,2.2017,2.2309,2.2391,2.2391,2.2567,2.2848,2.3153,2.3277,2.33,2.33,2.3259,2.3247,2.3288,2.35,2.3808,2.4289,2.4888,2.5322,2.5059,2.5292,2.5455,2.5128,2.5109,2.5275,2.5617,2.5714,2.5476,2.4591,2.4971,2.4747,2.2937,2.3313,2.3388,2.2423,2.2296,2.2296,2.2296,2.2296,2.2412,2.2669,2.2733,2.2898,2.3242,2.3236,2.3093,2.2759,2.3069,2.3224,2.32,2.3224,2.291,2.2258,2.2614,2.2759,2.2708,2.2733,2.2577,2.2262,2.1498,2.0704,1.9804,1.8449,1.7608,1.714,1.686,1.6567,1.6367,1.7002,1.6628,1.5884,2.3014,2.3002,2.2915,2.2665,2.2873,2.3093,2.3093,2.338,2.3682,2.3937,2.3986,2.4006,2.4084,2.4094,2.4113,2.419,2.419,2.4097,2.3866,2.306,2.2829,2.3329,2.2399,2.2228,2.2984,2.155,2.0648,2.0395,1.9585,1.9257,1.9412,1.9184,1.8926,1.8704,1.9459,1.9525,1.9122,1.9888,2.0702,2.1427,2.1637,2.1326,2.0802,2.1604,2.1516,2.1083,2.1855,2.2522,2.3002,2.3002,2.3218,2.35,2.3566,2.3774,2.3986,2.3986,2.3795,2.366,2.3907,2.3837,2.3934,2.491,2.5283,2.5458,2.5705,2.6308,2.6703,2.6319,2.6728,2.701,2.6487,2.6668,2.6471,2.502,2.4521,2.3937,2.2859,2.2681,2.2564,2.2327,2.2296,2.2296,2.2296,2.2296,2.2412,2.2669,2.2947,2.3236,2.3577,2.3588,2.3437,2.3105,2.3414,2.3477,2.32,2.3448,2.3516,2.3347,2.3432,2.32,2.2708,2.2972,2.2794,2.2251,2.1405,2.0356,1.9143,1.8146,1.7106,1.6137,1.632,1.6353,1.6328,1.6461,1.638,1.6246,2.3224,2.32,2.3141,2.2972,2.3081,2.3247,2.3414,2.3577,2.3816,2.4161,2.419,2.419,2.419,2.419,2.419,2.419,2.419,2.419,2.419,2.3662,2.3538,2.3919,2.3397,2.3277,2.3664,2.2911,2.2113,2.1265,2.0883,2.0416,1.9918,2.0443,2.0209,1.934,1.9777,1.9969,1.9938,2.0094,2.0616,2.1363,2.1647,2.165,2.1522,2.193,2.2072,2.2049,2.2468,2.2864,2.3224,2.338,2.3555,2.3724,2.3896,2.4064,2.419,2.419,2.4084,2.3986,2.4151,2.4074,2.4127,2.4928,2.5401,2.5801,2.6197,2.6615,2.6964,2.7149,2.7512,2.7787,2.7758,2.7949,2.7711,2.6479,2.5566,2.4663,2.3651,2.2916,2.2436,2.2324,2.2296,2.2349,2.249,2.2634,2.2798,2.2935,2.3105,2.3288,2.3448,2.3448,2.3311,2.2972,2.3437,2.3544,2.32,2.3692,2.3937,2.3927,2.361,2.3288,2.2947,2.296,2.2608,2.1943,2.1477,2.0653,1.9578,1.903,1.8238,1.7456,1.7711,1.7395,1.6823,1.7178,1.6985,1.6641,2.3426,2.3369,2.3357,2.33,2.3335,2.3455,2.3671,2.3753,2.3886,2.4161,2.419,2.419,2.419,2.419,2.419,2.419,2.419,2.419,2.419,2.419,2.419,2.419,2.419,2.419,2.419,2.419,2.3608,2.2362,2.2249,2.1498,2.023,2.1497,2.1338,2.0,2.0037,2.0319,2.0761,2.0488,2.0636,2.1084,2.1596,2.189,2.2071,2.235,2.2678,2.3001,2.3262,2.3369,2.3414,2.3692,2.3785,2.3827,2.4103,2.419,2.419,2.419,2.419,2.419,2.419,2.43,2.4498,2.4827,2.5502,2.6227,2.6695,2.6863,2.7116,2.7849,2.8007,2.8209,2.8877,2.9005,2.873,2.7934,2.6959,2.5883,2.4664,2.3618,2.2855,2.2497,2.2457,2.2544,2.2759,2.3033,2.3224,2.3288,2.3288,2.3311,2.3369,2.3323,2.3153,2.2885,2.3403,2.3566,2.33,2.3896,2.417,2.4103,2.3482,2.32,2.3189,2.286,2.231,2.1597,2.1597,2.1101,2.0231,2.0066,1.9671,1.917,1.9348,1.8559,1.7379,1.7858,1.7666,1.7297,2.4074,2.4064,2.3976,2.3682,2.3876,2.3986,2.3753,2.3955,2.4151,2.419,2.419,2.419,2.419,2.419,2.419,2.419,2.419,2.419,2.419,2.419,2.419,2.419,2.419,2.419,2.419,2.419,2.3961,2.3487,2.2842,2.2288,2.1799,2.2012,2.1661,2.0893,2.2127,2.2393,2.191,2.2498,2.2948,2.3271,2.3346,2.2767,2.199,2.3379,2.3105,2.2164,2.358,2.4064,2.4074,2.4132,2.4123,2.4151,2.418,2.419,2.419,2.419,2.419,2.419,2.419,2.4713,2.5254,2.5305,2.5926,2.6724,2.7464,2.7899,2.8287,2.8745,2.884,2.8877,2.8987,2.9005,2.873,2.7934,2.7426,2.6597,2.5036,2.4444,2.3906,2.3175,2.3087,2.3081,2.3129,2.3177,2.3323,2.3599,2.3621,2.3764,2.4054,2.3795,2.3599,2.3566,2.366,2.3682,2.3621,2.4006,2.4046,2.3756,2.338,2.32,2.3189,2.286,2.231,2.1597,2.1597,2.1011,2.0033,2.0013,1.9628,1.902,1.9052,1.839,1.7315,1.6778,1.7484,1.8665,2.419,2.419,2.4161,2.4006,2.4094,2.4151,2.4006,2.4103,2.419,2.419,2.419,2.419,2.419,2.419,2.419,2.419,2.419,2.419,2.419,2.419,2.419,2.419,2.419,2.419,2.419,2.419,2.4141,2.3986,2.3649,2.3199,2.2616,2.3061,2.2754,2.1862,2.2351,2.2535,2.2427,2.234,2.2388,2.254,2.2727,2.2475,2.2056,2.2751,2.296,2.2991,2.3885,2.419,2.419,2.419,2.419,2.419,2.419,2.419,2.419,2.419,2.4613,2.4953,2.4365,2.4787,2.5393,2.5393,2.5988,2.6814,2.7622,2.8278,2.8803,2.8952,2.9005,2.9005,2.9005,2.9005,2.8877,2.8539,2.7808,2.7037,2.6338,2.5171,2.4098,2.3307,2.3369,2.3488,2.3488,2.4068,2.4234,2.3739,2.4286,2.4431,2.3953,2.3966,2.3896,2.3703,2.3886,2.3896,2.3703,2.4026,2.4026,2.3692,2.3357,2.3105,2.291,2.2616,2.2039,2.1275,2.1491,2.105,2.0224,2.0698,2.0596,2.0169,2.0644,1.9909,1.8534,1.82,1.8067,1.8222]}]]